Wetterdaten: Sonntag, 22.09.2019
Datum Zeit Temp. A. Pool Temp. Temp. 5cm Feuchte A. Luftdruck Regen Wind Richtung Richtung Sonnenschein ET UV Solar Taupunkt Windchill Windben Empfang
22.09.2019 00:00 12,4 C 13,9 C 11,1 C 68 % 1015,9 hPa 0,0 l/m 17,0 km/h (3 Bft) O 94 0 min 0,000 mm 0,0 UV-I 0 W/m 6,7 C 7,3 C 22,5 km/h (4 Bft) 100,00 %
22.09.2019 00:02 12,4 C 13,9 C 11,1 C 68 % 1015,9 hPa 0,0 l/m 16,7 km/h (3 Bft) O 84 0 min 0,000 mm 0,0 UV-I 0 W/m 6,7 C 7,4 C 24,1 km/h (4 Bft) 100,00 %
22.09.2019 00:04 12,4 C 13,9 C 11,1 C 68 % 1015,8 hPa 0,0 l/m 15,2 km/h (3 Bft) O-NO 69 0 min 0,000 mm 0,0 UV-I 0 W/m 6,7 C 8,0 C 24,1 km/h (4 Bft) 100,00 %
22.09.2019 00:06 12,4 C 13,9 C 11,1 C 69 % 1015,8 hPa 0,0 l/m 17,3 km/h (3 Bft) O-NO 70 0 min 0,000 mm 0,0 UV-I 0 W/m 6,9 C 7,2 C 24,1 km/h (4 Bft) 97,87 %
22.09.2019 00:08 12,4 C 13,9 C 11,1 C 69 % 1015,8 hPa 0,0 l/m 13,0 km/h (3 Bft) O 82 0 min 0,000 mm 0,0 UV-I 0 W/m 6,9 C 8,8 C 17,7 km/h (3 Bft) 100,00 %
22.09.2019 00:10 12,3 C 13,9 C 11,1 C 69 % 1015,8 hPa 0,0 l/m 14,9 km/h (3 Bft) O 81 0 min 0,000 mm 0,0 UV-I 0 W/m 6,8 C 8,0 C 20,9 km/h (4 Bft) 97,62 %
22.09.2019 00:12 12,2 C 13,9 C 11,1 C 70 % 1015,8 hPa 0,0 l/m 12,4 km/h (3 Bft) O 79 0 min 0,000 mm 0,0 UV-I 0 W/m 6,9 C 8,9 C 20,9 km/h (4 Bft) 93,62 %
22.09.2019 00:14 12,1 C 13,9 C 11,1 C 70 % 1015,8 hPa 0,0 l/m 11,9 km/h (2 Bft) O-NO 63 0 min 0,000 mm 0,0 UV-I 0 W/m 6,8 C 9,0 C 17,7 km/h (3 Bft) 97,87 %
22.09.2019 00:16 12,1 C 13,9 C 10,6 C 70 % 1015,7 hPa 0,0 l/m 8,7 km/h (2 Bft) O 100 0 min 0,000 mm 0,0 UV-I 0 W/m 6,8 C 10,6 C 14,5 km/h (3 Bft) 93,62 %
22.09.2019 00:18 11,9 C 13,9 C 10,6 C 71 % 1015,7 hPa 0,0 l/m 8,5 km/h (2 Bft) O 88 0 min 0,000 mm 0,0 UV-I 0 W/m 6,8 C 10,5 C 14,5 km/h (3 Bft) 91,49 %
22.09.2019 00:20 11,8 C 13,9 C 10,6 C 71 % 1015,7 hPa 0,0 l/m 9,1 km/h (2 Bft) O 82 0 min 0,000 mm 0,0 UV-I 0 W/m 6,7 C 10,1 C 14,5 km/h (3 Bft) 98,00 %
22.09.2019 00:22 11,7 C 13,9 C 10,6 C 72 % 1015,7 hPa 0,0 l/m 10,6 km/h (2 Bft) O 101 0 min 0,000 mm 0,0 UV-I 0 W/m 6,8 C 9,2 C 17,7 km/h (3 Bft) 97,87 %
22.09.2019 00:24 11,7 C 13,9 C 10,6 C 72 % 1015,6 hPa 0,0 l/m 12,5 km/h (3 Bft) O-NO 57 0 min 0,000 mm 0,0 UV-I 0 W/m 6,8 C 8,2 C 17,7 km/h (3 Bft) 95,74 %
22.09.2019 00:26 11,7 C 13,9 C 10,6 C 72 % 1015,6 hPa 0,0 l/m 11,2 km/h (2 Bft) NO 55 0 min 0,000 mm 0,0 UV-I 0 W/m 6,8 C 8,9 C 16,1 km/h (3 Bft) 95,74 %
22.09.2019 00:28 11,7 C 13,9 C 10,0 C 72 % 1015,6 hPa 0,0 l/m 12,2 km/h (2 Bft) O-NO 61 0 min 0,000 mm 0,0 UV-I 0 W/m 6,8 C 8,4 C 17,7 km/h (3 Bft) 97,87 %
22.09.2019 00:30 11,6 C 13,9 C 10,6 C 72 % 1015,5 hPa 0,0 l/m 10,5 km/h (2 Bft) O-NO 71 0 min 0,000 mm 0,0 UV-I 0 W/m 6,7 C 9,1 C 16,1 km/h (3 Bft) 92,16 %
22.09.2019 00:32 11,6 C 13,9 C 10,0 C 72 % 1015,5 hPa 0,0 l/m 11,4 km/h (2 Bft) O 79 0 min 0,000 mm 0,0 UV-I 0 W/m 6,7 C 8,6 C 16,1 km/h (3 Bft) 97,87 %
22.09.2019 00:34 11,5 C 13,9 C 10,0 C 72 % 1015,5 hPa 0,0 l/m 10,9 km/h (2 Bft) O 84 0 min 0,000 mm 0,0 UV-I 0 W/m 6,6 C 8,8 C 17,7 km/h (3 Bft) 95,74 %
22.09.2019 00:36 11,5 C 13,9 C 10,0 C 72 % 1015,5 hPa 0,0 l/m 12,5 km/h (3 Bft) O-SO 105 0 min 0,000 mm 0,0 UV-I 0 W/m 6,6 C 8,0 C 16,1 km/h (3 Bft) 97,37 %
22.09.2019 00:38 11,5 C 13,9 C 10,6 C 72 % 1015,5 hPa 0,0 l/m 11,3 km/h (2 Bft) O 84 0 min 0,000 mm 0,0 UV-I 0 W/m 6,6 C 8,6 C 17,7 km/h (3 Bft) 100,00 %
22.09.2019 00:40 11,5 C 13,9 C 10,0 C 72 % 1015,5 hPa 0,0 l/m 12,3 km/h (3 Bft) O 79 0 min 0,000 mm 0,0 UV-I 0 W/m 6,6 C 8,1 C 17,7 km/h (3 Bft) 97,92 %
22.09.2019 00:42 11,5 C 13,9 C 10,0 C 72 % 1015,5 hPa 0,0 l/m 13,4 km/h (3 Bft) O 89 0 min 0,000 mm 0,0 UV-I 0 W/m 6,6 C 7,6 C 17,7 km/h (3 Bft) 100,00 %
22.09.2019 00:44 11,5 C 13,9 C 10,0 C 72 % 1015,5 hPa 0,0 l/m 11,8 km/h (2 Bft) O-SO 103 0 min 0,000 mm 0,0 UV-I 0 W/m 6,6 C 8,3 C 17,7 km/h (3 Bft) 97,83 %
22.09.2019 00:46 11,4 C 13,9 C 10,0 C 72 % 1015,4 hPa 0,0 l/m 14,5 km/h (3 Bft) NO 50 0 min 0,000 mm 0,0 UV-I 0 W/m 6,5 C 7,0 C 20,9 km/h (4 Bft) 100,00 %
22.09.2019 00:48 11,5 C 13,9 C 10,6 C 72 % 1015,5 hPa 0,0 l/m 13,2 km/h (3 Bft) O-NO 57 0 min 0,000 mm 0,0 UV-I 0 W/m 6,6 C 7,7 C 17,7 km/h (3 Bft) 97,87 %
22.09.2019 00:50 11,5 C 13,9 C 10,0 C 72 % 1015,4 hPa 0,0 l/m 12,9 km/h (3 Bft) O-NO 68 0 min 0,000 mm 0,0 UV-I 0 W/m 6,6 C 7,8 C 17,7 km/h (3 Bft) 100,00 %
22.09.2019 00:52 11,6 C 13,9 C 10,6 C 72 % 1015,4 hPa 0,0 l/m 14,4 km/h (3 Bft) O-SO 102 0 min 0,000 mm 0,0 UV-I 0 W/m 6,7 C 7,3 C 24,1 km/h (4 Bft) 100,00 %
22.09.2019 00:54 11,7 C 13,9 C 10,6 C 72 % 1015,4 hPa 0,0 l/m 12,9 km/h (3 Bft) O-NO 78 0 min 0,000 mm 0,0 UV-I 0 W/m 6,8 C 8,1 C 19,3 km/h (3 Bft) 100,00 %
22.09.2019 00:56 11,7 C 13,9 C 10,6 C 71 % 1015,4 hPa 0,0 l/m 11,7 km/h (2 Bft) O-NO 58 0 min 0,000 mm 0,0 UV-I 0 W/m 6,6 C 8,6 C 17,7 km/h (3 Bft) 97,87 %
22.09.2019 00:58 11,7 C 13,9 C 10,0 C 71 % 1015,4 hPa 0,0 l/m 12,3 km/h (3 Bft) O-NO 76 0 min 0,000 mm 0,0 UV-I 0 W/m 6,6 C 8,3 C 16,1 km/h (3 Bft) 100,00 %
22.09.2019 01:00 11,7 C 13,9 C 10,0 C 71 % 1015,4 hPa 0,0 l/m 9,4 km/h (2 Bft) O 81 0 min 0,051 mm 0,0 UV-I 0 W/m 6,6 C 9,8 C 14,5 km/h (3 Bft) 100,00 %
22.09.2019 01:02 11,6 C 13,9 C 10,0 C 71 % 1015,3 hPa 0,0 l/m 11,7 km/h (2 Bft) O 93 0 min 0,000 mm 0,0 UV-I 0 W/m 6,5 C 8,5 C 16,1 km/h (3 Bft) 100,00 %
22.09.2019 01:04 11,6 C 13,9 C 10,0 C 71 % 1015,3 hPa 0,0 l/m 10,4 km/h (2 Bft) O-NO 76 0 min 0,000 mm 0,0 UV-I 0 W/m 6,5 C 9,1 C 16,1 km/h (3 Bft) 100,00 %
22.09.2019 01:06 11,5 C 13,9 C 10,0 C 72 % 1015,4 hPa 0,0 l/m 8,3 km/h (2 Bft) O 87 0 min 0,000 mm 0,0 UV-I 0 W/m 6,6 C 10,2 C 12,9 km/h (3 Bft) 100,00 %
22.09.2019 01:08 11,4 C 13,9 C 10,0 C 72 % 1015,4 hPa 0,0 l/m 6,4 km/h (2 Bft) O 85 0 min 0,000 mm 0,0 UV-I 0 W/m 6,5 C 11,4 C 14,5 km/h (3 Bft) 100,00 %
22.09.2019 01:10 11,3 C 13,9 C 10,0 C 73 % 1015,4 hPa 0,0 l/m 3,5 km/h (1 Bft) O 92 0 min 0,000 mm 0,0 UV-I 0 W/m 6,6 C 11,3 C 6,4 km/h (2 Bft) 100,00 %
22.09.2019 01:12 11,1 C 13,9 C 9,4 C 73 % 1015,4 hPa 0,0 l/m 3,1 km/h (1 Bft) O 87 0 min 0,000 mm 0,0 UV-I 0 W/m 6,4 C 11,1 C 8,0 km/h (2 Bft) 100,00 %
22.09.2019 01:14 10,9 C 13,9 C 8,9 C 74 % 1015,4 hPa 0,0 l/m 2,5 km/h (1 Bft) O 86 0 min 0,000 mm 0,0 UV-I 0 W/m 6,5 C 10,9 C 4,8 km/h (1 Bft) 97,87 %
22.09.2019 01:16 10,8 C 13,9 C 8,3 C 75 % 1015,4 hPa 0,0 l/m 3,8 km/h (1 Bft) O 99 0 min 0,000 mm 0,0 UV-I 0 W/m 6,5 C 10,8 C 6,4 km/h (2 Bft) 100,00 %
22.09.2019 01:18 10,7 C 13,9 C 8,3 C 75 % 1015,4 hPa 0,0 l/m 3,5 km/h (1 Bft) O 99 0 min 0,000 mm 0,0 UV-I 0 W/m 6,5 C 10,7 C 6,4 km/h (2 Bft) 100,00 %
22.09.2019 01:20 10,7 C 13,9 C 7,8 C 75 % 1015,4 hPa 0,0 l/m 2,8 km/h (1 Bft) O 99 0 min 0,000 mm 0,0 UV-I 0 W/m 6,5 C 10,7 C 4,8 km/h (1 Bft) 100,00 %
22.09.2019 01:22 10,6 C 13,9 C 7,8 C 75 % 1015,4 hPa 0,0 l/m 3,0 km/h (1 Bft) O 99 0 min 0,000 mm 0,0 UV-I 0 W/m 6,4 C 10,6 C 4,8 km/h (1 Bft) 100,00 %
22.09.2019 01:24 10,4 C 13,9 C 7,2 C 76 % 1015,4 hPa 0,0 l/m 4,0 km/h (1 Bft) O 88 0 min 0,000 mm 0,0 UV-I 0 W/m 6,4 C 10,4 C 6,4 km/h (2 Bft) 97,87 %
22.09.2019 01:26 10,4 C 13,9 C 7,8 C 76 % 1015,4 hPa 0,0 l/m 4,2 km/h (1 Bft) O-NO 72 0 min 0,000 mm 0,0 UV-I 0 W/m 6,4 C 10,4 C 6,4 km/h (2 Bft) 97,87 %
22.09.2019 01:28 10,4 C 13,9 C 7,8 C 76 % 1015,4 hPa 0,0 l/m 6,0 km/h (2 Bft) O 90 0 min 0,000 mm 0,0 UV-I 0 W/m 6,4 C 10,4 C 12,9 km/h (3 Bft) 97,87 %
22.09.2019 01:30 10,4 C 13,9 C 7,8 C 76 % 1015,4 hPa 0,0 l/m 7,8 km/h (2 Bft) O-NO 59 0 min 0,000 mm 0,0 UV-I 0 W/m 6,4 C 9,4 C 14,5 km/h (3 Bft) 97,87 %
22.09.2019 01:32 10,6 C 13,9 C 8,3 C 75 % 1015,3 hPa 0,0 l/m 8,8 km/h (2 Bft) O-SO 107 0 min 0,000 mm 0,0 UV-I 0 W/m 6,4 C 9,0 C 16,1 km/h (3 Bft) 95,74 %
22.09.2019 01:34 10,7 C 13,9 C 8,3 C 75 % 1015,4 hPa 0,0 l/m 8,3 km/h (2 Bft) O 88 0 min 0,000 mm 0,0 UV-I 0 W/m 6,5 C 9,4 C 12,9 km/h (3 Bft) 96,00 %
22.09.2019 01:36 10,8 C 13,9 C 8,9 C 75 % 1015,4 hPa 0,0 l/m 10,2 km/h (2 Bft) O-NO 78 0 min 0,000 mm 0,0 UV-I 0 W/m 6,5 C 8,4 C 14,5 km/h (3 Bft) 95,74 %
22.09.2019 01:38 10,9 C 13,9 C 8,9 C 74 % 1015,3 hPa 0,0 l/m 10,3 km/h (2 Bft) O-NO 67 0 min 0,000 mm 0,0 UV-I 0 W/m 6,5 C 8,4 C 12,9 km/h (3 Bft) 91,49 %
22.09.2019 01:40 10,9 C 13,9 C 8,9 C 74 % 1015,3 hPa 0,0 l/m 9,8 km/h (2 Bft) O 97 0 min 0,000 mm 0,0 UV-I 0 W/m 6,5 C 8,7 C 19,3 km/h (3 Bft) 97,37 %
22.09.2019 01:42 10,9 C 13,9 C 9,4 C 74 % 1015,3 hPa 0,0 l/m 8,8 km/h (2 Bft) O 96 0 min 0,000 mm 0,0 UV-I 0 W/m 6,5 C 9,3 C 14,5 km/h (3 Bft) 91,49 %
22.09.2019 01:44 10,9 C 13,9 C 9,4 C 74 % 1015,3 hPa 0,0 l/m 7,5 km/h (2 Bft) O-NO 59 0 min 0,000 mm 0,0 UV-I 0 W/m 6,5 C 10,1 C 11,3 km/h (2 Bft) 93,62 %
22.09.2019 01:46 10,8 C 13,9 C 9,4 C 74 % 1015,3 hPa 0,0 l/m 7,9 km/h (2 Bft) O-NO 72 0 min 0,000 mm 0,0 UV-I 0 W/m 6,4 C 9,8 C 12,9 km/h (3 Bft) 93,62 %
22.09.2019 01:48 10,8 C 13,9 C 9,4 C 74 % 1015,3 hPa 0,0 l/m 9,1 km/h (2 Bft) O-NO 76 0 min 0,000 mm 0,0 UV-I 0 W/m 6,4 C 9,0 C 12,9 km/h (3 Bft) 93,62 %
22.09.2019 01:50 10,9 C 13,9 C 9,4 C 74 % 1015,3 hPa 0,0 l/m 9,2 km/h (2 Bft) O 81 0 min 0,000 mm 0,0 UV-I 0 W/m 6,5 C 9,0 C 14,5 km/h (3 Bft) 91,49 %
22.09.2019 01:52 10,9 C 13,9 C 9,4 C 74 % 1015,3 hPa 0,0 l/m 9,2 km/h (2 Bft) O 84 0 min 0,000 mm 0,0 UV-I 0 W/m 6,5 C 9,0 C 14,5 km/h (3 Bft) 95,74 %
22.09.2019 01:54 10,9 C 13,9 C 9,4 C 73 % 1015,2 hPa 0,0 l/m 10,1 km/h (2 Bft) O 84 0 min 0,000 mm 0,0 UV-I 0 W/m 6,3 C 8,5 C 16,1 km/h (3 Bft) 87,50 %
22.09.2019 01:56 11,0 C 13,9 C 9,4 C 73 % 1015,2 hPa 0,0 l/m 9,9 km/h (2 Bft) O 83 0 min 0,000 mm 0,0 UV-I 0 W/m 6,4 C 8,8 C 16,1 km/h (3 Bft) 93,62 %
22.09.2019 01:58 10,9 C 13,9 C 9,4 C 73 % 1015,1 hPa 0,0 l/m 8,6 km/h (2 Bft) O-NO 66 0 min 0,000 mm 0,0 UV-I 0 W/m 6,3 C 9,4 C 16,1 km/h (3 Bft) 95,83 %
22.09.2019 02:00 10,9 C 13,9 C 9,4 C 73 % 1015,1 hPa 0,0 l/m 11,5 km/h (2 Bft) O-NO 71 0 min 0,025 mm 0,0 UV-I 0 W/m 6,3 C 7,8 C 17,7 km/h (3 Bft) 97,87 %
22.09.2019 02:02 10,9 C 13,9 C 9,4 C 73 % 1015,1 hPa 0,0 l/m 10,6 km/h (2 Bft) O 79 0 min 0,000 mm 0,0 UV-I 0 W/m 6,3 C 8,3 C 16,1 km/h (3 Bft) 97,87 %
22.09.2019 02:04 10,9 C 13,9 C 9,4 C 73 % 1015,1 hPa 0,0 l/m 11,3 km/h (2 Bft) NO 56 0 min 0,000 mm 0,0 UV-I 0 W/m 6,3 C 7,9 C 16,1 km/h (3 Bft) 95,74 %
22.09.2019 02:06 10,9 C 13,9 C 9,4 C 73 % 1015,0 hPa 0,0 l/m 10,7 km/h (2 Bft) O 98 0 min 0,000 mm 0,0 UV-I 0 W/m 6,3 C 8,2 C 16,1 km/h (3 Bft) 97,87 %
22.09.2019 02:08 10,9 C 13,9 C 9,4 C 73 % 1015,1 hPa 0,0 l/m 11,3 km/h (2 Bft) O 84 0 min 0,000 mm 0,0 UV-I 0 W/m 6,3 C 7,9 C 17,7 km/h (3 Bft) 93,62 %
22.09.2019 02:10 10,9 C 13,9 C 9,4 C 73 % 1015,2 hPa 0,0 l/m 11,7 km/h (2 Bft) O 81 0 min 0,000 mm 0,0 UV-I 0 W/m 6,3 C 7,7 C 14,5 km/h (3 Bft) 95,74 %
22.09.2019 02:12 10,9 C 13,9 C 9,4 C 73 % 1015,1 hPa 0,0 l/m 11,2 km/h (2 Bft) O-NO 69 0 min 0,000 mm 0,0 UV-I 0 W/m 6,3 C 7,9 C 17,7 km/h (3 Bft) 98,00 %
22.09.2019 02:14 10,8 C 13,9 C 9,4 C 73 % 1015,1 hPa 0,0 l/m 13,2 km/h (3 Bft) O-NO 74 0 min 0,000 mm 0,0 UV-I 0 W/m 6,2 C 6,9 C 16,1 km/h (3 Bft) 94,74 %
22.09.2019 02:16 10,8 C 13,9 C 9,4 C 73 % 1015,0 hPa 0,0 l/m 11,8 km/h (2 Bft) O-NO 71 0 min 0,000 mm 0,0 UV-I 0 W/m 6,2 C 7,5 C 17,7 km/h (3 Bft) 95,74 %
22.09.2019 02:18 10,8 C 13,9 C 9,4 C 73 % 1015,0 hPa 0,0 l/m 11,5 km/h (2 Bft) O-NO 76 0 min 0,000 mm 0,0 UV-I 0 W/m 6,2 C 7,7 C 19,3 km/h (3 Bft) 91,49 %
22.09.2019 02:20 10,8 C 13,9 C 9,4 C 74 % 1015,0 hPa 0,0 l/m 11,4 km/h (2 Bft) O 96 0 min 0,000 mm 0,0 UV-I 0 W/m 6,4 C 7,7 C 16,1 km/h (3 Bft) 93,62 %
22.09.2019 02:22 10,8 C 13,9 C 9,4 C 74 % 1015,1 hPa 0,0 l/m 11,7 km/h (2 Bft) O 86 0 min 0,000 mm 0,0 UV-I 0 W/m 6,4 C 7,6 C 16,1 km/h (3 Bft) 95,74 %
22.09.2019 02:24 10,8 C 13,9 C 9,4 C 74 % 1015,0 hPa 0,0 l/m 13,4 km/h (3 Bft) O 100 0 min 0,000 mm 0,0 UV-I 0 W/m 6,4 C 6,8 C 22,5 km/h (4 Bft) 95,74 %
22.09.2019 02:26 10,8 C 13,9 C 9,4 C 74 % 1015,0 hPa 0,0 l/m 12,5 km/h (3 Bft) O-NO 61 0 min 0,000 mm 0,0 UV-I 0 W/m 6,4 C 7,2 C 17,7 km/h (3 Bft) 97,87 %
22.09.2019 02:28 10,7 C 13,9 C 9,4 C 74 % 1014,9 hPa 0,0 l/m 12,7 km/h (3 Bft) O 94 0 min 0,000 mm 0,0 UV-I 0 W/m 6,3 C 7,0 C 17,7 km/h (3 Bft) 97,87 %
22.09.2019 02:30 10,7 C 13,9 C 9,4 C 74 % 1014,8 hPa 0,0 l/m 11,2 km/h (2 Bft) O 94 0 min 0,000 mm 0,0 UV-I 0 W/m 6,3 C 7,7 C 16,1 km/h (3 Bft) 97,87 %
22.09.2019 02:32 10,7 C 13,9 C 9,4 C 74 % 1014,8 hPa 0,0 l/m 12,2 km/h (2 Bft) O 86 0 min 0,000 mm 0,0 UV-I 0 W/m 6,3 C 7,2 C 17,7 km/h (3 Bft) 97,87 %
22.09.2019 02:34 10,7 C 13,9 C 9,4 C 74 % 1014,8 hPa 0,0 l/m 11,0 km/h (2 Bft) O-NO 69 0 min 0,000 mm 0,0 UV-I 0 W/m 6,3 C 7,8 C 16,1 km/h (3 Bft) 97,87 %
22.09.2019 02:36 10,6 C 13,9 C 9,4 C 74 % 1014,8 hPa 0,0 l/m 11,1 km/h (2 Bft) O-NO 67 0 min 0,000 mm 0,0 UV-I 0 W/m 6,2 C 7,7 C 17,7 km/h (3 Bft) 97,92 %
22.09.2019 02:38 10,6 C 13,9 C 9,4 C 74 % 1014,7 hPa 0,0 l/m 10,3 km/h (2 Bft) O 82 0 min 0,000 mm 0,0 UV-I 0 W/m 6,2 C 8,1 C 16,1 km/h (3 Bft) 95,74 %
22.09.2019 02:40 10,6 C 13,9 C 9,4 C 74 % 1014,8 hPa 0,0 l/m 9,7 km/h (2 Bft) O-NO 75 0 min 0,000 mm 0,0 UV-I 0 W/m 6,2 C 8,4 C 14,5 km/h (3 Bft) 97,87 %
22.09.2019 02:42 10,6 C 13,9 C 9,4 C 74 % 1014,7 hPa 0,0 l/m 11,1 km/h (2 Bft) O-NO 71 0 min 0,000 mm 0,0 UV-I 0 W/m 6,2 C 7,7 C 16,1 km/h (3 Bft) 97,87 %
22.09.2019 02:44 10,6 C 13,9 C 9,4 C 74 % 1014,8 hPa 0,0 l/m 8,9 km/h (2 Bft) O 82 0 min 0,000 mm 0,0 UV-I 0 W/m 6,2 C 8,9 C 14,5 km/h (3 Bft) 97,87 %
22.09.2019 02:46 10,5 C 13,9 C 9,4 C 74 % 1014,7 hPa 0,0 l/m 10,1 km/h (2 Bft) O-NO 73 0 min 0,000 mm 0,0 UV-I 0 W/m 6,1 C 8,1 C 16,1 km/h (3 Bft) 97,87 %
22.09.2019 02:48 10,5 C 13,9 C 9,4 C 75 % 1014,7 hPa 0,0 l/m 13,3 km/h (3 Bft) O-NO 71 0 min 0,000 mm 0,0 UV-I 0 W/m 6,3 C 6,5 C 20,9 km/h (4 Bft) 97,87 %
22.09.2019 02:50 10,4 C 13,9 C 8,9 C 75 % 1014,7 hPa 0,0 l/m 9,3 km/h (2 Bft) O-NO 77 0 min 0,000 mm 0,0 UV-I 0 W/m 6,2 C 8,4 C 14,5 km/h (3 Bft) 97,87 %
22.09.2019 02:52 10,4 C 13,9 C 8,9 C 75 % 1014,7 hPa 0,0 l/m 10,9 km/h (2 Bft) O-NO 72 0 min 0,000 mm 0,0 UV-I 0 W/m 6,2 C 7,5 C 17,7 km/h (3 Bft) 100,00 %
22.09.2019 02:54 10,4 C 13,9 C 8,9 C 75 % 1014,7 hPa 0,0 l/m 8,0 km/h (2 Bft) O 94 0 min 0,000 mm 0,0 UV-I 0 W/m 6,2 C 9,3 C 12,9 km/h (3 Bft) 96,00 %
22.09.2019 02:56 10,3 C 13,9 C 8,9 C 75 % 1014,7 hPa 0,0 l/m 7,9 km/h (2 Bft) O-NO 75 0 min 0,000 mm 0,0 UV-I 0 W/m 6,1 C 9,2 C 12,9 km/h (3 Bft) 98,00 %
22.09.2019 02:58 10,3 C 13,9 C 8,9 C 75 % 1014,6 hPa 0,0 l/m 8,4 km/h (2 Bft) O 86 0 min 0,000 mm 0,0 UV-I 0 W/m 6,1 C 8,9 C 14,5 km/h (3 Bft) 97,87 %
22.09.2019 03:00 10,3 C 13,9 C 8,9 C 75 % 1014,5 hPa 0,0 l/m 10,8 km/h (2 Bft) O 86 0 min 0,026 mm 0,0 UV-I 0 W/m 6,1 C 7,5 C 16,1 km/h (3 Bft) 97,87 %
22.09.2019 03:02 10,3 C 13,9 C 8,9 C 75 % 1014,6 hPa 0,0 l/m 10,6 km/h (2 Bft) O-NO 58 0 min 0,000 mm 0,0 UV-I 0 W/m 6,1 C 7,6 C 16,1 km/h (3 Bft) 97,14 %
22.09.2019 03:04 10,3 C 13,9 C 8,9 C 75 % 1014,5 hPa 0,0 l/m 13,3 km/h (3 Bft) O-NO 71 0 min 0,000 mm 0,0 UV-I 0 W/m 6,1 C 6,2 C 20,9 km/h (4 Bft) 98,11 %
22.09.2019 03:06 10,3 C 13,9 C 8,9 C 75 % 1014,5 hPa 0,0 l/m 11,3 km/h (2 Bft) O-NO 64 0 min 0,000 mm 0,0 UV-I 0 W/m 6,1 C 7,2 C 17,7 km/h (3 Bft) 95,74 %
22.09.2019 03:08 10,3 C 13,9 C 8,9 C 75 % 1014,4 hPa 0,0 l/m 10,4 km/h (2 Bft) O-NO 67 0 min 0,000 mm 0,0 UV-I 0 W/m 6,1 C 7,7 C 16,1 km/h (3 Bft) 98,00 %
22.09.2019 03:10 10,3 C 13,9 C 8,9 C 75 % 1014,5 hPa 0,0 l/m 10,0 km/h (2 Bft) O 98 0 min 0,000 mm 0,0 UV-I 0 W/m 6,1 C 7,9 C 14,5 km/h (3 Bft) 97,37 %
22.09.2019 03:12 10,3 C 13,9 C 8,9 C 75 % 1014,4 hPa 0,0 l/m 9,9 km/h (2 Bft) O-SO 112 0 min 0,000 mm 0,0 UV-I 0 W/m 6,1 C 8,0 C 14,5 km/h (3 Bft) 97,87 %
22.09.2019 03:14 10,3 C 13,9 C 8,9 C 75 % 1014,5 hPa 0,0 l/m 10,7 km/h (2 Bft) O 101 0 min 0,000 mm 0,0 UV-I 0 W/m 6,1 C 7,5 C 16,1 km/h (3 Bft) 97,92 %
22.09.2019 03:16 10,3 C 13,9 C 8,9 C 75 % 1014,5 hPa 0,0 l/m 13,5 km/h (3 Bft) O-SO 103 0 min 0,000 mm 0,0 UV-I 0 W/m 6,1 C 6,1 C 19,3 km/h (3 Bft) 95,74 %
22.09.2019 03:18 10,3 C 13,9 C 8,9 C 74 % 1014,5 hPa 0,0 l/m 11,5 km/h (2 Bft) O-SO 115 0 min 0,000 mm 0,0 UV-I 0 W/m 5,9 C 7,1 C 17,7 km/h (3 Bft) 100,00 %
22.09.2019 03:20 10,3 C 13,9 C 8,9 C 74 % 1014,5 hPa 0,0 l/m 11,5 km/h (2 Bft) O 80 0 min 0,000 mm 0,0 UV-I 0 W/m 5,9 C 7,1 C 17,7 km/h (3 Bft) 97,87 %
22.09.2019 03:22 10,3 C 13,9 C 8,9 C 74 % 1014,5 hPa 0,0 l/m 10,7 km/h (2 Bft) O-SO 103 0 min 0,000 mm 0,0 UV-I 0 W/m 5,9 C 7,5 C 17,7 km/h (3 Bft) 100,00 %
22.09.2019 03:24 10,3 C 13,9 C 8,9 C 74 % 1014,5 hPa 0,0 l/m 12,7 km/h (3 Bft) O-SO 109 0 min 0,000 mm 0,0 UV-I 0 W/m 5,9 C 6,5 C 19,3 km/h (3 Bft) 98,00 %
22.09.2019 03:26 10,4 C 13,9 C 8,9 C 74 % 1014,4 hPa 0,0 l/m 10,4 km/h (2 Bft) O-SO 104 0 min 0,000 mm 0,0 UV-I 0 W/m 6,0 C 7,8 C 16,1 km/h (3 Bft) 96,00 %
22.09.2019 03:28 10,4 C 13,9 C 8,9 C 74 % 1014,4 hPa 0,0 l/m 8,4 km/h (2 Bft) O-NO 69 0 min 0,000 mm 0,0 UV-I 0 W/m 6,0 C 9,0 C 12,9 km/h (3 Bft) 95,74 %
22.09.2019 03:30 10,3 C 13,9 C 8,9 C 74 % 1014,4 hPa 0,0 l/m 11,6 km/h (2 Bft) O-NO 76 0 min 0,000 mm 0,0 UV-I 0 W/m 5,9 C 7,1 C 17,7 km/h (3 Bft) 97,37 %
22.09.2019 03:32 10,3 C 13,9 C 8,9 C 74 % 1014,5 hPa 0,0 l/m 9,6 km/h (2 Bft) O 83 0 min 0,000 mm 0,0 UV-I 0 W/m 5,9 C 8,2 C 17,7 km/h (3 Bft) 95,74 %
22.09.2019 03:34 10,2 C 13,9 C 8,3 C 74 % 1014,5 hPa 0,0 l/m 10,2 km/h (2 Bft) O-SO 106 0 min 0,000 mm 0,0 UV-I 0 W/m 5,8 C 7,7 C 16,1 km/h (3 Bft) 98,00 %
22.09.2019 03:36 10,2 C 13,9 C 8,3 C 75 % 1014,5 hPa 0,0 l/m 9,5 km/h (2 Bft) O 84 0 min 0,000 mm 0,0 UV-I 0 W/m 6,0 C 8,1 C 12,9 km/h (3 Bft) 97,87 %
22.09.2019 03:38 10,2 C 13,9 C 8,3 C 75 % 1014,5 hPa 0,0 l/m 13,1 km/h (3 Bft) O 88 0 min 0,000 mm 0,0 UV-I 0 W/m 6,0 C 6,2 C 19,3 km/h (3 Bft) 91,49 %
22.09.2019 03:40 10,2 C 13,9 C 8,3 C 74 % 1014,5 hPa 0,0 l/m 10,8 km/h (2 Bft) O-SO 103 0 min 0,000 mm 0,0 UV-I 0 W/m 5,8 C 7,4 C 14,5 km/h (3 Bft) 95,74 %
22.09.2019 03:42 10,3 C 13,9 C 8,3 C 74 % 1014,5 hPa 0,0 l/m 10,0 km/h (2 Bft) O 91 0 min 0,000 mm 0,0 UV-I 0 W/m 5,9 C 7,9 C 12,9 km/h (3 Bft) 96,00 %
22.09.2019 03:44 10,2 C 13,9 C 8,3 C 74 % 1014,5 hPa 0,0 l/m 8,2 km/h (2 Bft) O 100 0 min 0,000 mm 0,0 UV-I 0 W/m 5,8 C 8,9 C 12,9 km/h (3 Bft) 97,87 %
22.09.2019 03:46 10,2 C 13,9 C 8,3 C 74 % 1014,5 hPa 0,0 l/m 7,7 km/h (2 Bft) O 97 0 min 0,000 mm 0,0 UV-I 0 W/m 5,8 C 9,3 C 11,3 km/h (2 Bft) 93,62 %
22.09.2019 03:48 10,2 C 13,9 C 8,3 C 75 % 1014,4 hPa 0,0 l/m 11,5 km/h (2 Bft) O-SO 108 0 min 0,000 mm 0,0 UV-I 0 W/m 6,0 C 7,0 C 14,5 km/h (3 Bft) 96,67 %
22.09.2019 03:50 10,2 C 13,9 C 8,3 C 75 % 1014,4 hPa 0,0 l/m 10,9 km/h (2 Bft) SO 142 0 min 0,000 mm 0,0 UV-I 0 W/m 6,0 C 7,3 C 16,1 km/h (3 Bft) 98,36 %
22.09.2019 03:52 10,2 C 13,9 C 8,3 C 75 % 1014,5 hPa 0,0 l/m 8,0 km/h (2 Bft) O-SO 114 0 min 0,000 mm 0,0 UV-I 0 W/m 6,0 C 9,1 C 14,5 km/h (3 Bft) 95,74 %
22.09.2019 03:54 10,1 C 13,9 C 8,3 C 75 % 1014,4 hPa 0,0 l/m 8,3 km/h (2 Bft) O-SO 103 0 min 0,000 mm 0,0 UV-I 0 W/m 5,9 C 8,8 C 14,5 km/h (3 Bft) 97,92 %
22.09.2019 03:56 10,1 C 13,9 C 8,3 C 75 % 1014,4 hPa 0,0 l/m 8,4 km/h (2 Bft) O-SO 113 0 min 0,000 mm 0,0 UV-I 0 W/m 5,9 C 8,7 C 12,9 km/h (3 Bft) 94,00 %
22.09.2019 03:58 10,1 C 13,9 C 8,3 C 75 % 1014,4 hPa 0,0 l/m 8,8 km/h (2 Bft) O-SO 109 0 min 0,000 mm 0,0 UV-I 0 W/m 5,9 C 8,4 C 14,5 km/h (3 Bft) 100,00 %
22.09.2019 04:00 10,1 C 13,9 C 7,8 C 75 % 1014,4 hPa 0,0 l/m 7,7 km/h (2 Bft) O-SO 116 0 min 0,025 mm 0,0 UV-I 0 W/m 5,9 C 9,2 C 12,9 km/h (3 Bft) 95,74 %
22.09.2019 04:02 10,0 C 13,9 C 7,8 C 75 % 1014,2 hPa 0,0 l/m 6,7 km/h (2 Bft) O-SO 102 0 min 0,000 mm 0,0 UV-I 0 W/m 5,8 C 9,8 C 11,3 km/h (2 Bft) 100,00 %
22.09.2019 04:04 9,9 C 13,9 C 7,8 C 75 % 1014,2 hPa 0,0 l/m 10,1 km/h (2 Bft) O 88 0 min 0,000 mm 0,0 UV-I 0 W/m 5,7 C 7,4 C 16,1 km/h (3 Bft) 95,74 %
22.09.2019 04:06 9,9 C 13,9 C 8,3 C 75 % 1014,2 hPa 0,0 l/m 9,0 km/h (2 Bft) O-SO 112 0 min 0,000 mm 0,0 UV-I 0 W/m 5,7 C 8,1 C 16,1 km/h (3 Bft) 97,87 %
22.09.2019 04:08 9,9 C 13,9 C 8,3 C 75 % 1014,1 hPa 0,0 l/m 8,7 km/h (2 Bft) O 87 0 min 0,000 mm 0,0 UV-I 0 W/m 5,7 C 8,3 C 12,9 km/h (3 Bft) 100,00 %
22.09.2019 04:10 9,9 C 13,9 C 8,3 C 75 % 1014,1 hPa 0,0 l/m 11,2 km/h (2 Bft) O 92 0 min 0,000 mm 0,0 UV-I 0 W/m 5,7 C 6,8 C 16,1 km/h (3 Bft) 97,87 %
22.09.2019 04:12 10,0 C 13,9 C 8,3 C 75 % 1014,1 hPa 0,0 l/m 10,3 km/h (2 Bft) O-SO 111 0 min 0,000 mm 0,0 UV-I 0 W/m 5,8 C 7,4 C 14,5 km/h (3 Bft) 100,00 %
22.09.2019 04:14 10,0 C 13,9 C 8,3 C 75 % 1014,1 hPa 0,0 l/m 10,3 km/h (2 Bft) O 101 0 min 0,000 mm 0,0 UV-I 0 W/m 5,8 C 7,4 C 16,1 km/h (3 Bft) 95,74 %
22.09.2019 04:16 10,0 C 13,9 C 8,3 C 75 % 1014,1 hPa 0,0 l/m 11,8 km/h (2 Bft) O 101 0 min 0,000 mm 0,0 UV-I 0 W/m 5,8 C 6,6 C 14,5 km/h (3 Bft) 97,87 %
22.09.2019 04:18 10,0 C 13,9 C 8,3 C 75 % 1014,1 hPa 0,0 l/m 10,9 km/h (2 Bft) O 100 0 min 0,000 mm 0,0 UV-I 0 W/m 5,8 C 7,1 C 16,1 km/h (3 Bft) 97,37 %
22.09.2019 04:20 10,0 C 13,9 C 8,3 C 75 % 1014,1 hPa 0,0 l/m 9,4 km/h (2 Bft) O-SO 107 0 min 0,000 mm 0,0 UV-I 0 W/m 5,8 C 8,0 C 12,9 km/h (3 Bft) 97,87 %
22.09.2019 04:22 9,9 C 13,9 C 8,3 C 75 % 1014,1 hPa 0,0 l/m 8,9 km/h (2 Bft) O 99 0 min 0,000 mm 0,0 UV-I 0 W/m 5,7 C 8,2 C 14,5 km/h (3 Bft) 95,74 %
22.09.2019 04:24 9,8 C 13,9 C 8,3 C 75 % 1014,0 hPa 0,0 l/m 10,4 km/h (2 Bft) O 94 0 min 0,000 mm 0,0 UV-I 0 W/m 5,6 C 7,1 C 14,5 km/h (3 Bft) 95,74 %
22.09.2019 04:26 9,8 C 13,9 C 7,8 C 76 % 1014,0 hPa 0,0 l/m 7,5 km/h (2 Bft) O 82 0 min 0,000 mm 0,0 UV-I 0 W/m 5,8 C 9,0 C 12,9 km/h (3 Bft) 98,00 %
22.09.2019 04:28 9,7 C 13,9 C 7,8 C 76 % 1014,0 hPa 0,0 l/m 10,4 km/h (2 Bft) O-NO 78 0 min 0,000 mm 0,0 UV-I 0 W/m 5,7 C 7,0 C 16,1 km/h (3 Bft) 95,74 %
22.09.2019 04:30 9,7 C 13,9 C 7,8 C 76 % 1013,9 hPa 0,0 l/m 10,0 km/h (2 Bft) O 94 0 min 0,000 mm 0,0 UV-I 0 W/m 5,7 C 7,3 C 16,1 km/h (3 Bft) 98,00 %
22.09.2019 04:32 9,7 C 13,9 C 7,8 C 76 % 1013,9 hPa 0,0 l/m 9,2 km/h (2 Bft) O-NO 74 0 min 0,000 mm 0,0 UV-I 0 W/m 5,7 C 7,7 C 14,5 km/h (3 Bft) 95,74 %
22.09.2019 04:34 9,7 C 13,9 C 7,8 C 76 % 1013,9 hPa 0,0 l/m 8,8 km/h (2 Bft) O-NO 61 0 min 0,000 mm 0,0 UV-I 0 W/m 5,7 C 8,0 C 14,5 km/h (3 Bft) 95,74 %
22.09.2019 04:36 9,6 C 13,9 C 7,8 C 76 % 1013,9 hPa 0,0 l/m 9,1 km/h (2 Bft) O 100 0 min 0,000 mm 0,0 UV-I 0 W/m 5,6 C 7,7 C 12,9 km/h (3 Bft) 97,92 %
22.09.2019 04:38 9,6 C 13,9 C 7,8 C 76 % 1013,9 hPa 0,0 l/m 7,6 km/h (2 Bft) O-NO 69 0 min 0,000 mm 0,0 UV-I 0 W/m 5,6 C 8,7 C 11,3 km/h (2 Bft) 100,00 %
22.09.2019 04:40 9,6 C 13,9 C 7,8 C 77 % 1013,9 hPa 0,0 l/m 8,0 km/h (2 Bft) O 79 0 min 0,000 mm 0,0 UV-I 0 W/m 5,8 C 8,4 C 12,9 km/h (3 Bft) 100,00 %
22.09.2019 04:42 9,4 C 13,9 C 7,8 C 77 % 1013,8 hPa 0,0 l/m 6,7 km/h (2 Bft) O-NO 62 0 min 0,000 mm 0,0 UV-I 0 W/m 5,6 C 9,2 C 9,7 km/h (2 Bft) 95,74 %
22.09.2019 04:44 9,3 C 13,9 C 7,8 C 77 % 1013,8 hPa 0,0 l/m 6,4 km/h (2 Bft) NO 52 0 min 0,000 mm 0,0 UV-I 0 W/m 5,5 C 9,3 C 9,7 km/h (2 Bft) 97,87 %
22.09.2019 04:46 9,1 C 13,9 C 7,8 C 78 % 1013,8 hPa 0,0 l/m 8,4 km/h (2 Bft) O-NO 65 0 min 0,000 mm 0,0 UV-I 0 W/m 5,5 C 7,6 C 9,7 km/h (2 Bft) 100,00 %
22.09.2019 04:48 8,9 C 13,9 C 7,2 C 79 % 1013,7 hPa 0,0 l/m 6,7 km/h (2 Bft) O-NO 66 0 min 0,000 mm 0,0 UV-I 0 W/m 5,5 C 8,7 C 9,7 km/h (2 Bft) 100,00 %
22.09.2019 04:50 8,8 C 13,9 C 7,2 C 79 % 1013,7 hPa 0,0 l/m 4,8 km/h (1 Bft) O-NO 67 0 min 0,000 mm 0,0 UV-I 0 W/m 5,4 C 8,8 C 8,0 km/h (2 Bft) 93,62 %
22.09.2019 04:52 8,8 C 13,9 C 7,2 C 79 % 1013,8 hPa 0,0 l/m 2,7 km/h (1 Bft) O-NO 67 0 min 0,000 mm 0,0 UV-I 0 W/m 5,4 C 8,8 C 4,8 km/h (1 Bft) 93,62 %
22.09.2019 04:54 8,8 C 13,9 C 7,2 C 80 % 1013,8 hPa 0,0 l/m 1,4 km/h (1 Bft) O-NO 69 0 min 0,000 mm 0,0 UV-I 0 W/m 5,5 C 8,8 C 3,2 km/h (1 Bft) 97,87 %
22.09.2019 04:56 8,8 C 13,9 C 6,7 C 80 % 1013,9 hPa 0,0 l/m 0,8 km/h (0 Bft) O 98 0 min 0,000 mm 0,0 UV-I 0 W/m 5,5 C 8,8 C 6,4 km/h (2 Bft) 100,00 %
22.09.2019 04:58 8,8 C 13,9 C 6,7 C 80 % 1013,9 hPa 0,0 l/m 3,2 km/h (1 Bft) O 93 0 min 0,000 mm 0,0 UV-I 0 W/m 5,5 C 8,8 C 6,4 km/h (2 Bft) 100,00 %
22.09.2019 05:00 8,7 C 13,9 C 6,1 C 80 % 1013,9 hPa 0,0 l/m 2,2 km/h (1 Bft) O 93 0 min 0,025 mm 0,0 UV-I 0 W/m 5,4 C 8,7 C 4,8 km/h (1 Bft) 100,00 %
22.09.2019 05:02 8,7 C 13,9 C 5,6 C 80 % 1013,9 hPa 0,0 l/m 0,6 km/h (0 Bft) O 93 0 min 0,000 mm 0,0 UV-I 0 W/m 5,4 C 8,7 C 3,2 km/h (1 Bft) 100,00 %
22.09.2019 05:04 8,7 C 13,9 C 5,0 C 80 % 1013,9 hPa 0,0 l/m 0,3 km/h (0 Bft) O 93 0 min 0,000 mm 0,0 UV-I 0 W/m 5,4 C 8,7 C 1,6 km/h (1 Bft) 100,00 %
22.09.2019 05:06 8,7 C 13,9 C 5,0 C 80 % 1013,9 hPa 0,0 l/m 1,6 km/h (1 Bft) O 93 0 min 0,000 mm 0,0 UV-I 0 W/m 5,4 C 8,7 C 3,2 km/h (1 Bft) 100,00 %
22.09.2019 05:08 8,6 C 13,9 C 4,4 C 80 % 1013,8 hPa 0,0 l/m 1,7 km/h (1 Bft) O 93 0 min 0,000 mm 0,0 UV-I 0 W/m 5,3 C 8,6 C 3,2 km/h (1 Bft) 97,96 %
22.09.2019 05:10 8,5 C 13,9 C 4,4 C 80 % 1013,8 hPa 0,0 l/m 3,3 km/h (1 Bft) O 93 0 min 0,000 mm 0,0 UV-I 0 W/m 5,3 C 8,5 C 4,8 km/h (1 Bft) 100,00 %
22.09.2019 05:12 8,4 C 13,9 C 4,4 C 80 % 1013,7 hPa 0,0 l/m 3,3 km/h (1 Bft) O 93 0 min 0,000 mm 0,0 UV-I 0 W/m 5,2 C 8,4 C 4,8 km/h (1 Bft) 97,92 %
22.09.2019 05:14 8,3 C 13,9 C 4,4 C 80 % 1013,6 hPa 0,0 l/m 4,0 km/h (1 Bft) O 93 0 min 0,000 mm 0,0 UV-I 0 W/m 5,1 C 8,3 C 4,8 km/h (1 Bft) 95,74 %
22.09.2019 05:16 8,3 C 13,9 C 5,0 C 81 % 1013,6 hPa 0,0 l/m 4,8 km/h (1 Bft) O-NO 73 0 min 0,000 mm 0,0 UV-I 0 W/m 5,2 C 8,3 C 6,4 km/h (2 Bft) 100,00 %
22.09.2019 05:18 8,2 C 13,9 C 5,0 C 81 % 1013,6 hPa 0,0 l/m 5,2 km/h (1 Bft) O-NO 71 0 min 0,000 mm 0,0 UV-I 0 W/m 5,1 C 8,2 C 8,0 km/h (2 Bft) 100,00 %
22.09.2019 05:20 8,2 C 13,9 C 5,6 C 81 % 1013,6 hPa 0,0 l/m 4,8 km/h (1 Bft) O-NO 74 0 min 0,000 mm 0,0 UV-I 0 W/m 5,1 C 8,2 C 6,4 km/h (2 Bft) 97,87 %
22.09.2019 05:22 8,2 C 13,9 C 5,6 C 81 % 1013,6 hPa 0,0 l/m 4,0 km/h (1 Bft) O 83 0 min 0,000 mm 0,0 UV-I 0 W/m 5,1 C 8,2 C 6,4 km/h (2 Bft) 100,00 %
22.09.2019 05:24 8,3 C 13,9 C 5,6 C 81 % 1013,6 hPa 0,0 l/m 4,3 km/h (1 Bft) O 83 0 min 0,000 mm 0,0 UV-I 0 W/m 5,2 C 8,3 C 6,4 km/h (2 Bft) 96,23 %
22.09.2019 05:26 8,3 C 13,9 C 5,6 C 81 % 1013,6 hPa 0,0 l/m 4,8 km/h (1 Bft) O 82 0 min 0,000 mm 0,0 UV-I 0 W/m 5,2 C 8,3 C 6,4 km/h (2 Bft) 97,87 %
22.09.2019 05:28 8,2 C 13,9 C 5,6 C 81 % 1013,6 hPa 0,0 l/m 5,3 km/h (1 Bft) O-NO 58 0 min 0,000 mm 0,0 UV-I 0 W/m 5,1 C 8,2 C 8,0 km/h (2 Bft) 93,62 %
22.09.2019 05:30 8,0 C 13,9 C 5,6 C 82 % 1013,5 hPa 0,0 l/m 4,4 km/h (1 Bft) O-NO 57 0 min 0,000 mm 0,0 UV-I 0 W/m 5,1 C 8,0 C 6,4 km/h (2 Bft) 89,36 %
22.09.2019 05:32 7,9 C 13,9 C 5,6 C 82 % 1013,5 hPa 0,0 l/m 4,1 km/h (1 Bft) O-NO 66 0 min 0,000 mm 0,0 UV-I 0 W/m 5,0 C 7,9 C 6,4 km/h (2 Bft) 93,62 %
22.09.2019 05:34 7,9 C 13,9 C 5,6 C 82 % 1013,5 hPa 0,0 l/m 4,2 km/h (1 Bft) O-NO 68 0 min 0,000 mm 0,0 UV-I 0 W/m 5,0 C 7,9 C 6,4 km/h (2 Bft) 91,49 %
22.09.2019 05:36 7,9 C 13,9 C 5,6 C 83 % 1013,5 hPa 0,0 l/m 4,3 km/h (1 Bft) O-NO 76 0 min 0,000 mm 0,0 UV-I 0 W/m 5,2 C 7,9 C 6,4 km/h (2 Bft) 93,62 %
22.09.2019 05:38 7,9 C 13,9 C 5,0 C 83 % 1013,5 hPa 0,0 l/m 4,7 km/h (1 Bft) O-NO 67 0 min 0,000 mm 0,0 UV-I 0 W/m 5,2 C 7,9 C 6,4 km/h (2 Bft) 93,62 %
22.09.2019 05:40 7,8 C 13,9 C 5,0 C 83 % 1013,4 hPa 0,0 l/m 4,2 km/h (1 Bft) O-NO 71 0 min 0,000 mm 0,0 UV-I 0 W/m 5,1 C 7,8 C 6,4 km/h (2 Bft) 89,36 %
22.09.2019 05:42 7,8 C 13,9 C 5,6 C 83 % 1013,5 hPa 0,0 l/m 4,6 km/h (1 Bft) O-NO 67 0 min 0,000 mm 0,0 UV-I 0 W/m 5,1 C 7,8 C 6,4 km/h (2 Bft) 93,62 %
22.09.2019 05:44 7,7 C 13,9 C 5,6 C 83 % 1013,5 hPa 0,0 l/m 4,1 km/h (1 Bft) O-NO 67 0 min 0,000 mm 0,0 UV-I 0 W/m 5,0 C 7,7 C 6,4 km/h (2 Bft) 91,49 %
22.09.2019 05:46 7,7 C 13,9 C 5,0 C 83 % 1013,5 hPa 0,0 l/m 2,9 km/h (1 Bft) O-NO 69 0 min 0,000 mm 0,0 UV-I 0 W/m 5,0 C 7,7 C 4,8 km/h (1 Bft) 87,23 %
22.09.2019 05:48 7,7 C 13,9 C 5,0 C 83 % 1013,6 hPa 0,0 l/m 3,5 km/h (1 Bft) O-NO 75 0 min 0,000 mm 0,0 UV-I 0 W/m 5,0 C 7,7 C 4,8 km/h (1 Bft) 93,62 %
22.09.2019 05:50 7,7 C 13,9 C 5,0 C 84 % 1013,6 hPa 0,0 l/m 3,3 km/h (1 Bft) O-NO 77 0 min 0,000 mm 0,0 UV-I 0 W/m 5,2 C 7,7 C 4,8 km/h (1 Bft) 92,31 %
22.09.2019 05:52 7,7 C 13,9 C 5,0 C 84 % 1013,6 hPa 0,0 l/m 2,7 km/h (1 Bft) O-NO 77 0 min 0,000 mm 0,0 UV-I 0 W/m 5,2 C 7,7 C 4,8 km/h (1 Bft) 93,62 %
22.09.2019 05:54 7,8 C 13,9 C 4,4 C 84 % 1013,6 hPa 0,0 l/m 3,4 km/h (1 Bft) O-NO 78 0 min 0,000 mm 0,0 UV-I 0 W/m 5,3 C 7,8 C 4,8 km/h (1 Bft) 93,62 %
22.09.2019 05:56 7,7 C 13,9 C 4,4 C 83 % 1013,6 hPa 0,0 l/m 2,9 km/h (1 Bft) O-NO 78 0 min 0,000 mm 0,0 UV-I 0 W/m 5,0 C 7,7 C 4,8 km/h (1 Bft) 93,62 %
22.09.2019 05:58 7,7 C 13,9 C 4,4 C 83 % 1013,5 hPa 0,0 l/m 4,2 km/h (1 Bft) O-NO 76 0 min 0,000 mm 0,0 UV-I 0 W/m 5,0 C 7,7 C 6,4 km/h (2 Bft) 95,74 %
22.09.2019 06:00 7,7 C 13,9 C 4,4 C 84 % 1013,5 hPa 0,0 l/m 4,3 km/h (1 Bft) O-NO 76 0 min 0,000 mm 0,0 UV-I 0 W/m 5,2 C 7,7 C 4,8 km/h (1 Bft) 91,49 %
22.09.2019 06:02 7,7 C 13,9 C 4,4 C 84 % 1013,5 hPa 0,0 l/m 2,9 km/h (1 Bft) O-NO 76 0 min 0,000 mm 0,0 UV-I 0 W/m 5,2 C 7,7 C 4,8 km/h (1 Bft) 94,34 %
22.09.2019 06:04 7,7 C 13,9 C 4,4 C 84 % 1013,5 hPa 0,0 l/m 2,9 km/h (1 Bft) O-NO 76 0 min 0,000 mm 0,0 UV-I 0 W/m 5,2 C 7,7 C 4,8 km/h (1 Bft) 97,37 %
22.09.2019 06:06 7,7 C 13,9 C 3,9 C 84 % 1013,4 hPa 0,0 l/m 3,8 km/h (1 Bft) O-NO 65 0 min 0,000 mm 0,0 UV-I 0 W/m 5,2 C 7,7 C 6,4 km/h (2 Bft) 95,74 %
22.09.2019 06:08 7,6 C 13,9 C 3,9 C 84 % 1013,4 hPa 0,0 l/m 4,1 km/h (1 Bft) O-NO 65 0 min 0,000 mm 0,0 UV-I 0 W/m 5,1 C 7,6 C 6,4 km/h (2 Bft) 97,87 %
22.09.2019 06:10 7,5 C 13,9 C 4,4 C 84 % 1013,4 hPa 0,0 l/m 4,6 km/h (1 Bft) O-NO 78 0 min 0,000 mm 0,0 UV-I 0 W/m 5,0 C 7,5 C 6,4 km/h (2 Bft) 97,87 %
22.09.2019 06:12 7,5 C 13,9 C 4,4 C 84 % 1013,4 hPa 0,0 l/m 3,9 km/h (1 Bft) O-NO 76 0 min 0,000 mm 0,0 UV-I 0 W/m 5,0 C 7,5 C 4,8 km/h (1 Bft) 97,87 %
22.09.2019 06:14 7,4 C 13,9 C 4,4 C 84 % 1013,4 hPa 0,0 l/m 2,7 km/h (1 Bft) O-NO 76 0 min 0,000 mm 0,0 UV-I 0 W/m 4,9 C 7,4 C 4,8 km/h (1 Bft) 93,62 %
22.09.2019 06:16 7,4 C 13,9 C 4,4 C 84 % 1013,4 hPa 0,0 l/m 2,3 km/h (1 Bft) O-NO 78 0 min 0,000 mm 0,0 UV-I 0 W/m 4,9 C 7,4 C 4,8 km/h (1 Bft) 95,74 %
22.09.2019 06:18 7,3 C 13,9 C 4,4 C 85 % 1013,4 hPa 0,0 l/m 2,4 km/h (1 Bft) O 79 0 min 0,000 mm 0,0 UV-I 0 W/m 4,9 C 7,3 C 3,2 km/h (1 Bft) 97,87 %
22.09.2019 06:20 7,3 C 13,9 C 4,4 C 85 % 1013,4 hPa 0,0 l/m 2,1 km/h (1 Bft) O 86 0 min 0,000 mm 0,0 UV-I 0 W/m 4,9 C 7,3 C 3,2 km/h (1 Bft) 100,00 %
22.09.2019 06:22 7,3 C 13,9 C 3,9 C 85 % 1013,5 hPa 0,0 l/m 1,7 km/h (1 Bft) O 86 0 min 0,000 mm 0,0 UV-I 0 W/m 4,9 C 7,3 C 3,2 km/h (1 Bft) 97,92 %
22.09.2019 06:24 7,3 C 13,9 C 4,4 C 85 % 1013,5 hPa 0,0 l/m 1,3 km/h (1 Bft) O 86 0 min 0,000 mm 0,0 UV-I 0 W/m 4,9 C 7,3 C 3,2 km/h (1 Bft) 100,00 %
22.09.2019 06:26 7,3 C 13,9 C 3,9 C 85 % 1013,5 hPa 0,0 l/m 1,2 km/h (1 Bft) O 86 0 min 0,000 mm 0,0 UV-I 0 W/m 4,9 C 7,3 C 3,2 km/h (1 Bft) 100,00 %
22.09.2019 06:28 7,3 C 13,9 C 3,9 C 85 % 1013,5 hPa 0,0 l/m 1,1 km/h (1 Bft) O 86 0 min 0,000 mm 0,0 UV-I 0 W/m 4,9 C 7,3 C 1,6 km/h (1 Bft) 98,00 %
22.09.2019 06:30 7,3 C 13,9 C 3,3 C 85 % 1013,4 hPa 0,0 l/m 1,1 km/h (1 Bft) O 86 0 min 0,000 mm 0,0 UV-I 0 W/m 4,9 C 7,3 C 3,2 km/h (1 Bft) 97,87 %
22.09.2019 06:32 7,3 C 13,9 C 3,3 C 85 % 1013,4 hPa 0,0 l/m 1,5 km/h (1 Bft) O 86 0 min 0,000 mm 0,0 UV-I 4 W/m 4,9 C 7,3 C 3,2 km/h (1 Bft) 100,00 %
22.09.2019 06:34 7,3 C 13,9 C 3,3 C 85 % 1013,4 hPa 0,0 l/m 0,5 km/h (0 Bft) O 86 0 min 0,000 mm 0,0 UV-I 5 W/m 4,9 C 7,3 C 1,6 km/h (1 Bft) 100,00 %
22.09.2019 06:36 7,2 C 13,9 C 3,3 C 84 % 1013,5 hPa 0,0 l/m 0,0 km/h (0 Bft) O 86 0 min 0,000 mm 0,0 UV-I 5 W/m 4,7 C 7,2 C 0,0 km/h (0 Bft) 100,00 %
22.09.2019 06:38 7,1 C 13,9 C 3,3 C 85 % 1013,5 hPa 0,0 l/m 0,0 km/h (0 Bft) O 86 0 min 0,000 mm 0,0 UV-I 7 W/m 4,8 C 7,1 C 1,6 km/h (1 Bft) 100,00 %
22.09.2019 06:40 7,2 C 13,9 C 2,8 C 85 % 1013,4 hPa 0,0 l/m 1,1 km/h (1 Bft) O 86 0 min 0,000 mm 0,0 UV-I 7 W/m 4,9 C 7,2 C 3,2 km/h (1 Bft) 100,00 %
22.09.2019 06:42 7,2 C 13,9 C 2,8 C 85 % 1013,4 hPa 0,0 l/m 2,0 km/h (1 Bft) O 86 0 min 0,000 mm 0,0 UV-I 9 W/m 4,9 C 7,2 C 3,2 km/h (1 Bft) 97,87 %
22.09.2019 06:44 7,1 C 13,9 C 2,8 C 85 % 1013,4 hPa 0,0 l/m 3,0 km/h (1 Bft) O 86 0 min 0,000 mm 0,0 UV-I 9 W/m 4,8 C 7,1 C 3,2 km/h (1 Bft) 97,87 %
22.09.2019 06:46 7,0 C 13,9 C 2,8 C 86 % 1013,4 hPa 0,0 l/m 2,7 km/h (1 Bft) O 86 0 min 0,000 mm 0,0 UV-I 11 W/m 4,8 C 7,0 C 3,2 km/h (1 Bft) 97,87 %
22.09.2019 06:48 7,0 C 13,9 C 2,8 C 86 % 1013,5 hPa 0,0 l/m 1,4 km/h (1 Bft) O 86 0 min 0,000 mm 0,0 UV-I 11 W/m 4,8 C 7,0 C 1,6 km/h (1 Bft) 100,00 %
22.09.2019 06:50 7,0 C 13,9 C 2,8 C 86 % 1013,6 hPa 0,0 l/m 0,6 km/h (0 Bft) O 86 0 min 0,000 mm 0,0 UV-I 12 W/m 4,8 C 7,0 C 1,6 km/h (1 Bft) 100,00 %
22.09.2019 06:52 7,0 C 13,9 C 2,8 C 86 % 1013,6 hPa 0,0 l/m 0,0 km/h (0 Bft) O 86 0 min 0,000 mm 0,0 UV-I 12 W/m 4,8 C 7,0 C 0,0 km/h (0 Bft) 95,74 %
22.09.2019 06:54 7,0 C 13,9 C 2,8 C 86 % 1013,6 hPa 0,0 l/m 0,1 km/h (0 Bft) O 86 0 min 0,000 mm 0,0 UV-I 13 W/m 4,8 C 7,0 C 1,6 km/h (1 Bft) 96,00 %
22.09.2019 06:56 7,0 C 13,9 C 2,8 C 86 % 1013,5 hPa 0,0 l/m 1,6 km/h (1 Bft) O 86 0 min 0,000 mm 0,0 UV-I 16 W/m 4,8 C 7,0 C 3,2 km/h (1 Bft) 96,00 %
22.09.2019 06:58 6,8 C 13,9 C 3,3 C 86 % 1013,5 hPa 0,0 l/m 1,2 km/h (1 Bft) O 86 0 min 0,000 mm 0,0 UV-I 10 W/m 4,6 C 6,8 C 1,6 km/h (1 Bft) 97,87 %
22.09.2019 07:00 6,7 C 13,9 C 3,3 C 87 % 1013,4 hPa 0,0 l/m 0,5 km/h (0 Bft) O 86 2 min 0,000 mm 0,0 UV-I 16 W/m 4,7 C 6,7 C 1,6 km/h (1 Bft) 95,74 %
22.09.2019 07:02 6,7 C 13,9 C 3,3 C 87 % 1013,5 hPa 0,0 l/m 0,0 km/h (0 Bft) O 86 2 min 0,000 mm 0,0 UV-I 26 W/m 4,7 C 6,7 C 0,0 km/h (0 Bft) 94,87 %
22.09.2019 07:04 6,6 C 13,9 C 3,9 C 87 % 1013,5 hPa 0,0 l/m 0,3 km/h (0 Bft) O 86 2 min 0,000 mm 0,0 UV-I 31 W/m 4,6 C 6,6 C 1,6 km/h (1 Bft) 93,62 %
22.09.2019 07:06 6,5 C 13,9 C 3,9 C 87 % 1013,5 hPa 0,0 l/m 0,5 km/h (0 Bft) O 86 2 min 0,000 mm 0,0 UV-I 35 W/m 4,5 C 6,5 C 1,6 km/h (1 Bft) 98,08 %
22.09.2019 07:08 6,4 C 13,9 C 4,4 C 88 % 1013,5 hPa 0,0 l/m 1,5 km/h (1 Bft) O 86 2 min 0,000 mm 0,0 UV-I 39 W/m 4,6 C 6,4 C 3,2 km/h (1 Bft) 95,74 %
22.09.2019 07:10 6,3 C 13,9 C 4,4 C 88 % 1013,5 hPa 0,0 l/m 1,2 km/h (1 Bft) O 86 2 min 0,000 mm 0,0 UV-I 43 W/m 4,5 C 6,3 C 1,6 km/h (1 Bft) 97,37 %
22.09.2019 07:12 6,2 C 13,9 C 3,9 C 88 % 1013,5 hPa 0,0 l/m 1,1 km/h (1 Bft) O 86 2 min 0,000 mm 0,0 UV-I 46 W/m 4,4 C 6,2 C 3,2 km/h (1 Bft) 100,00 %
22.09.2019 07:14 6,2 C 13,9 C 3,9 C 88 % 1013,4 hPa 0,0 l/m 1,0 km/h (0 Bft) O 86 2 min 0,000 mm 0,0 UV-I 50 W/m 4,4 C 6,2 C 1,6 km/h (1 Bft) 100,00 %
22.09.2019 07:16 6,3 C 13,9 C 3,9 C 89 % 1013,4 hPa 0,0 l/m 0,1 km/h (0 Bft) O 86 2 min 0,000 mm 0,0 UV-I 52 W/m 4,6 C 6,3 C 1,6 km/h (1 Bft) 95,74 %
22.09.2019 07:18 6,4 C 13,9 C 3,9 C 89 % 1013,4 hPa 0,0 l/m 0,0 km/h (0 Bft) O 86 2 min 0,000 mm 0,0 UV-I 56 W/m 4,7 C 6,4 C 0,0 km/h (0 Bft) 100,00 %
22.09.2019 07:20 6,5 C 13,9 C 4,4 C 89 % 1013,4 hPa 0,0 l/m 0,1 km/h (0 Bft) O 86 2 min 0,000 mm 0,0 UV-I 61 W/m 4,8 C 6,5 C 1,6 km/h (1 Bft) 97,87 %
22.09.2019 07:22 6,4 C 13,9 C 4,4 C 88 % 1013,5 hPa 0,0 l/m 0,8 km/h (0 Bft) O 86 2 min 0,000 mm 0,0 UV-I 65 W/m 4,6 C 6,4 C 1,6 km/h (1 Bft) 100,00 %
22.09.2019 07:24 6,3 C 13,9 C 5,0 C 88 % 1013,4 hPa 0,0 l/m 0,7 km/h (0 Bft) O-SO 111 2 min 0,000 mm 0,0 UV-I 69 W/m 4,5 C 6,3 C 1,6 km/h (1 Bft) 100,00 %
22.09.2019 07:26 6,3 C 13,9 C 4,4 C 89 % 1013,4 hPa 0,0 l/m 0,8 km/h (0 Bft) O-SO 111 2 min 0,000 mm 0,0 UV-I 74 W/m 4,6 C 6,3 C 3,2 km/h (1 Bft) 95,74 %
22.09.2019 07:28 6,3 C 13,9 C 4,4 C 89 % 1013,4 hPa 0,0 l/m 1,4 km/h (1 Bft) O-SO 111 2 min 0,000 mm 0,0 UV-I 77 W/m 4,6 C 6,3 C 3,2 km/h (1 Bft) 100,00 %
22.09.2019 07:30 6,4 C 13,9 C 4,4 C 89 % 1013,4 hPa 0,0 l/m 2,0 km/h (1 Bft) O-SO 111 2 min 0,000 mm 0,0 UV-I 82 W/m 4,7 C 6,4 C 3,2 km/h (1 Bft) 100,00 %
22.09.2019 07:32 6,6 C 13,9 C 4,4 C 89 % 1013,4 hPa 0,0 l/m 2,1 km/h (1 Bft) O-SO 111 2 min 0,000 mm 0,0 UV-I 84 W/m 4,9 C 6,6 C 3,2 km/h (1 Bft) 100,00 %
22.09.2019 07:34 6,7 C 13,9 C 4,4 C 89 % 1013,5 hPa 0,0 l/m 1,6 km/h (1 Bft) O-SO 111 2 min 0,000 mm 0,0 UV-I 80 W/m 5,0 C 6,7 C 3,2 km/h (1 Bft) 98,00 %
22.09.2019 07:36 6,8 C 13,9 C 4,4 C 88 % 1013,5 hPa 0,0 l/m 1,4 km/h (1 Bft) O-SO 111 2 min 0,000 mm 0,0 UV-I 93 W/m 5,0 C 6,8 C 3,2 km/h (1 Bft) 100,00 %
22.09.2019 07:38 6,8 C 13,9 C 5,0 C 88 % 1013,5 hPa 0,0 l/m 2,3 km/h (1 Bft) O-SO 111 2 min 0,000 mm 0,0 UV-I 98 W/m 5,0 C 6,8 C 3,2 km/h (1 Bft) 100,00 %
22.09.2019 07:40 6,9 C 13,9 C 5,0 C 88 % 1013,5 hPa 0,0 l/m 2,4 km/h (1 Bft) O-SO 110 2 min 0,000 mm 0,0 UV-I 92 W/m 5,1 C 6,9 C 4,8 km/h (1 Bft) 100,00 %
22.09.2019 07:42 6,9 C 13,9 C 5,0 C 88 % 1013,5 hPa 0,0 l/m 1,8 km/h (1 Bft) O-SO 110 2 min 0,000 mm 0,0 UV-I 80 W/m 5,1 C 6,9 C 3,2 km/h (1 Bft) 98,00 %
22.09.2019 07:44 7,0 C 13,9 C 5,0 C 89 % 1013,6 hPa 0,0 l/m 0,3 km/h (0 Bft) O-SO 110 2 min 0,000 mm 0,0 UV-I 81 W/m 5,3 C 7,0 C 1,6 km/h (1 Bft) 97,87 %
22.09.2019 07:46 7,2 C 13,9 C 5,6 C 88 % 1013,5 hPa 0,0 l/m 0,9 km/h (0 Bft) O-SO 110 2 min 0,000 mm 0,0 UV-I 94 W/m 5,3 C 7,2 C 3,2 km/h (1 Bft) 97,87 %
22.09.2019 07:49 7,4 C 13,9 C 6,1 C 88 % 1013,5 hPa 0,0 l/m 2,2 km/h (1 Bft) O-SO 110 3 min 0,000 mm 0,0 UV-I 128 W/m 5,5 C 7,4 C 3,2 km/h (1 Bft) 100,00 %
22.09.2019 07:50 7,4 C 13,9 C 6,1 C 88 % 1013,5 hPa 0,0 l/m 0,8 km/h (0 Bft) O-SO 110 1 min 0,000 mm 0,0 UV-I 136 W/m 5,5 C 7,4 C 1,6 km/h (1 Bft) 95,83 %
22.09.2019 07:52 7,6 C 13,9 C 6,7 C 87 % 1013,5 hPa 0,0 l/m 1,5 km/h (1 Bft) O-SO 110 2 min 0,000 mm 0,0 UV-I 143 W/m 5,6 C 7,6 C 3,2 km/h (1 Bft) 97,37 %
22.09.2019 07:54 7,8 C 13,9 C 6,7 C 87 % 1013,5 hPa 0,0 l/m 2,0 km/h (1 Bft) O-SO 110 2 min 0,000 mm 0,0 UV-I 115 W/m 5,8 C 7,8 C 3,2 km/h (1 Bft) 97,87 %
22.09.2019 07:56 7,9 C 13,9 C 7,2 C 86 % 1013,5 hPa 0,0 l/m 2,8 km/h (1 Bft) O-SO 110 2 min 0,000 mm 0,0 UV-I 115 W/m 5,7 C 7,9 C 4,8 km/h (1 Bft) 97,87 %
22.09.2019 07:58 8,1 C 13,9 C 7,2 C 86 % 1013,5 hPa 0,0 l/m 1,6 km/h (1 Bft) O-SO 110 2 min 0,000 mm 0,0 UV-I 156 W/m 5,9 C 8,1 C 3,2 km/h (1 Bft) 97,87 %
22.09.2019 08:00 8,3 C 13,9 C 7,2 C 86 % 1013,6 hPa 0,0 l/m 0,6 km/h (0 Bft) O-SO 110 2 min 0,026 mm 0,0 UV-I 160 W/m 6,1 C 8,3 C 3,2 km/h (1 Bft) 95,74 %
22.09.2019 08:02 8,4 C 13,9 C 7,8 C 85 % 1013,7 hPa 0,0 l/m 3,8 km/h (1 Bft) O-SO 110 2 min 0,000 mm 0,0 UV-I 169 W/m 6,0 C 8,4 C 6,4 km/h (2 Bft) 95,74 %
22.09.2019 08:04 8,6 C 13,9 C 7,8 C 85 % 1013,7 hPa 0,0 l/m 3,5 km/h (1 Bft) O-SO 106 2 min 0,000 mm 0,0 UV-I 146 W/m 6,2 C 8,6 C 4,8 km/h (1 Bft) 93,62 %
22.09.2019 08:06 8,6 C 13,9 C 7,8 C 83 % 1013,7 hPa 0,0 l/m 4,4 km/h (1 Bft) O 84 2 min 0,000 mm 0,0 UV-I 115 W/m 5,9 C 8,6 C 6,4 km/h (2 Bft) 95,74 %
22.09.2019 08:08 8,7 C 13,9 C 8,3 C 83 % 1013,7 hPa 0,0 l/m 3,4 km/h (1 Bft) O 80 2 min 0,000 mm 0,0 UV-I 139 W/m 6,0 C 8,7 C 4,8 km/h (1 Bft) 94,00 %
22.09.2019 08:10 8,8 C 13,9 C 8,3 C 83 % 1013,7 hPa 0,0 l/m 4,6 km/h (1 Bft) O-NO 57 0 min 0,000 mm 0,0 UV-I 113 W/m 6,1 C 8,8 C 8,0 km/h (2 Bft) 95,74 %
22.09.2019 08:12 8,8 C 13,9 C 8,3 C 83 % 1013,7 hPa 0,0 l/m 5,9 km/h (2 Bft) O-NO 63 2 min 0,000 mm 0,0 UV-I 138 W/m 6,1 C 8,8 C 8,0 km/h (2 Bft) 94,00 %
22.09.2019 08:14 8,9 C 13,9 C 8,3 C 83 % 1013,6 hPa 0,0 l/m 4,9 km/h (1 Bft) O-NO 74 2 min 0,000 mm 0,0 UV-I 163 W/m 6,2 C 8,9 C 6,4 km/h (2 Bft) 95,83 %
22.09.2019 08:16 9,0 C 13,9 C 8,9 C 83 % 1013,7 hPa 0,0 l/m 7,1 km/h (2 Bft) O-NO 61 2 min 0,000 mm 0,0 UV-I 189 W/m 6,3 C 8,5 C 9,7 km/h (2 Bft) 95,16 %
22.09.2019 08:18 9,1 C 13,9 C 8,9 C 83 % 1013,6 hPa 0,0 l/m 6,2 km/h (2 Bft) O-NO 59 2 min 0,000 mm 0,0 UV-I 193 W/m 6,4 C 9,1 C 9,7 km/h (2 Bft) 88,00 %
22.09.2019 08:20 9,3 C 13,9 C 9,4 C 82 % 1013,6 hPa 0,0 l/m 5,5 km/h (1 Bft) O-NO 70 2 min 0,000 mm 0,0 UV-I 226 W/m 6,4 C 9,3 C 9,7 km/h (2 Bft) 93,62 %
22.09.2019 08:22 9,4 C 13,9 C 9,4 C 81 % 1013,6 hPa 0,0 l/m 5,7 km/h (1 Bft) O-NO 75 2 min 0,000 mm 0,0 UV-I 234 W/m 6,3 C 9,4 C 9,7 km/h (2 Bft) 94,00 %
22.09.2019 08:24 9,6 C 13,9 C 9,4 C 80 % 1013,6 hPa 0,0 l/m 6,0 km/h (2 Bft) O-NO 69 2 min 0,000 mm 0,0 UV-I 164 W/m 6,3 C 9,6 C 11,3 km/h (2 Bft) 93,62 %
22.09.2019 08:26 9,6 C 13,9 C 9,4 C 80 % 1013,6 hPa 0,0 l/m 7,8 km/h (2 Bft) NO 49 2 min 0,000 mm 0,0 UV-I 214 W/m 6,3 C 8,6 C 12,9 km/h (3 Bft) 92,11 %
22.09.2019 08:28 9,8 C 13,9 C 10,0 C 80 % 1013,6 hPa 0,0 l/m 10,0 km/h (2 Bft) O 84 2 min 0,000 mm 0,0 UV-I 252 W/m 6,5 C 7,4 C 16,1 km/h (3 Bft) 93,62 %
22.09.2019 08:30 9,8 C 13,9 C 10,0 C 79 % 1013,5 hPa 0,0 l/m 8,6 km/h (2 Bft) NO 54 2 min 0,000 mm 0,0 UV-I 250 W/m 6,3 C 8,2 C 12,9 km/h (3 Bft) 97,87 %
22.09.2019 08:32 9,9 C 13,9 C 10,0 C 79 % 1013,6 hPa 0,0 l/m 10,0 km/h (2 Bft) O-NO 64 2 min 0,000 mm 0,0 UV-I 242 W/m 6,4 C 7,5 C 14,5 km/h (3 Bft) 98,00 %
22.09.2019 08:34 10,1 C 13,9 C 10,0 C 78 % 1013,5 hPa 0,0 l/m 9,7 km/h (2 Bft) O-NO 62 2 min 0,000 mm 0,1 UV-I 236 W/m 6,4 C 7,9 C 14,5 km/h (3 Bft) 95,74 %
22.09.2019 08:36 10,1 C 13,9 C 10,0 C 78 % 1013,6 hPa 0,0 l/m 11,5 km/h (2 Bft) O-NO 78 2 min 0,000 mm 0,5 UV-I 235 W/m 6,4 C 6,9 C 16,1 km/h (3 Bft) 95,74 %
22.09.2019 08:38 10,1 C 13,9 C 10,0 C 78 % 1013,6 hPa 0,0 l/m 9,9 km/h (2 Bft) O-NO 63 2 min 0,000 mm 0,5 UV-I 248 W/m 6,4 C 7,8 C 16,1 km/h (3 Bft) 93,62 %
22.09.2019 08:40 10,1 C 13,9 C 10,0 C 78 % 1013,6 hPa 0,0 l/m 10,3 km/h (2 Bft) O-NO 60 2 min 0,000 mm 0,5 UV-I 250 W/m 6,4 C 7,5 C 14,5 km/h (3 Bft) 94,00 %
22.09.2019 08:42 10,2 C 13,9 C 10,6 C 78 % 1013,6 hPa 0,0 l/m 10,5 km/h (2 Bft) O-NO 71 2 min 0,000 mm 0,5 UV-I 269 W/m 6,5 C 7,5 C 17,7 km/h (3 Bft) 95,74 %
22.09.2019 08:44 10,2 C 13,9 C 10,6 C 77 % 1013,6 hPa 0,0 l/m 11,7 km/h (2 Bft) O 96 2 min 0,000 mm 0,5 UV-I 263 W/m 6,4 C 6,9 C 16,1 km/h (3 Bft) 96,00 %
22.09.2019 08:46 10,2 C 13,9 C 10,6 C 78 % 1013,7 hPa 0,0 l/m 8,6 km/h (2 Bft) O-NO 74 2 min 0,000 mm 0,5 UV-I 267 W/m 6,5 C 8,7 C 16,1 km/h (3 Bft) 95,74 %
22.09.2019 08:48 10,2 C 13,9 C 10,6 C 77 % 1013,8 hPa 0,0 l/m 11,9 km/h (2 Bft) O-NO 69 2 min 0,000 mm 0,6 UV-I 259 W/m 6,4 C 6,8 C 17,7 km/h (3 Bft) 97,87 %
22.09.2019 08:50 10,3 C 13,9 C 10,6 C 77 % 1013,8 hPa 0,0 l/m 12,9 km/h (3 Bft) O 90 2 min 0,000 mm 0,6 UV-I 260 W/m 6,4 C 6,4 C 16,1 km/h (3 Bft) 94,29 %
22.09.2019 08:52 10,3 C 13,9 C 10,6 C 77 % 1013,7 hPa 0,0 l/m 9,6 km/h (2 Bft) O-SO 103 2 min 0,000 mm 0,6 UV-I 284 W/m 6,4 C 8,2 C 16,1 km/h (3 Bft) 97,92 %
22.09.2019 08:54 10,4 C 13,9 C 10,6 C 77 % 1013,7 hPa 0,0 l/m 9,7 km/h (2 Bft) O 79 2 min 0,000 mm 0,6 UV-I 298 W/m 6,5 C 8,2 C 14,5 km/h (3 Bft) 97,87 %
22.09.2019 08:56 10,4 C 13,9 C 10,6 C 77 % 1013,7 hPa 0,0 l/m 11,8 km/h (2 Bft) O-NO 69 2 min 0,000 mm 0,6 UV-I 258 W/m 6,5 C 7,1 C 17,7 km/h (3 Bft) 97,87 %
22.09.2019 08:58 10,5 C 13,9 C 10,6 C 76 % 1013,7 hPa 0,0 l/m 12,1 km/h (2 Bft) O 82 2 min 0,000 mm 0,7 UV-I 267 W/m 6,5 C 7,0 C 16,1 km/h (3 Bft) 97,87 %
22.09.2019 09:00 10,6 C 13,9 C 10,6 C 76 % 1013,7 hPa 0,0 l/m 10,1 km/h (2 Bft) O-NO 75 2 min 0,127 mm 0,7 UV-I 318 W/m 6,5 C 8,2 C 14,5 km/h (3 Bft) 96,00 %
22.09.2019 09:02 10,6 C 13,9 C 11,1 C 76 % 1013,8 hPa 0,0 l/m 8,3 km/h (2 Bft) O 88 2 min 0,000 mm 0,7 UV-I 329 W/m 6,5 C 9,3 C 12,9 km/h (3 Bft) 97,87 %
22.09.2019 09:04 10,7 C 13,9 C 11,1 C 76 % 1013,9 hPa 0,0 l/m 11,1 km/h (2 Bft) O-NO 64 2 min 0,000 mm 0,7 UV-I 320 W/m 6,6 C 7,8 C 16,1 km/h (3 Bft) 95,74 %
22.09.2019 09:06 10,8 C 13,9 C 11,1 C 76 % 1013,9 hPa 0,0 l/m 6,7 km/h (2 Bft) NO 46 2 min 0,000 mm 0,7 UV-I 306 W/m 6,7 C 10,6 C 11,3 km/h (2 Bft) 97,87 %
22.09.2019 09:08 10,9 C 13,9 C 11,1 C 76 % 1013,9 hPa 0,0 l/m 8,0 km/h (2 Bft) O 79 2 min 0,000 mm 0,8 UV-I 343 W/m 6,8 C 9,8 C 11,3 km/h (2 Bft) 97,87 %
22.09.2019 09:10 11,1 C 13,9 C 11,1 C 76 % 1013,9 hPa 0,0 l/m 8,0 km/h (2 Bft) O-SO 117 2 min 0,000 mm 0,8 UV-I 357 W/m 7,0 C 10,0 C 11,3 km/h (2 Bft) 95,74 %
22.09.2019 09:12 11,2 C 13,9 C 11,1 C 75 % 1013,9 hPa 0,0 l/m 9,5 km/h (2 Bft) O 84 2 min 0,000 mm 0,8 UV-I 359 W/m 6,9 C 9,2 C 14,5 km/h (3 Bft) 98,00 %
22.09.2019 09:14 11,4 C 13,9 C 11,7 C 75 % 1013,9 hPa 0,0 l/m 7,2 km/h (2 Bft) O 81 2 min 0,000 mm 0,9 UV-I 368 W/m 7,1 C 10,9 C 11,3 km/h (2 Bft) 98,00 %
22.09.2019 09:16 11,6 C 13,9 C 11,7 C 74 % 1013,9 hPa 0,0 l/m 9,7 km/h (2 Bft) O 90 2 min 0,000 mm 0,9 UV-I 375 W/m 7,1 C 9,5 C 14,5 km/h (3 Bft) 92,11 %
22.09.2019 09:18 11,7 C 13,9 C 11,7 C 73 % 1013,9 hPa 0,0 l/m 9,7 km/h (2 Bft) O-NO 68 2 min 0,000 mm 0,9 UV-I 379 W/m 7,0 C 9,6 C 14,5 km/h (3 Bft) 93,62 %
22.09.2019 09:20 11,7 C 13,9 C 11,7 C 73 % 1013,9 hPa 0,0 l/m 8,0 km/h (2 Bft) O-NO 65 2 min 0,000 mm 1,0 UV-I 377 W/m 7,0 C 10,6 C 12,9 km/h (3 Bft) 96,00 %
22.09.2019 09:22 11,7 C 13,9 C 11,7 C 73 % 1013,9 hPa 0,0 l/m 8,6 km/h (2 Bft) O 80 2 min 0,000 mm 1,0 UV-I 385 W/m 7,0 C 10,3 C 16,1 km/h (3 Bft) 97,87 %
22.09.2019 09:24 11,8 C 13,9 C 11,7 C 74 % 1013,9 hPa 0,0 l/m 8,5 km/h (2 Bft) O 92 2 min 0,000 mm 1,0 UV-I 385 W/m 7,3 C 10,4 C 14,5 km/h (3 Bft) 96,00 %
22.09.2019 09:26 11,8 C 13,9 C 11,7 C 73 % 1013,9 hPa 0,0 l/m 10,3 km/h (2 Bft) O 100 2 min 0,000 mm 1,0 UV-I 316 W/m 7,1 C 9,4 C 14,5 km/h (3 Bft) 97,37 %
22.09.2019 09:28 11,8 C 13,9 C 11,7 C 73 % 1013,9 hPa 0,0 l/m 11,1 km/h (2 Bft) O 100 2 min 0,000 mm 1,0 UV-I 344 W/m 7,1 C 9,0 C 16,1 km/h (3 Bft) 98,11 %
22.09.2019 09:30 11,8 C 13,9 C 11,7 C 73 % 1013,9 hPa 0,0 l/m 9,0 km/h (2 Bft) O-NO 76 2 min 0,000 mm 1,0 UV-I 362 W/m 7,1 C 10,1 C 16,1 km/h (3 Bft) 97,87 %
22.09.2019 09:32 11,8 C 13,9 C 11,7 C 73 % 1013,8 hPa 0,0 l/m 11,0 km/h (2 Bft) O 84 2 min 0,000 mm 1,1 UV-I 405 W/m 7,1 C 9,1 C 17,7 km/h (3 Bft) 95,74 %
22.09.2019 09:34 11,9 C 13,9 C 12,2 C 72 % 1013,8 hPa 0,0 l/m 14,8 km/h (3 Bft) NO 55 2 min 0,000 mm 1,1 UV-I 413 W/m 7,0 C 7,5 C 22,5 km/h (4 Bft) 95,74 %
22.09.2019 09:36 11,9 C 13,9 C 12,2 C 72 % 1013,8 hPa 0,0 l/m 9,2 km/h (2 Bft) O 82 2 min 0,000 mm 1,1 UV-I 402 W/m 7,0 C 10,1 C 16,1 km/h (3 Bft) 97,87 %
22.09.2019 09:38 12,0 C 13,9 C 12,2 C 71 % 1013,8 hPa 0,0 l/m 13,0 km/h (3 Bft) O-NO 77 2 min 0,000 mm 1,2 UV-I 403 W/m 6,9 C 8,4 C 17,7 km/h (3 Bft) 100,00 %
22.09.2019 09:40 12,1 C 13,9 C 12,2 C 71 % 1013,7 hPa 0,0 l/m 12,7 km/h (3 Bft) O-NO 60 2 min 0,000 mm 1,2 UV-I 429 W/m 7,0 C 8,6 C 20,9 km/h (4 Bft) 95,83 %
22.09.2019 09:42 12,2 C 13,9 C 12,2 C 72 % 1013,7 hPa 0,0 l/m 14,7 km/h (3 Bft) O-NO 69 2 min 0,000 mm 1,2 UV-I 427 W/m 7,3 C 7,9 C 22,5 km/h (4 Bft) 95,74 %
22.09.2019 09:44 12,2 C 13,9 C 12,2 C 71 % 1013,7 hPa 0,0 l/m 13,7 km/h (3 Bft) O 84 2 min 0,000 mm 1,3 UV-I 425 W/m 7,1 C 8,3 C 17,7 km/h (3 Bft) 100,00 %
22.09.2019 09:46 12,2 C 13,9 C 12,2 C 71 % 1013,7 hPa 0,0 l/m 12,3 km/h (3 Bft) O-SO 107 2 min 0,000 mm 1,3 UV-I 446 W/m 7,1 C 8,9 C 17,7 km/h (3 Bft) 96,00 %
22.09.2019 09:48 12,3 C 13,9 C 12,8 C 71 % 1013,6 hPa 0,0 l/m 14,6 km/h (3 Bft) O 83 2 min 0,000 mm 1,3 UV-I 453 W/m 7,2 C 8,1 C 20,9 km/h (4 Bft) 97,87 %
22.09.2019 09:50 12,6 C 13,9 C 12,8 C 70 % 1013,5 hPa 0,0 l/m 14,3 km/h (3 Bft) O-NO 66 2 min 0,000 mm 1,3 UV-I 456 W/m 7,3 C 8,6 C 19,3 km/h (3 Bft) 98,00 %
22.09.2019 09:52 12,6 C 13,9 C 12,8 C 70 % 1013,5 hPa 0,0 l/m 16,0 km/h (3 Bft) O-NO 69 2 min 0,000 mm 1,4 UV-I 465 W/m 7,3 C 7,9 C 24,1 km/h (4 Bft) 97,87 %
22.09.2019 09:54 12,6 C 13,9 C 12,8 C 70 % 1013,5 hPa 0,0 l/m 15,0 km/h (3 Bft) O 87 2 min 0,000 mm 1,4 UV-I 456 W/m 7,3 C 8,3 C 19,3 km/h (3 Bft) 95,74 %
22.09.2019 09:56 12,7 C 13,9 C 12,8 C 70 % 1013,5 hPa 0,0 l/m 14,7 km/h (3 Bft) O-NO 71 2 min 0,000 mm 1,4 UV-I 435 W/m 7,4 C 8,5 C 19,3 km/h (3 Bft) 93,62 %
22.09.2019 09:58 12,7 C 13,9 C 13,3 C 70 % 1013,4 hPa 0,0 l/m 16,8 km/h (3 Bft) O-NO 78 2 min 0,000 mm 1,5 UV-I 492 W/m 7,4 C 7,8 C 24,1 km/h (4 Bft) 98,00 %
22.09.2019 10:00 12,8 C 13,9 C 13,3 C 69 % 1013,4 hPa 0,0 l/m 17,2 km/h (3 Bft) O 95 2 min 0,228 mm 1,5 UV-I 481 W/m 7,3 C 7,8 C 24,1 km/h (4 Bft) 93,62 %
22.09.2019 10:02 12,8 C 13,9 C 13,3 C 68 % 1013,4 hPa 0,0 l/m 16,5 km/h (3 Bft) O-NO 64 2 min 0,000 mm 1,5 UV-I 480 W/m 7,0 C 8,0 C 22,5 km/h (4 Bft) 93,62 %
22.09.2019 10:04 12,8 C 13,9 C 13,3 C 69 % 1013,4 hPa 0,0 l/m 15,5 km/h (3 Bft) O-SO 108 2 min 0,000 mm 1,4 UV-I 425 W/m 7,3 C 8,3 C 19,3 km/h (3 Bft) 97,14 %
22.09.2019 10:06 12,8 C 13,9 C 13,9 C 70 % 1013,5 hPa 0,0 l/m 13,8 km/h (3 Bft) O-SO 102 2 min 0,000 mm 1,5 UV-I 425 W/m 7,5 C 9,0 C 17,7 km/h (3 Bft) 94,00 %
22.09.2019 10:08 12,9 C 13,9 C 13,9 C 69 % 1013,5 hPa 0,0 l/m 13,0 km/h (3 Bft) O-SO 110 2 min 0,000 mm 1,5 UV-I 449 W/m 7,4 C 9,4 C 19,3 km/h (3 Bft) 100,00 %
22.09.2019 10:10 13,0 C 13,9 C 14,4 C 69 % 1013,4 hPa 0,0 l/m 11,6 km/h (2 Bft) O 80 2 min 0,000 mm 1,6 UV-I 475 W/m 7,4 C 10,1 C 16,1 km/h (3 Bft) 100,00 %
22.09.2019 10:12 13,1 C 13,9 C 15,0 C 69 % 1013,5 hPa 0,0 l/m 14,1 km/h (3 Bft) O 97 2 min 0,000 mm 1,6 UV-I 503 W/m 7,5 C 9,2 C 20,9 km/h (4 Bft) 100,00 %
22.09.2019 10:14 13,2 C 13,9 C 15,6 C 68 % 1013,5 hPa 0,0 l/m 14,5 km/h (3 Bft) O-SO 117 2 min 0,000 mm 1,6 UV-I 486 W/m 7,4 C 9,2 C 17,7 km/h (3 Bft) 100,00 %
22.09.2019 10:16 13,2 C 13,9 C 15,6 C 68 % 1013,5 hPa 0,0 l/m 11,3 km/h (2 Bft) O-NO 74 2 min 0,000 mm 1,6 UV-I 399 W/m 7,4 C 10,5 C 14,5 km/h (3 Bft) 97,87 %
22.09.2019 10:18 13,2 C 13,9 C 16,1 C 68 % 1013,5 hPa 0,0 l/m 15,4 km/h (3 Bft) O-NO 68 2 min 0,000 mm 1,6 UV-I 412 W/m 7,4 C 8,9 C 22,5 km/h (4 Bft) 100,00 %
22.09.2019 10:20 13,1 C 13,9 C 16,1 C 68 % 1013,5 hPa 0,0 l/m 11,8 km/h (2 Bft) O 81 2 min 0,000 mm 1,6 UV-I 417 W/m 7,3 C 10,2 C 19,3 km/h (3 Bft) 100,00 %
22.09.2019 10:22 13,2 C 13,9 C 16,7 C 68 % 1013,4 hPa 0,0 l/m 8,6 km/h (2 Bft) O 84 2 min 0,000 mm 1,6 UV-I 421 W/m 7,4 C 11,9 C 12,9 km/h (3 Bft) 97,87 %
22.09.2019 10:24 13,2 C 13,9 C 17,2 C 68 % 1013,4 hPa 0,0 l/m 10,2 km/h (2 Bft) O-NO 74 2 min 0,000 mm 1,6 UV-I 409 W/m 7,4 C 11,0 C 14,5 km/h (3 Bft) 100,00 %
22.09.2019 10:26 13,2 C 13,9 C 17,8 C 67 % 1013,4 hPa 0,0 l/m 10,2 km/h (2 Bft) NO 55 2 min 0,000 mm 1,6 UV-I 387 W/m 7,2 C 11,0 C 17,7 km/h (3 Bft) 97,87 %
22.09.2019 10:28 13,2 C 13,9 C 18,3 C 68 % 1013,4 hPa 0,0 l/m 14,2 km/h (3 Bft) O-NO 59 2 min 0,000 mm 1,6 UV-I 378 W/m 7,4 C 9,3 C 19,3 km/h (3 Bft) 95,74 %
22.09.2019 10:30 13,1 C 13,9 C 18,3 C 68 % 1013,3 hPa 0,0 l/m 13,7 km/h (3 Bft) NO 51 2 min 0,000 mm 1,6 UV-I 363 W/m 7,3 C 9,4 C 17,7 km/h (3 Bft) 95,74 %
22.09.2019 10:32 13,1 C 13,9 C 18,3 C 68 % 1013,4 hPa 0,0 l/m 10,7 km/h (2 Bft) O-NO 67 2 min 0,000 mm 1,6 UV-I 349 W/m 7,3 C 10,7 C 12,9 km/h (3 Bft) 100,00 %
22.09.2019 10:34 13,1 C 13,9 C 18,3 C 68 % 1013,4 hPa 0,0 l/m 12,9 km/h (3 Bft) O 87 2 min 0,000 mm 1,6 UV-I 346 W/m 7,3 C 9,7 C 17,7 km/h (3 Bft) 98,00 %
22.09.2019 10:36 13,1 C 13,9 C 18,9 C 68 % 1013,3 hPa 0,0 l/m 11,4 km/h (2 Bft) O-NO 78 2 min 0,000 mm 1,7 UV-I 400 W/m 7,3 C 10,4 C 17,7 km/h (3 Bft) 95,74 %
22.09.2019 10:38 13,2 C 13,9 C 20,0 C 68 % 1013,3 hPa 0,0 l/m 10,0 km/h (2 Bft) O 80 2 min 0,000 mm 1,8 UV-I 432 W/m 7,4 C 11,1 C 16,1 km/h (3 Bft) 97,83 %
22.09.2019 10:40 13,3 C 13,9 C 21,1 C 70 % 1013,2 hPa 0,0 l/m 13,0 km/h (3 Bft) O-NO 71 2 min 0,000 mm 1,9 UV-I 475 W/m 7,9 C 9,9 C 19,3 km/h (3 Bft) 97,87 %
22.09.2019 10:42 13,6 C 13,9 C 21,7 C 69 % 1013,3 hPa 0,0 l/m 11,9 km/h (2 Bft) O-NO 75 2 min 0,000 mm 1,9 UV-I 463 W/m 8,0 C 10,7 C 17,7 km/h (3 Bft) 97,87 %
22.09.2019 10:44 13,6 C 13,9 C 22,2 C 67 % 1013,2 hPa 0,0 l/m 11,0 km/h (2 Bft) O-NO 72 2 min 0,000 mm 2,0 UV-I 506 W/m 7,6 C 11,1 C 14,5 km/h (3 Bft) 97,87 %
22.09.2019 10:46 13,7 C 13,9 C 23,3 C 70 % 1013,2 hPa 0,0 l/m 9,9 km/h (2 Bft) NO 45 2 min 0,000 mm 2,0 UV-I 540 W/m 8,3 C 11,7 C 16,1 km/h (3 Bft) 95,74 %
22.09.2019 10:48 13,9 C 13,9 C 23,9 C 69 % 1013,2 hPa 0,0 l/m 10,3 km/h (2 Bft) O-NO 61 2 min 0,000 mm 2,1 UV-I 554 W/m 8,3 C 11,8 C 14,5 km/h (3 Bft) 97,22 %
22.09.2019 10:50 13,9 C 13,9 C 24,4 C 67 % 1013,1 hPa 0,0 l/m 10,4 km/h (2 Bft) O-NO 57 2 min 0,000 mm 2,2 UV-I 611 W/m 7,9 C 11,7 C 12,9 km/h (3 Bft) 98,00 %
22.09.2019 10:52 14,1 C 13,9 C 25,0 C 69 % 1013,1 hPa 0,0 l/m 11,5 km/h (2 Bft) NO 53 2 min 0,000 mm 2,2 UV-I 614 W/m 8,5 C 11,4 C 17,7 km/h (3 Bft) 97,87 %
22.09.2019 10:54 14,3 C 13,9 C 25,0 C 68 % 1013,1 hPa 0,0 l/m 11,4 km/h (2 Bft) O-NO 74 2 min 0,000 mm 2,2 UV-I 585 W/m 8,5 C 11,7 C 16,1 km/h (3 Bft) 98,21 %
22.09.2019 10:56 14,3 C 13,9 C 25,6 C 66 % 1013,1 hPa 0,0 l/m 8,2 km/h (2 Bft) O 96 2 min 0,000 mm 2,2 UV-I 566 W/m 8,0 C 13,3 C 11,3 km/h (2 Bft) 97,87 %
22.09.2019 10:58 14,3 C 13,9 C 25,6 C 67 % 1013,2 hPa 0,0 l/m 7,7 km/h (2 Bft) O 93 2 min 0,000 mm 2,2 UV-I 557 W/m 8,3 C 13,5 C 16,1 km/h (3 Bft) 94,74 %
22.09.2019 11:00 14,4 C 13,9 C 26,1 C 67 % 1013,2 hPa 0,0 l/m 11,5 km/h (2 Bft) O-SO 121 2 min 0,280 mm 2,2 UV-I 532 W/m 8,4 C 11,8 C 16,1 km/h (3 Bft) 98,00 %
22.09.2019 11:02 14,5 C 13,9 C 26,1 C 65 % 1013,2 hPa 0,0 l/m 6,3 km/h (2 Bft) O-NO 76 2 min 0,000 mm 2,2 UV-I 536 W/m 8,0 C 14,5 C 11,3 km/h (2 Bft) 98,00 %
22.09.2019 11:04 14,5 C 13,9 C 25,6 C 66 % 1013,2 hPa 0,0 l/m 9,6 km/h (2 Bft) NO 55 2 min 0,000 mm 2,1 UV-I 472 W/m 8,2 C 12,8 C 16,1 km/h (3 Bft) 100,00 %
22.09.2019 11:06 14,4 C 13,9 C 25,0 C 65 % 1013,2 hPa 0,0 l/m 7,5 km/h (2 Bft) O 94 2 min 0,000 mm 2,1 UV-I 460 W/m 7,9 C 13,8 C 14,5 km/h (3 Bft) 100,00 %
22.09.2019 11:08 14,4 C 13,9 C 25,0 C 66 % 1013,2 hPa 0,0 l/m 8,3 km/h (2 Bft) NO 47 2 min 0,000 mm 2,2 UV-I 507 W/m 8,1 C 13,3 C 16,1 km/h (3 Bft) 97,87 %
22.09.2019 11:10 14,4 C 13,9 C 25,0 C 66 % 1013,2 hPa 0,0 l/m 10,2 km/h (2 Bft) O-NO 59 2 min 0,000 mm 2,3 UV-I 543 W/m 8,1 C 12,4 C 14,5 km/h (3 Bft) 100,00 %
22.09.2019 11:12 14,6 C 13,9 C 25,6 C 66 % 1013,1 hPa 0,0 l/m 8,4 km/h (2 Bft) O 96 2 min 0,000 mm 2,4 UV-I 575 W/m 8,3 C 13,5 C 14,5 km/h (3 Bft) 95,74 %
22.09.2019 11:14 14,5 C 13,9 C 26,1 C 66 % 1013,0 hPa 0,0 l/m 5,5 km/h (1 Bft) O-NO 67 2 min 0,000 mm 2,4 UV-I 563 W/m 8,2 C 14,5 C 9,7 km/h (2 Bft) 100,00 %
22.09.2019 11:16 14,7 C 13,9 C 25,0 C 68 % 1013,1 hPa 0,0 l/m 10,2 km/h (2 Bft) N-NO 20 2 min 0,000 mm 2,3 UV-I 535 W/m 8,9 C 12,7 C 16,1 km/h (3 Bft) 100,00 %
22.09.2019 11:18 14,7 C 13,9 C 25,0 C 65 % 1013,0 hPa 0,0 l/m 8,8 km/h (2 Bft) O-NO 71 2 min 0,000 mm 2,3 UV-I 497 W/m 8,2 C 13,4 C 14,5 km/h (3 Bft) 98,00 %
22.09.2019 11:20 14,7 C 13,9 C 24,4 C 66 % 1013,0 hPa 0,0 l/m 7,1 km/h (2 Bft) NO 56 2 min 0,000 mm 2,3 UV-I 507 W/m 8,4 C 14,3 C 11,3 km/h (2 Bft) 97,87 %
22.09.2019 11:22 14,8 C 13,9 C 25,0 C 65 % 1013,0 hPa 0,0 l/m 10,6 km/h (2 Bft) O-NO 59 2 min 0,000 mm 2,3 UV-I 492 W/m 8,3 C 12,6 C 14,5 km/h (3 Bft) 97,87 %
22.09.2019 11:24 14,8 C 13,9 C 25,0 C 66 % 1012,9 hPa 0,0 l/m 7,0 km/h (2 Bft) O 80 2 min 0,000 mm 2,4 UV-I 526 W/m 8,5 C 14,5 C 11,3 km/h (2 Bft) 95,74 %
22.09.2019 11:26 14,8 C 13,9 C 24,4 C 67 % 1012,9 hPa 0,0 l/m 7,8 km/h (2 Bft) NO 51 2 min 0,000 mm 2,3 UV-I 453 W/m 8,7 C 14,0 C 12,9 km/h (3 Bft) 96,00 %
22.09.2019 11:28 14,9 C 13,9 C 25,0 C 66 % 1012,9 hPa 0,0 l/m 9,4 km/h (2 Bft) O-NO 62 2 min 0,000 mm 2,4 UV-I 488 W/m 8,6 C 13,3 C 12,9 km/h (3 Bft) 95,74 %
22.09.2019 11:30 14,8 C 13,9 C 23,9 C 65 % 1012,9 hPa 0,0 l/m 4,8 km/h (1 Bft) NO 49 2 min 0,000 mm 2,3 UV-I 507 W/m 8,3 C 14,8 C 8,0 km/h (2 Bft) 96,00 %
22.09.2019 11:32 14,9 C 13,9 C 23,9 C 66 % 1012,9 hPa 0,0 l/m 7,1 km/h (2 Bft) O 94 2 min 0,000 mm 2,4 UV-I 499 W/m 8,6 C 14,5 C 12,9 km/h (3 Bft) 97,22 %
22.09.2019 11:34 15,0 C 13,9 C 24,4 C 67 % 1013,0 hPa 0,0 l/m 7,9 km/h (2 Bft) O 90 2 min 0,000 mm 2,5 UV-I 547 W/m 8,9 C 14,2 C 12,9 km/h (3 Bft) 98,00 %
22.09.2019 11:36 15,0 C 13,9 C 24,4 C 66 % 1012,9 hPa 0,0 l/m 9,0 km/h (2 Bft) O-NO 60 2 min 0,000 mm 2,5 UV-I 548 W/m 8,7 C 13,6 C 14,5 km/h (3 Bft) 97,87 %
22.09.2019 11:38 15,1 C 13,9 C 25,0 C 66 % 1012,9 hPa 0,0 l/m 6,3 km/h (2 Bft) O-NO 63 2 min 0,000 mm 2,6 UV-I 558 W/m 8,8 C 15,1 C 11,3 km/h (2 Bft) 98,00 %
22.09.2019 11:40 15,2 C 13,9 C 25,6 C 67 % 1012,9 hPa 0,0 l/m 7,8 km/h (2 Bft) O 86 2 min 0,000 mm 2,6 UV-I 551 W/m 9,1 C 14,4 C 12,9 km/h (3 Bft) 98,00 %
22.09.2019 11:42 15,2 C 13,9 C 25,6 C 65 % 1012,9 hPa 0,0 l/m 9,9 km/h (2 Bft) O-NO 70 2 min 0,000 mm 2,6 UV-I 556 W/m 8,7 C 13,4 C 14,5 km/h (3 Bft) 95,74 %
22.09.2019 11:44 15,2 C 13,9 C 26,1 C 65 % 1012,9 hPa 0,0 l/m 7,8 km/h (2 Bft) O-NO 70 2 min 0,000 mm 2,7 UV-I 576 W/m 8,7 C 14,4 C 12,9 km/h (3 Bft) 95,74 %
22.09.2019 11:46 15,2 C 13,9 C 26,7 C 66 % 1012,9 hPa 0,0 l/m 8,9 km/h (2 Bft) O 94 2 min 0,000 mm 2,8 UV-I 599 W/m 8,9 C 13,9 C 12,9 km/h (3 Bft) 100,00 %
22.09.2019 11:48 15,3 C 13,9 C 27,2 C 66 % 1012,8 hPa 0,0 l/m 6,2 km/h (2 Bft) O-NO 61 2 min 0,000 mm 2,8 UV-I 624 W/m 9,0 C 15,3 C 14,5 km/h (3 Bft) 100,00 %
22.09.2019 11:50 15,4 C 13,9 C 26,7 C 66 % 1012,8 hPa 0,0 l/m 10,2 km/h (2 Bft) NO 45 2 min 0,000 mm 2,8 UV-I 606 W/m 9,1 C 13,5 C 16,1 km/h (3 Bft) 97,87 %
22.09.2019 11:52 15,4 C 13,9 C 26,7 C 68 % 1012,8 hPa 0,0 l/m 6,7 km/h (2 Bft) NO 43 2 min 0,000 mm 2,8 UV-I 549 W/m 9,5 C 15,2 C 11,3 km/h (2 Bft) 100,00 %
22.09.2019 11:54 15,6 C 13,9 C 27,2 C 66 % 1012,9 hPa 0,0 l/m 7,0 km/h (2 Bft) O-NO 71 2 min 0,000 mm 2,7 UV-I 543 W/m 9,3 C 15,3 C 12,9 km/h (3 Bft) 100,00 %
22.09.2019 11:56 15,8 C 13,9 C 26,1 C 63 % 1012,9 hPa 0,0 l/m 8,8 km/h (2 Bft) SO 131 2 min 0,000 mm 2,5 UV-I 527 W/m 8,8 C 14,5 C 14,5 km/h (3 Bft) 98,00 %
22.09.2019 11:58 15,7 C 13,9 C 25,6 C 64 % 1012,9 hPa 0,0 l/m 7,7 km/h (2 Bft) O-NO 71 2 min 0,000 mm 2,4 UV-I 407 W/m 8,9 C 15,0 C 12,9 km/h (3 Bft) 95,74 %
22.09.2019 12:00 15,6 C 13,9 C 25,0 C 63 % 1012,9 hPa 0,0 l/m 5,5 km/h (1 Bft) O-NO 72 2 min 0,305 mm 2,4 UV-I 446 W/m 8,6 C 15,6 C 9,7 km/h (2 Bft) 95,74 %
22.09.2019 12:02 15,5 C 13,9 C 25,0 C 65 % 1012,9 hPa 0,0 l/m 8,1 km/h (2 Bft) O-SO 102 2 min 0,000 mm 2,4 UV-I 442 W/m 8,9 C 14,6 C 14,5 km/h (3 Bft) 95,74 %
22.09.2019 12:04 15,6 C 13,9 C 24,4 C 65 % 1012,8 hPa 0,0 l/m 11,4 km/h (2 Bft) O-SO 106 2 min 0,000 mm 2,4 UV-I 421 W/m 9,0 C 13,2 C 14,5 km/h (3 Bft) 97,87 %
22.09.2019 12:06 15,6 C 13,9 C 24,4 C 64 % 1012,9 hPa 0,0 l/m 6,5 km/h (2 Bft) O-SO 122 2 min 0,000 mm 2,3 UV-I 434 W/m 8,8 C 15,6 C 8,0 km/h (2 Bft) 95,74 %
22.09.2019 12:08 15,6 C 13,9 C 23,9 C 64 % 1012,9 hPa 0,0 l/m 5,1 km/h (1 Bft) O 101 2 min 0,000 mm 2,2 UV-I 382 W/m 8,8 C 15,6 C 8,0 km/h (2 Bft) 97,87 %
22.09.2019 12:10 15,6 C 13,9 C 23,9 C 65 % 1012,8 hPa 0,0 l/m 6,1 km/h (2 Bft) O-NO 71 2 min 0,000 mm 2,2 UV-I 368 W/m 9,0 C 15,6 C 11,3 km/h (2 Bft) 95,83 %
22.09.2019 12:12 15,6 C 13,9 C 23,3 C 63 % 1012,9 hPa 0,0 l/m 6,9 km/h (2 Bft) O 84 2 min 0,000 mm 2,3 UV-I 420 W/m 8,6 C 15,3 C 12,9 km/h (3 Bft) 95,74 %
22.09.2019 12:14 15,4 C 13,9 C 23,3 C 63 % 1012,9 hPa 0,0 l/m 1,4 km/h (1 Bft) NO 52 2 min 0,000 mm 2,4 UV-I 415 W/m 8,4 C 15,4 C 6,4 km/h (2 Bft) 97,87 %
22.09.2019 12:16 15,6 C 13,9 C 23,9 C 66 % 1012,8 hPa 0,0 l/m 6,0 km/h (2 Bft) O-NO 65 2 min 0,000 mm 2,5 UV-I 490 W/m 9,3 C 15,6 C 8,0 km/h (2 Bft) 97,37 %
22.09.2019 12:18 15,8 C 13,9 C 24,4 C 67 % 1012,7 hPa 0,0 l/m 7,8 km/h (2 Bft) NO 53 2 min 0,000 mm 2,7 UV-I 567 W/m 9,7 C 15,0 C 11,3 km/h (2 Bft) 97,87 %
22.09.2019 12:20 15,9 C 13,9 C 24,4 C 66 % 1012,7 hPa 0,0 l/m 9,2 km/h (2 Bft) O-NO 68 2 min 0,000 mm 2,5 UV-I 574 W/m 9,6 C 14,5 C 16,1 km/h (3 Bft) 95,74 %
22.09.2019 12:22 16,0 C 13,9 C 24,4 C 64 % 1012,6 hPa 0,0 l/m 8,0 km/h (2 Bft) NO 45 2 min 0,000 mm 2,6 UV-I 496 W/m 9,2 C 15,2 C 14,5 km/h (3 Bft) 97,87 %
22.09.2019 12:24 16,0 C 13,9 C 23,9 C 64 % 1012,6 hPa 0,0 l/m 10,1 km/h (2 Bft) O-NO 71 2 min 0,000 mm 2,5 UV-I 468 W/m 9,2 C 14,2 C 12,9 km/h (3 Bft) 97,87 %
22.09.2019 12:26 16,0 C 13,9 C 23,9 C 65 % 1012,6 hPa 0,0 l/m 6,9 km/h (2 Bft) NO 38 2 min 0,000 mm 2,6 UV-I 529 W/m 9,4 C 15,7 C 14,5 km/h (3 Bft) 100,00 %
22.09.2019 12:28 16,2 C 13,9 C 24,4 C 66 % 1012,6 hPa 0,0 l/m 10,7 km/h (2 Bft) NO 55 2 min 0,000 mm 2,7 UV-I 565 W/m 9,8 C 14,2 C 14,5 km/h (3 Bft) 100,00 %
22.09.2019 12:30 16,3 C 13,9 C 24,4 C 65 % 1012,6 hPa 0,0 l/m 9,1 km/h (2 Bft) NO 40 2 min 0,000 mm 2,7 UV-I 556 W/m 9,7 C 14,9 C 17,7 km/h (3 Bft) 100,00 %
22.09.2019 12:32 16,3 C 13,9 C 23,9 C 64 % 1012,6 hPa 0,0 l/m 9,7 km/h (2 Bft) O 82 2 min 0,000 mm 2,7 UV-I 484 W/m 9,5 C 14,7 C 16,1 km/h (3 Bft) 100,00 %
22.09.2019 12:34 16,3 C 13,9 C 24,4 C 63 % 1012,6 hPa 0,0 l/m 4,5 km/h (1 Bft) N-NO 32 2 min 0,000 mm 2,6 UV-I 484 W/m 9,2 C 16,3 C 9,7 km/h (2 Bft) 100,00 %
22.09.2019 12:36 16,5 C 13,9 C 24,4 C 62 % 1012,6 hPa 0,0 l/m 7,3 km/h (2 Bft) NO 43 2 min 0,000 mm 2,7 UV-I 506 W/m 9,2 C 16,0 C 11,3 km/h (2 Bft) 100,00 %
22.09.2019 12:38 16,5 C 13,9 C 24,4 C 60 % 1012,5 hPa 0,0 l/m 10,5 km/h (2 Bft) O-NO 67 2 min 0,000 mm 2,7 UV-I 504 W/m 8,7 C 14,6 C 12,9 km/h (3 Bft) 98,00 %
22.09.2019 12:40 16,5 C 13,9 C 25,0 C 61 % 1012,4 hPa 0,0 l/m 8,0 km/h (2 Bft) O 84 2 min 0,000 mm 2,7 UV-I 507 W/m 9,0 C 15,7 C 12,9 km/h (3 Bft) 97,87 %
22.09.2019 12:42 16,4 C 13,9 C 24,4 C 61 % 1012,4 hPa 0,0 l/m 9,9 km/h (2 Bft) O 82 2 min 0,000 mm 2,6 UV-I 468 W/m 8,9 C 14,7 C 14,5 km/h (3 Bft) 100,00 %
22.09.2019 12:44 16,4 C 13,9 C 23,9 C 61 % 1012,3 hPa 0,0 l/m 12,7 km/h (3 Bft) O-NO 57 2 min 0,000 mm 2,5 UV-I 448 W/m 8,9 C 13,6 C 17,7 km/h (3 Bft) 97,92 %
22.09.2019 12:46 16,4 C 13,9 C 23,9 C 62 % 1012,3 hPa 0,0 l/m 10,9 km/h (2 Bft) O 96 2 min 0,000 mm 2,7 UV-I 511 W/m 9,1 C 14,3 C 16,1 km/h (3 Bft) 100,00 %
22.09.2019 12:48 16,4 C 13,9 C 25,0 C 62 % 1012,2 hPa 0,0 l/m 7,7 km/h (2 Bft) O-NO 71 2 min 0,000 mm 2,8 UV-I 554 W/m 9,1 C 15,7 C 14,5 km/h (3 Bft) 97,14 %
22.09.2019 12:50 16,6 C 13,9 C 25,6 C 62 % 1012,2 hPa 0,0 l/m 9,2 km/h (2 Bft) O 84 2 min 0,000 mm 2,7 UV-I 552 W/m 9,3 C 15,2 C 14,5 km/h (3 Bft) 95,74 %
22.09.2019 12:52 16,7 C 13,9 C 25,0 C 60 % 1012,2 hPa 0,0 l/m 12,4 km/h (3 Bft) O 94 2 min 0,000 mm 2,6 UV-I 511 W/m 8,9 C 14,1 C 17,7 km/h (3 Bft) 96,30 %
22.09.2019 12:54 16,8 C 13,9 C 25,6 C 61 % 1012,2 hPa 0,0 l/m 11,4 km/h (2 Bft) NO 42 2 min 0,000 mm 2,6 UV-I 500 W/m 9,2 C 14,6 C 16,1 km/h (3 Bft) 100,00 %
22.09.2019 12:56 16,9 C 13,9 C 25,0 C 62 % 1012,2 hPa 0,0 l/m 12,1 km/h (2 Bft) NO 47 2 min 0,000 mm 2,5 UV-I 466 W/m 9,6 C 14,4 C 17,7 km/h (3 Bft) 100,00 %
22.09.2019 12:58 16,8 C 13,9 C 23,9 C 60 % 1012,2 hPa 0,0 l/m 11,1 km/h (2 Bft) NO 49 2 min 0,000 mm 2,4 UV-I 439 W/m 9,0 C 14,7 C 16,1 km/h (3 Bft) 94,29 %
22.09.2019 13:00 16,8 C 13,9 C 23,3 C 60 % 1012,2 hPa 0,0 l/m 10,1 km/h (2 Bft) O-NO 67 2 min 0,304 mm 2,3 UV-I 413 W/m 9,0 C 15,1 C 16,1 km/h (3 Bft) 98,04 %
22.09.2019 13:02 16,7 C 13,9 C 22,8 C 60 % 1012,3 hPa 0,0 l/m 10,7 km/h (2 Bft) O-SO 107 2 min 0,000 mm 2,2 UV-I 398 W/m 8,9 C 14,7 C 16,1 km/h (3 Bft) 97,87 %
22.09.2019 13:04 16,6 C 13,9 C 22,8 C 61 % 1012,3 hPa 0,0 l/m 5,2 km/h (1 Bft) O-NO 61 2 min 0,000 mm 2,2 UV-I 399 W/m 9,0 C 16,6 C 8,0 km/h (2 Bft) 98,00 %
22.09.2019 13:06 16,7 C 13,9 C 22,8 C 64 % 1012,2 hPa 0,0 l/m 8,0 km/h (2 Bft) NO 53 2 min 0,000 mm 2,2 UV-I 401 W/m 9,9 C 15,9 C 11,3 km/h (2 Bft) 97,87 %
22.09.2019 13:08 16,8 C 13,9 C 22,8 C 62 % 1012,3 hPa 0,0 l/m 9,3 km/h (2 Bft) NO 56 2 min 0,000 mm 2,2 UV-I 411 W/m 9,5 C 15,4 C 14,5 km/h (3 Bft) 97,87 %
22.09.2019 13:10 16,8 C 13,9 C 22,8 C 63 % 1012,3 hPa 0,0 l/m 9,4 km/h (2 Bft) O-NO 71 2 min 0,000 mm 2,3 UV-I 427 W/m 9,7 C 15,4 C 14,5 km/h (3 Bft) 100,00 %
22.09.2019 13:12 16,8 C 13,9 C 22,8 C 61 % 1012,2 hPa 0,0 l/m 10,5 km/h (2 Bft) O 89 2 min 0,000 mm 2,3 UV-I 441 W/m 9,2 C 14,9 C 14,5 km/h (3 Bft) 91,49 %
22.09.2019 13:14 16,8 C 13,9 C 22,8 C 61 % 1012,1 hPa 0,0 l/m 8,9 km/h (2 Bft) NO 48 2 min 0,000 mm 2,3 UV-I 444 W/m 9,2 C 15,6 C 14,5 km/h (3 Bft) 97,56 %
22.09.2019 13:16 16,8 C 13,9 C 23,3 C 62 % 1012,0 hPa 0,0 l/m 10,4 km/h (2 Bft) O 84 2 min 0,000 mm 2,3 UV-I 462 W/m 9,5 C 14,9 C 17,7 km/h (3 Bft) 97,87 %
22.09.2019 13:18 16,9 C 13,9 C 23,3 C 61 % 1012,0 hPa 0,0 l/m 7,1 km/h (2 Bft) O 82 2 min 0,000 mm 2,3 UV-I 450 W/m 9,3 C 16,5 C 14,5 km/h (3 Bft) 95,74 %
22.09.2019 13:20 16,9 C 13,9 C 23,3 C 60 % 1012,0 hPa 0,0 l/m 10,6 km/h (2 Bft) O-NO 66 2 min 0,000 mm 2,3 UV-I 451 W/m 9,1 C 15,0 C 12,9 km/h (3 Bft) 98,00 %
22.09.2019 13:22 16,9 C 13,9 C 23,3 C 61 % 1012,0 hPa 0,0 l/m 8,3 km/h (2 Bft) O-SO 106 2 min 0,000 mm 2,3 UV-I 444 W/m 9,3 C 16,0 C 11,3 km/h (2 Bft) 97,92 %
22.09.2019 13:24 16,9 C 13,9 C 23,3 C 60 % 1012,0 hPa 0,0 l/m 8,9 km/h (2 Bft) O 90 2 min 0,000 mm 2,2 UV-I 420 W/m 9,1 C 15,7 C 12,9 km/h (3 Bft) 93,62 %
22.09.2019 13:26 16,9 C 13,9 C 23,3 C 62 % 1012,0 hPa 0,0 l/m 8,9 km/h (2 Bft) O-NO 61 2 min 0,000 mm 2,2 UV-I 396 W/m 9,6 C 15,7 C 14,5 km/h (3 Bft) 94,74 %
22.09.2019 13:28 16,9 C 13,9 C 22,8 C 61 % 1012,0 hPa 0,0 l/m 9,0 km/h (2 Bft) O-NO 76 2 min 0,000 mm 2,1 UV-I 388 W/m 9,3 C 15,6 C 14,5 km/h (3 Bft) 97,87 %
22.09.2019 13:30 16,9 C 13,9 C 22,2 C 62 % 1011,9 hPa 0,0 l/m 10,7 km/h (2 Bft) NO 40 2 min 0,000 mm 2,1 UV-I 387 W/m 9,6 C 14,9 C 14,5 km/h (3 Bft) 95,74 %
22.09.2019 13:32 16,9 C 13,9 C 22,2 C 61 % 1011,9 hPa 0,0 l/m 9,3 km/h (2 Bft) O 88 2 min 0,000 mm 2,1 UV-I 377 W/m 9,3 C 15,5 C 14,5 km/h (3 Bft) 96,00 %
22.09.2019 13:34 16,9 C 13,9 C 22,2 C 60 % 1011,9 hPa 0,0 l/m 8,5 km/h (2 Bft) NO 56 2 min 0,000 mm 2,0 UV-I 375 W/m 9,1 C 15,9 C 12,9 km/h (3 Bft) 97,87 %
22.09.2019 13:36 16,9 C 13,9 C 22,2 C 61 % 1011,9 hPa 0,0 l/m 8,3 km/h (2 Bft) O 88 2 min 0,000 mm 2,0 UV-I 373 W/m 9,3 C 16,0 C 12,9 km/h (3 Bft) 97,87 %
22.09.2019 13:38 16,9 C 13,9 C 22,8 C 61 % 1011,9 hPa 0,0 l/m 8,3 km/h (2 Bft) O-NO 70 2 min 0,000 mm 2,0 UV-I 368 W/m 9,3 C 16,0 C 16,1 km/h (3 Bft) 95,74 %
22.09.2019 13:40 16,9 C 13,9 C 22,2 C 61 % 1011,9 hPa 0,0 l/m 11,4 km/h (2 Bft) O-NO 67 2 min 0,000 mm 2,0 UV-I 371 W/m 9,3 C 14,7 C 16,1 km/h (3 Bft) 97,87 %
22.09.2019 13:42 16,9 C 13,9 C 22,2 C 61 % 1011,9 hPa 0,0 l/m 10,8 km/h (2 Bft) O 82 2 min 0,000 mm 2,0 UV-I 382 W/m 9,3 C 14,9 C 16,1 km/h (3 Bft) 98,11 %
22.09.2019 13:44 16,9 C 13,9 C 22,2 C 60 % 1011,9 hPa 0,0 l/m 10,6 km/h (2 Bft) O 80 2 min 0,000 mm 2,0 UV-I 378 W/m 9,1 C 15,0 C 17,7 km/h (3 Bft) 95,74 %
22.09.2019 13:46 17,0 C 13,9 C 22,2 C 61 % 1011,8 hPa 0,0 l/m 10,3 km/h (2 Bft) O-NO 59 2 min 0,000 mm 2,0 UV-I 383 W/m 9,4 C 15,2 C 16,1 km/h (3 Bft) 97,14 %
22.09.2019 13:48 17,1 C 13,9 C 22,2 C 60 % 1011,9 hPa 0,0 l/m 9,6 km/h (2 Bft) O-SO 103 2 min 0,000 mm 2,0 UV-I 390 W/m 9,3 C 15,6 C 14,5 km/h (3 Bft) 94,00 %
22.09.2019 13:50 17,1 C 13,9 C 22,8 C 59 % 1011,9 hPa 0,0 l/m 9,1 km/h (2 Bft) O 92 2 min 0,000 mm 2,1 UV-I 406 W/m 9,0 C 15,8 C 14,5 km/h (3 Bft) 100,00 %
22.09.2019 13:52 17,1 C 13,9 C 22,8 C 59 % 1011,9 hPa 0,0 l/m 5,3 km/h (1 Bft) SO 125 2 min 0,000 mm 2,1 UV-I 422 W/m 9,0 C 17,1 C 11,3 km/h (2 Bft) 100,00 %
22.09.2019 13:54 17,1 C 13,9 C 23,3 C 61 % 1011,8 hPa 0,0 l/m 9,1 km/h (2 Bft) O 94 2 min 0,000 mm 2,3 UV-I 476 W/m 9,5 C 15,8 C 12,9 km/h (3 Bft) 100,00 %
22.09.2019 13:56 17,2 C 13,9 C 23,9 C 60 % 1011,9 hPa 0,0 l/m 8,9 km/h (2 Bft) O-SO 104 2 min 0,000 mm 2,4 UV-I 521 W/m 9,4 C 16,0 C 16,1 km/h (3 Bft) 100,00 %
22.09.2019 13:58 17,3 C 13,9 C 24,4 C 60 % 1011,9 hPa 0,0 l/m 11,3 km/h (2 Bft) O-SO 115 2 min 0,000 mm 2,5 UV-I 517 W/m 9,5 C 15,2 C 19,3 km/h (3 Bft) 98,04 %
22.09.2019 14:00 17,4 C 13,9 C 25,0 C 60 % 1011,9 hPa 0,0 l/m 10,7 km/h (2 Bft) O 94 2 min 0,280 mm 2,6 UV-I 541 W/m 9,6 C 15,5 C 14,5 km/h (3 Bft) 100,00 %
22.09.2019 14:02 17,6 C 13,9 C 26,1 C 60 % 1011,8 hPa 0,0 l/m 6,2 km/h (2 Bft) SO 125 2 min 0,000 mm 2,6 UV-I 553 W/m 9,7 C 17,6 C 11,3 km/h (2 Bft) 100,00 %
22.09.2019 14:04 17,6 C 13,9 C 26,1 C 59 % 1011,8 hPa 0,0 l/m 5,7 km/h (1 Bft) O 84 2 min 0,000 mm 2,6 UV-I 551 W/m 9,5 C 17,6 C 14,5 km/h (3 Bft) 97,87 %
22.09.2019 14:06 17,7 C 13,9 C 26,1 C 57 % 1011,8 hPa 0,0 l/m 10,2 km/h (2 Bft) O 97 2 min 0,000 mm 2,5 UV-I 505 W/m 9,1 C 16,0 C 16,1 km/h (3 Bft) 100,00 %
22.09.2019 14:08 17,6 C 13,9 C 25,0 C 58 % 1011,8 hPa 0,0 l/m 8,1 km/h (2 Bft) O-NO 71 2 min 0,000 mm 2,3 UV-I 432 W/m 9,2 C 16,8 C 12,9 km/h (3 Bft) 100,00 %
22.09.2019 14:10 17,6 C 13,9 C 24,4 C 59 % 1011,8 hPa 0,0 l/m 9,6 km/h (2 Bft) O-NO 62 2 min 0,000 mm 2,3 UV-I 412 W/m 9,5 C 16,1 C 14,5 km/h (3 Bft) 100,00 %
22.09.2019 14:12 17,6 C 13,9 C 23,3 C 59 % 1011,8 hPa 0,0 l/m 10,7 km/h (2 Bft) O 96 2 min 0,000 mm 2,2 UV-I 387 W/m 9,5 C 15,7 C 16,1 km/h (3 Bft) 100,00 %
22.09.2019 14:14 17,6 C 13,9 C 23,3 C 58 % 1011,8 hPa 0,0 l/m 9,9 km/h (2 Bft) O-NO 71 2 min 0,000 mm 2,1 UV-I 379 W/m 9,2 C 16,0 C 14,5 km/h (3 Bft) 100,00 %
22.09.2019 14:16 17,5 C 13,9 C 22,8 C 60 % 1011,7 hPa 0,0 l/m 6,1 km/h (2 Bft) O 90 2 min 0,000 mm 2,1 UV-I 383 W/m 9,6 C 17,5 C 12,9 km/h (3 Bft) 100,00 %
22.09.2019 14:18 17,5 C 13,9 C 22,8 C 60 % 1011,7 hPa 0,0 l/m 4,7 km/h (1 Bft) O-NO 78 2 min 0,000 mm 2,0 UV-I 350 W/m 9,6 C 17,5 C 8,0 km/h (2 Bft) 100,00 %
22.09.2019 14:20 17,5 C 13,9 C 22,2 C 59 % 1011,7 hPa 0,0 l/m 4,8 km/h (1 Bft) O-NO 63 0 min 0,000 mm 2,0 UV-I 326 W/m 9,4 C 17,5 C 12,9 km/h (3 Bft) 100,00 %
22.09.2019 14:22 17,6 C 13,9 C 22,2 C 59 % 1011,7 hPa 0,0 l/m 8,6 km/h (2 Bft) O 86 0 min 0,000 mm 2,0 UV-I 314 W/m 9,5 C 16,6 C 12,9 km/h (3 Bft) 100,00 %
22.09.2019 14:24 17,6 C 13,9 C 22,2 C 58 % 1011,7 hPa 0,0 l/m 6,8 km/h (2 Bft) SO 132 0 min 0,000 mm 1,9 UV-I 316 W/m 9,2 C 17,4 C 12,9 km/h (3 Bft) 100,00 %
22.09.2019 14:26 17,6 C 13,9 C 22,2 C 59 % 1011,6 hPa 0,0 l/m 7,1 km/h (2 Bft) O 101 0 min 0,000 mm 2,0 UV-I 326 W/m 9,5 C 17,3 C 11,3 km/h (2 Bft) 97,87 %
22.09.2019 14:28 17,6 C 13,9 C 22,8 C 60 % 1011,5 hPa 0,0 l/m 7,9 km/h (2 Bft) O 90 2 min 0,000 mm 2,0 UV-I 356 W/m 9,7 C 16,9 C 12,9 km/h (3 Bft) 97,87 %
22.09.2019 14:30 17,6 C 13,9 C 22,2 C 57 % 1011,5 hPa 0,0 l/m 8,1 km/h (2 Bft) O 86 0 min 0,000 mm 2,0 UV-I 335 W/m 9,0 C 16,8 C 12,9 km/h (3 Bft) 100,00 %
22.09.2019 14:32 17,6 C 13,9 C 22,2 C 57 % 1011,4 hPa 0,0 l/m 9,6 km/h (2 Bft) O-NO 74 2 min 0,000 mm 2,0 UV-I 338 W/m 9,0 C 16,1 C 14,5 km/h (3 Bft) 97,87 %
22.09.2019 14:34 17,7 C 13,9 C 22,2 C 57 % 1011,4 hPa 0,0 l/m 9,0 km/h (2 Bft) O 82 2 min 0,000 mm 2,0 UV-I 354 W/m 9,1 C 16,5 C 12,9 km/h (3 Bft) 100,00 %
22.09.2019 14:36 17,7 C 13,9 C 22,2 C 58 % 1011,4 hPa 0,0 l/m 8,2 km/h (2 Bft) O-NO 76 2 min 0,000 mm 1,9 UV-I 358 W/m 9,3 C 16,8 C 14,5 km/h (3 Bft) 100,00 %
22.09.2019 14:38 17,7 C 13,9 C 22,2 C 58 % 1011,4 hPa 0,0 l/m 7,6 km/h (2 Bft) O 85 2 min 0,000 mm 1,9 UV-I 348 W/m 9,3 C 17,1 C 12,9 km/h (3 Bft) 93,62 %
22.09.2019 14:40 17,8 C 13,9 C 22,2 C 57 % 1011,3 hPa 0,0 l/m 5,7 km/h (1 Bft) O-NO 57 2 min 0,000 mm 1,9 UV-I 348 W/m 9,2 C 17,8 C 9,7 km/h (2 Bft) 97,87 %
22.09.2019 14:42 17,8 C 13,9 C 22,2 C 60 % 1011,3 hPa 0,0 l/m 9,1 km/h (2 Bft) O-NO 62 2 min 0,000 mm 1,9 UV-I 352 W/m 9,9 C 16,6 C 14,5 km/h (3 Bft) 98,00 %
22.09.2019 14:44 17,8 C 13,9 C 22,2 C 57 % 1011,3 hPa 0,0 l/m 10,8 km/h (2 Bft) O 83 2 min 0,000 mm 1,9 UV-I 363 W/m 9,2 C 15,9 C 14,5 km/h (3 Bft) 94,00 %
22.09.2019 14:46 17,8 C 13,9 C 22,2 C 57 % 1011,3 hPa 0,0 l/m 8,7 km/h (2 Bft) O-NO 61 2 min 0,000 mm 1,9 UV-I 359 W/m 9,2 C 16,7 C 12,9 km/h (3 Bft) 97,37 %
22.09.2019 14:48 17,8 C 13,9 C 22,2 C 58 % 1011,3 hPa 0,0 l/m 9,3 km/h (2 Bft) O-NO 61 2 min 0,000 mm 1,8 UV-I 353 W/m 9,4 C 16,5 C 12,9 km/h (3 Bft) 93,62 %
22.09.2019 14:50 17,9 C 13,9 C 22,2 C 58 % 1011,3 hPa 0,0 l/m 11,2 km/h (2 Bft) O 92 2 min 0,000 mm 1,8 UV-I 348 W/m 9,5 C 15,9 C 14,5 km/h (3 Bft) 93,62 %
22.09.2019 14:52 17,9 C 13,9 C 22,2 C 56 % 1011,3 hPa 0,0 l/m 8,9 km/h (2 Bft) O-NO 71 2 min 0,000 mm 1,8 UV-I 345 W/m 9,0 C 16,8 C 12,9 km/h (3 Bft) 90,00 %
22.09.2019 14:54 17,9 C 13,9 C 22,2 C 57 % 1011,3 hPa 0,0 l/m 8,3 km/h (2 Bft) O-NO 76 2 min 0,000 mm 1,7 UV-I 338 W/m 9,3 C 17,0 C 12,9 km/h (3 Bft) 94,00 %
22.09.2019 14:56 17,9 C 13,9 C 22,2 C 57 % 1011,3 hPa 0,0 l/m 8,6 km/h (2 Bft) O 88 2 min 0,000 mm 1,7 UV-I 332 W/m 9,3 C 16,9 C 12,9 km/h (3 Bft) 91,49 %
22.09.2019 14:58 17,9 C 13,9 C 22,2 C 58 % 1011,3 hPa 0,0 l/m 10,7 km/h (2 Bft) O 100 0 min 0,000 mm 1,6 UV-I 317 W/m 9,5 C 16,1 C 14,5 km/h (3 Bft) 93,62 %
22.09.2019 15:00 17,9 C 13,9 C 22,2 C 57 % 1011,3 hPa 0,0 l/m 9,1 km/h (2 Bft) O 88 0 min 0,254 mm 1,6 UV-I 309 W/m 9,3 C 16,7 C 14,5 km/h (3 Bft) 93,62 %
22.09.2019 15:02 17,9 C 13,9 C 22,2 C 57 % 1011,3 hPa 0,0 l/m 8,4 km/h (2 Bft) O 96 0 min 0,000 mm 1,5 UV-I 305 W/m 9,3 C 17,0 C 12,9 km/h (3 Bft) 94,00 %
22.09.2019 15:04 17,9 C 13,9 C 22,2 C 59 % 1011,3 hPa 0,0 l/m 8,0 km/h (2 Bft) O 84 0 min 0,000 mm 1,5 UV-I 302 W/m 9,8 C 17,1 C 12,9 km/h (3 Bft) 93,62 %
22.09.2019 15:06 17,9 C 13,9 C 22,2 C 58 % 1011,2 hPa 0,0 l/m 8,3 km/h (2 Bft) O-NO 61 0 min 0,000 mm 1,5 UV-I 296 W/m 9,5 C 17,0 C 14,5 km/h (3 Bft) 92,11 %
22.09.2019 15:08 17,9 C 13,9 C 22,2 C 57 % 1011,2 hPa 0,0 l/m 6,1 km/h (2 Bft) O 88 0 min 0,000 mm 1,4 UV-I 289 W/m 9,3 C 17,9 C 9,7 km/h (2 Bft) 91,67 %
22.09.2019 15:10 17,9 C 13,9 C 22,2 C 57 % 1011,2 hPa 0,0 l/m 7,1 km/h (2 Bft) NO 55 0 min 0,000 mm 1,4 UV-I 280 W/m 9,3 C 17,6 C 11,3 km/h (2 Bft) 91,49 %
22.09.2019 15:12 17,9 C 13,9 C 21,7 C 59 % 1011,2 hPa 0,0 l/m 6,9 km/h (2 Bft) O-NO 62 0 min 0,000 mm 1,4 UV-I 275 W/m 9,8 C 17,7 C 9,7 km/h (2 Bft) 90,38 %
22.09.2019 15:14 17,9 C 13,9 C 21,7 C 60 % 1011,2 hPa 0,0 l/m 4,8 km/h (1 Bft) O-NO 73 0 min 0,000 mm 1,3 UV-I 272 W/m 10,0 C 17,9 C 6,4 km/h (2 Bft) 93,75 %
22.09.2019 15:16 17,9 C 13,9 C 21,7 C 59 % 1011,1 hPa 0,0 l/m 5,0 km/h (1 Bft) O 92 0 min 0,000 mm 1,3 UV-I 270 W/m 9,8 C 17,9 C 6,4 km/h (2 Bft) 93,62 %
22.09.2019 15:18 18,1 C 13,9 C 22,2 C 58 % 1011,2 hPa 0,0 l/m 7,3 km/h (2 Bft) O 82 0 min 0,000 mm 1,3 UV-I 267 W/m 9,7 C 17,7 C 12,9 km/h (3 Bft) 95,74 %
22.09.2019 15:20 18,1 C 13,9 C 21,7 C 59 % 1011,1 hPa 0,0 l/m 6,7 km/h (2 Bft) NO 53 0 min 0,000 mm 1,3 UV-I 261 W/m 10,0 C 18,0 C 9,7 km/h (2 Bft) 95,74 %
22.09.2019 15:22 18,2 C 13,9 C 21,7 C 60 % 1011,1 hPa 0,0 l/m 6,6 km/h (2 Bft) O-NO 71 0 min 0,000 mm 1,3 UV-I 254 W/m 10,3 C 18,1 C 11,3 km/h (2 Bft) 95,74 %
22.09.2019 15:24 18,1 C 13,9 C 21,7 C 58 % 1011,0 hPa 0,0 l/m 8,3 km/h (2 Bft) O-NO 71 0 min 0,000 mm 1,2 UV-I 246 W/m 9,7 C 17,2 C 12,9 km/h (3 Bft) 95,74 %
22.09.2019 15:26 18,1 C 13,9 C 21,1 C 59 % 1011,0 hPa 0,0 l/m 9,0 km/h (2 Bft) O-NO 74 0 min 0,000 mm 1,2 UV-I 239 W/m 10,0 C 16,9 C 14,5 km/h (3 Bft) 97,37 %
22.09.2019 15:28 18,0 C 13,9 C 21,1 C 57 % 1011,0 hPa 0,0 l/m 9,3 km/h (2 Bft) O 86 0 min 0,000 mm 1,1 UV-I 234 W/m 9,4 C 16,7 C 12,9 km/h (3 Bft) 97,87 %
22.09.2019 15:30 18,0 C 13,9 C 21,1 C 59 % 1011,0 hPa 0,0 l/m 8,2 km/h (2 Bft) O 97 0 min 0,000 mm 1,1 UV-I 232 W/m 9,9 C 17,2 C 14,5 km/h (3 Bft) 97,87 %
22.09.2019 15:32 18,1 C 13,9 C 21,1 C 60 % 1010,9 hPa 0,0 l/m 5,3 km/h (1 Bft) O-NO 65 0 min 0,000 mm 1,1 UV-I 232 W/m 10,2 C 18,1 C 9,7 km/h (2 Bft) 97,87 %
22.09.2019 15:34 18,1 C 13,9 C 21,1 C 60 % 1010,9 hPa 0,0 l/m 6,7 km/h (2 Bft) O-NO 66 0 min 0,000 mm 1,1 UV-I 231 W/m 10,2 C 18,0 C 11,3 km/h (2 Bft) 97,87 %
22.09.2019 15:36 18,0 C 13,9 C 21,1 C 61 % 1010,9 hPa 0,0 l/m 7,3 km/h (2 Bft) O-NO 67 0 min 0,000 mm 1,1 UV-I 229 W/m 10,4 C 17,6 C 9,7 km/h (2 Bft) 95,74 %
22.09.2019 15:38 17,9 C 13,9 C 21,1 C 61 % 1010,9 hPa 0,0 l/m 6,5 km/h (2 Bft) NO 46 0 min 0,000 mm 1,0 UV-I 224 W/m 10,3 C 17,9 C 11,3 km/h (2 Bft) 97,87 %
22.09.2019 15:40 17,9 C 13,9 C 20,6 C 59 % 1010,9 hPa 0,0 l/m 8,5 km/h (2 Bft) O 83 0 min 0,000 mm 1,0 UV-I 218 W/m 9,8 C 16,9 C 12,9 km/h (3 Bft) 97,87 %
22.09.2019 15:42 17,9 C 13,9 C 20,6 C 59 % 1010,9 hPa 0,0 l/m 8,4 km/h (2 Bft) O-SO 103 0 min 0,000 mm 1,0 UV-I 213 W/m 9,8 C 17,0 C 12,9 km/h (3 Bft) 94,00 %
22.09.2019 15:44 17,9 C 13,9 C 20,6 C 58 % 1010,9 hPa 0,0 l/m 8,6 km/h (2 Bft) O 82 0 min 0,000 mm 0,9 UV-I 206 W/m 9,5 C 16,9 C 12,9 km/h (3 Bft) 95,74 %
22.09.2019 15:46 18,0 C 13,9 C 20,6 C 58 % 1010,8 hPa 0,0 l/m 7,5 km/h (2 Bft) O-NO 72 0 min 0,000 mm 0,9 UV-I 199 W/m 9,6 C 17,5 C 11,3 km/h (2 Bft) 98,00 %
22.09.2019 15:48 18,0 C 13,9 C 20,0 C 59 % 1010,8 hPa 0,0 l/m 6,0 km/h (2 Bft) O 95 0 min 0,000 mm 0,9 UV-I 192 W/m 9,9 C 18,0 C 11,3 km/h (2 Bft) 97,87 %
22.09.2019 15:50 18,0 C 13,9 C 20,0 C 58 % 1010,8 hPa 0,0 l/m 7,5 km/h (2 Bft) O 98 0 min 0,000 mm 0,8 UV-I 179 W/m 9,6 C 17,5 C 12,9 km/h (3 Bft) 97,87 %
22.09.2019 15:52 17,9 C 13,9 C 20,0 C 59 % 1010,8 hPa 0,0 l/m 8,4 km/h (2 Bft) O 80 0 min 0,000 mm 0,8 UV-I 167 W/m 9,8 C 17,0 C 12,9 km/h (3 Bft) 95,74 %
22.09.2019 15:54 17,9 C 13,9 C 19,4 C 59 % 1010,8 hPa 0,0 l/m 8,0 km/h (2 Bft) O-SO 104 0 min 0,000 mm 0,7 UV-I 158 W/m 9,8 C 17,1 C 12,9 km/h (3 Bft) 95,83 %
22.09.2019 15:56 17,9 C 13,9 C 19,4 C 60 % 1010,8 hPa 0,0 l/m 5,2 km/h (1 Bft) O 92 0 min 0,000 mm 0,7 UV-I 150 W/m 10,0 C 17,9 C 9,7 km/h (2 Bft) 100,00 %
22.09.2019 15:58 17,9 C 13,9 C 19,4 C 61 % 1010,8 hPa 0,0 l/m 5,8 km/h (2 Bft) O-NO 69 0 min 0,000 mm 0,7 UV-I 145 W/m 10,3 C 17,9 C 9,7 km/h (2 Bft) 91,49 %
22.09.2019 16:00 17,9 C 13,9 C 19,4 C 61 % 1010,9 hPa 0,0 l/m 7,0 km/h (2 Bft) O-SO 110 0 min 0,000 mm 0,6 UV-I 144 W/m 10,3 C 17,6 C 11,3 km/h (2 Bft) 98,00 %
22.09.2019 16:02 17,9 C 13,9 C 19,4 C 59 % 1010,9 hPa 0,0 l/m 5,7 km/h (1 Bft) O-SO 109 0 min 0,178 mm 0,6 UV-I 145 W/m 9,8 C 17,9 C 9,7 km/h (2 Bft) 97,87 %
22.09.2019 16:04 17,9 C 13,9 C 19,4 C 59 % 1010,9 hPa 0,0 l/m 6,9 km/h (2 Bft) O 101 0 min 0,000 mm 0,6 UV-I 147 W/m 9,8 C 17,7 C 9,7 km/h (2 Bft) 95,74 %
22.09.2019 16:06 17,9 C 13,9 C 19,4 C 59 % 1010,9 hPa 0,0 l/m 4,3 km/h (1 Bft) O-SO 102 0 min 0,000 mm 0,6 UV-I 149 W/m 9,8 C 17,9 C 6,4 km/h (2 Bft) 100,00 %
22.09.2019 16:08 17,8 C 13,9 C 19,4 C 60 % 1010,9 hPa 0,0 l/m 5,5 km/h (1 Bft) O-SO 116 0 min 0,000 mm 0,6 UV-I 149 W/m 9,9 C 17,8 C 9,7 km/h (2 Bft) 100,00 %
22.09.2019 16:10 17,8 C 13,9 C 19,4 C 60 % 1010,8 hPa 0,0 l/m 5,0 km/h (1 Bft) O-SO 106 0 min 0,000 mm 0,6 UV-I 148 W/m 9,9 C 17,8 C 11,3 km/h (2 Bft) 97,87 %
22.09.2019 16:12 17,9 C 13,9 C 19,4 C 60 % 1010,8 hPa 0,0 l/m 7,8 km/h (2 Bft) O-NO 69 0 min 0,000 mm 0,6 UV-I 144 W/m 10,0 C 17,2 C 11,3 km/h (2 Bft) 95,74 %
22.09.2019 16:14 17,9 C 13,9 C 19,4 C 60 % 1010,8 hPa 0,0 l/m 6,2 km/h (2 Bft) O-NO 67 0 min 0,000 mm 0,6 UV-I 140 W/m 10,0 C 17,9 C 11,3 km/h (2 Bft) 100,00 %
22.09.2019 16:16 17,9 C 13,9 C 19,4 C 60 % 1010,8 hPa 0,0 l/m 6,7 km/h (2 Bft) O-NO 74 0 min 0,000 mm 0,5 UV-I 135 W/m 10,0 C 17,8 C 11,3 km/h (2 Bft) 97,87 %
22.09.2019 16:18 17,9 C 13,9 C 19,4 C 60 % 1010,8 hPa 0,0 l/m 6,1 km/h (2 Bft) O 82 0 min 0,000 mm 0,5 UV-I 133 W/m 10,0 C 17,9 C 9,7 km/h (2 Bft) 97,87 %
22.09.2019 16:20 17,9 C 13,9 C 19,4 C 60 % 1010,8 hPa 0,0 l/m 4,2 km/h (1 Bft) O-NO 76 0 min 0,000 mm 0,5 UV-I 131 W/m 10,0 C 17,9 C 8,0 km/h (2 Bft) 100,00 %
22.09.2019 16:22 17,9 C 13,9 C 19,4 C 60 % 1010,8 hPa 0,0 l/m 5,0 km/h (1 Bft) O-NO 67 0 min 0,000 mm 0,5 UV-I 129 W/m 10,0 C 17,9 C 8,0 km/h (2 Bft) 97,87 %
22.09.2019 16:24 17,9 C 13,9 C 19,4 C 61 % 1010,7 hPa 0,0 l/m 4,5 km/h (1 Bft) O-NO 59 0 min 0,000 mm 0,5 UV-I 128 W/m 10,3 C 17,9 C 8,0 km/h (2 Bft) 97,87 %
22.09.2019 16:26 17,9 C 13,9 C 19,4 C 60 % 1010,7 hPa 0,0 l/m 5,4 km/h (1 Bft) O 98 0 min 0,000 mm 0,5 UV-I 128 W/m 10,0 C 17,9 C 8,0 km/h (2 Bft) 97,92 %
22.09.2019 16:28 17,9 C 13,9 C 18,9 C 61 % 1010,7 hPa 0,0 l/m 5,0 km/h (1 Bft) O 86 0 min 0,000 mm 0,5 UV-I 128 W/m 10,3 C 17,9 C 6,4 km/h (2 Bft) 97,87 %
22.09.2019 16:30 17,9 C 13,9 C 18,9 C 61 % 1010,7 hPa 0,0 l/m 3,9 km/h (1 Bft) O 86 0 min 0,000 mm 0,5 UV-I 128 W/m 10,3 C 17,9 C 6,4 km/h (2 Bft) 96,00 %
22.09.2019 16:32 17,8 C 13,9 C 18,9 C 61 % 1010,7 hPa 0,0 l/m 4,8 km/h (1 Bft) O-NO 78 0 min 0,000 mm 0,5 UV-I 130 W/m 10,2 C 17,8 C 8,0 km/h (2 Bft) 98,00 %
22.09.2019 16:34 17,8 C 13,9 C 19,4 C 62 % 1010,7 hPa 0,0 l/m 1,6 km/h (1 Bft) O-NO 78 0 min 0,000 mm 0,5 UV-I 133 W/m 10,4 C 17,8 C 3,2 km/h (1 Bft) 97,87 %
22.09.2019 16:36 17,9 C 13,9 C 19,4 C 61 % 1010,7 hPa 0,0 l/m 4,1 km/h (1 Bft) O 94 0 min 0,000 mm 0,5 UV-I 136 W/m 10,3 C 17,9 C 6,4 km/h (2 Bft) 97,14 %
22.09.2019 16:38 17,9 C 13,9 C 19,4 C 61 % 1010,7 hPa 0,0 l/m 3,0 km/h (1 Bft) O 94 0 min 0,000 mm 0,5 UV-I 142 W/m 10,3 C 17,9 C 4,8 km/h (1 Bft) 95,74 %
22.09.2019 16:40 18,0 C 13,9 C 19,4 C 62 % 1010,7 hPa 0,0 l/m 5,5 km/h (1 Bft) O-NO 78 0 min 0,000 mm 0,5 UV-I 146 W/m 10,6 C 18,0 C 6,4 km/h (2 Bft) 98,00 %
22.09.2019 16:42 18,0 C 13,9 C 19,4 C 60 % 1010,7 hPa 0,0 l/m 4,9 km/h (1 Bft) O 101 0 min 0,000 mm 0,5 UV-I 148 W/m 10,1 C 18,0 C 8,0 km/h (2 Bft) 94,00 %
22.09.2019 16:44 18,0 C 13,9 C 20,0 C 60 % 1010,6 hPa 0,0 l/m 3,9 km/h (1 Bft) O-SO 123 0 min 0,000 mm 0,5 UV-I 149 W/m 10,1 C 18,0 C 6,4 km/h (2 Bft) 93,62 %
22.09.2019 16:46 18,0 C 13,9 C 20,0 C 60 % 1010,6 hPa 0,0 l/m 5,0 km/h (1 Bft) O 100 0 min 0,000 mm 0,5 UV-I 148 W/m 10,1 C 18,0 C 6,4 km/h (2 Bft) 97,87 %
22.09.2019 16:48 18,1 C 13,9 C 20,0 C 61 % 1010,6 hPa 0,0 l/m 3,3 km/h (1 Bft) O 100 0 min 0,000 mm 0,5 UV-I 146 W/m 10,5 C 18,1 C 4,8 km/h (1 Bft) 97,87 %
22.09.2019 16:50 18,1 C 13,9 C 20,0 C 62 % 1010,7 hPa 0,0 l/m 4,7 km/h (1 Bft) O-NO 65 0 min 0,000 mm 0,5 UV-I 143 W/m 10,7 C 18,1 C 6,4 km/h (2 Bft) 97,87 %
22.09.2019 16:52 18,1 C 13,9 C 20,0 C 63 % 1010,7 hPa 0,0 l/m 3,5 km/h (1 Bft) O-NO 67 0 min 0,000 mm 0,5 UV-I 139 W/m 10,9 C 18,1 C 4,8 km/h (1 Bft) 97,56 %
22.09.2019 16:54 18,1 C 13,9 C 20,0 C 61 % 1010,7 hPa 0,0 l/m 3,7 km/h (1 Bft) O-NO 76 0 min 0,000 mm 0,3 UV-I 135 W/m 10,5 C 18,1 C 4,8 km/h (1 Bft) 97,87 %
22.09.2019 16:56 18,1 C 13,9 C 19,4 C 60 % 1010,7 hPa 0,0 l/m 4,2 km/h (1 Bft) O 90 0 min 0,000 mm 0,0 UV-I 132 W/m 10,2 C 18,1 C 6,4 km/h (2 Bft) 97,87 %
22.09.2019 16:58 18,1 C 13,9 C 19,4 C 61 % 1010,7 hPa 0,0 l/m 4,8 km/h (1 Bft) O 82 0 min 0,000 mm 0,0 UV-I 130 W/m 10,5 C 18,1 C 6,4 km/h (2 Bft) 97,87 %
22.09.2019 17:00 18,0 C 13,9 C 19,4 C 61 % 1010,7 hPa 0,0 l/m 3,5 km/h (1 Bft) O 82 0 min 0,000 mm 0,0 UV-I 130 W/m 10,4 C 18,0 C 4,8 km/h (1 Bft) 95,74 %
22.09.2019 17:02 18,0 C 13,9 C 19,4 C 64 % 1010,7 hPa 0,0 l/m 2,3 km/h (1 Bft) O 82 0 min 0,101 mm 0,0 UV-I 130 W/m 11,1 C 18,0 C 3,2 km/h (1 Bft) 96,00 %
22.09.2019 17:04 18,0 C 13,9 C 19,4 C 65 % 1010,7 hPa 0,0 l/m 2,5 km/h (1 Bft) O 82 0 min 0,000 mm 0,0 UV-I 130 W/m 11,3 C 18,0 C 4,8 km/h (1 Bft) 95,74 %
22.09.2019 17:06 17,9 C 13,9 C 19,4 C 64 % 1010,6 hPa 0,0 l/m 6,0 km/h (2 Bft) NO 49 0 min 0,000 mm 0,0 UV-I 128 W/m 11,0 C 17,9 C 8,0 km/h (2 Bft) 98,00 %
22.09.2019 17:08 17,9 C 13,9 C 18,9 C 63 % 1010,7 hPa 0,0 l/m 5,1 km/h (1 Bft) NO 40 0 min 0,000 mm 0,0 UV-I 127 W/m 10,8 C 17,9 C 8,0 km/h (2 Bft) 97,92 %
22.09.2019 17:10 17,9 C 13,9 C 18,9 C 64 % 1010,6 hPa 0,0 l/m 3,5 km/h (1 Bft) NO 40 0 min 0,000 mm 0,0 UV-I 122 W/m 11,0 C 17,9 C 4,8 km/h (1 Bft) 97,87 %
22.09.2019 17:12 17,8 C 13,9 C 18,9 C 66 % 1010,6 hPa 0,0 l/m 4,1 km/h (1 Bft) NO 40 0 min 0,000 mm 0,0 UV-I 116 W/m 11,4 C 17,8 C 6,4 km/h (2 Bft) 97,87 %
22.09.2019 17:14 17,7 C 13,9 C 18,9 C 67 % 1010,7 hPa 0,0 l/m 3,7 km/h (1 Bft) NO 38 0 min 0,000 mm 0,0 UV-I 111 W/m 11,5 C 17,7 C 4,8 km/h (1 Bft) 95,74 %
22.09.2019 17:16 17,7 C 13,9 C 18,9 C 67 % 1010,6 hPa 0,0 l/m 3,5 km/h (1 Bft) NO 38 0 min 0,000 mm 0,0 UV-I 105 W/m 11,5 C 17,7 C 4,8 km/h (1 Bft) 100,00 %
22.09.2019 17:18 17,6 C 13,9 C 18,3 C 67 % 1010,7 hPa 0,0 l/m 3,6 km/h (1 Bft) NO 38 0 min 0,000 mm 0,0 UV-I 101 W/m 11,4 C 17,6 C 4,8 km/h (1 Bft) 100,00 %
22.09.2019 17:20 17,6 C 13,9 C 18,3 C 67 % 1010,6 hPa 0,0 l/m 2,7 km/h (1 Bft) NO 38 0 min 0,000 mm 0,0 UV-I 99 W/m 11,4 C 17,6 C 4,8 km/h (1 Bft) 100,00 %
22.09.2019 17:22 17,6 C 13,9 C 18,3 C 65 % 1010,6 hPa 0,0 l/m 3,7 km/h (1 Bft) NO 38 0 min 0,000 mm 0,0 UV-I 95 W/m 10,9 C 17,6 C 4,8 km/h (1 Bft) 100,00 %
22.09.2019 17:24 17,5 C 13,9 C 18,3 C 66 % 1010,6 hPa 0,0 l/m 4,1 km/h (1 Bft) NO 38 0 min 0,000 mm 0,0 UV-I 92 W/m 11,1 C 17,5 C 6,4 km/h (2 Bft) 100,00 %
22.09.2019 17:26 17,4 C 13,9 C 18,3 C 67 % 1010,6 hPa 0,0 l/m 3,4 km/h (1 Bft) NO 38 0 min 0,000 mm 0,0 UV-I 90 W/m 11,2 C 17,4 C 4,8 km/h (1 Bft) 100,00 %
22.09.2019 17:28 17,4 C 13,9 C 17,8 C 67 % 1010,6 hPa 0,0 l/m 3,2 km/h (1 Bft) NO 38 0 min 0,000 mm 0,0 UV-I 88 W/m 11,2 C 17,4 C 4,8 km/h (1 Bft) 100,00 %
22.09.2019 17:30 17,4 C 13,9 C 17,8 C 67 % 1010,6 hPa 0,0 l/m 2,2 km/h (1 Bft) NO 38 0 min 0,000 mm 0,0 UV-I 86 W/m 11,2 C 17,4 C 3,2 km/h (1 Bft) 98,00 %
22.09.2019 17:32 17,4 C 13,9 C 17,8 C 68 % 1010,6 hPa 0,0 l/m 2,0 km/h (1 Bft) NO 38 0 min 0,000 mm 0,0 UV-I 86 W/m 11,4 C 17,4 C 3,2 km/h (1 Bft) 100,00 %
22.09.2019 17:34 17,4 C 13,9 C 17,8 C 67 % 1010,6 hPa 0,0 l/m 2,1 km/h (1 Bft) NO 38 0 min 0,000 mm 0,0 UV-I 86 W/m 11,2 C 17,4 C 3,2 km/h (1 Bft) 100,00 %
22.09.2019 17:36 17,4 C 13,9 C 17,8 C 68 % 1010,5 hPa 0,0 l/m 2,9 km/h (1 Bft) NO 38 0 min 0,000 mm 0,0 UV-I 85 W/m 11,4 C 17,4 C 3,2 km/h (1 Bft) 100,00 %
22.09.2019 17:38 17,4 C 13,9 C 17,8 C 67 % 1010,6 hPa 0,0 l/m 3,0 km/h (1 Bft) NO 40 0 min 0,000 mm 0,0 UV-I 84 W/m 11,2 C 17,4 C 4,8 km/h (1 Bft) 97,87 %
22.09.2019 17:40 17,5 C 13,9 C 17,8 C 65 % 1010,5 hPa 0,0 l/m 2,6 km/h (1 Bft) NO 40 0 min 0,000 mm 0,0 UV-I 83 W/m 10,8 C 17,5 C 3,2 km/h (1 Bft) 97,87 %
22.09.2019 17:42 17,4 C 13,9 C 17,8 C 66 % 1010,5 hPa 0,0 l/m 1,9 km/h (1 Bft) NO 40 0 min 0,000 mm 0,0 UV-I 81 W/m 11,0 C 17,4 C 3,2 km/h (1 Bft) 100,00 %
22.09.2019 17:44 17,5 C 13,9 C 17,8 C 66 % 1010,6 hPa 0,0 l/m 2,2 km/h (1 Bft) NO 40 0 min 0,000 mm 0,0 UV-I 78 W/m 11,1 C 17,5 C 3,2 km/h (1 Bft) 100,00 %
22.09.2019 17:46 17,4 C 13,9 C 17,8 C 67 % 1010,6 hPa 0,0 l/m 1,4 km/h (1 Bft) NO 40 0 min 0,000 mm 0,0 UV-I 77 W/m 11,2 C 17,4 C 1,6 km/h (1 Bft) 100,00 %
22.09.2019 17:48 17,4 C 13,9 C 17,8 C 67 % 1010,6 hPa 0,0 l/m 0,8 km/h (0 Bft) NO 40 0 min 0,000 mm 0,0 UV-I 76 W/m 11,2 C 17,4 C 1,6 km/h (1 Bft) 94,74 %
22.09.2019 17:50 17,4 C 13,9 C 17,8 C 68 % 1010,6 hPa 0,0 l/m 1,4 km/h (1 Bft) NO 40 0 min 0,000 mm 0,0 UV-I 75 W/m 11,4 C 17,4 C 1,6 km/h (1 Bft) 100,00 %
22.09.2019 17:52 17,4 C 13,9 C 17,8 C 68 % 1010,7 hPa 0,0 l/m 0,9 km/h (0 Bft) NO 40 0 min 0,000 mm 0,0 UV-I 73 W/m 11,4 C 17,4 C 1,6 km/h (1 Bft) 95,74 %
22.09.2019 17:54 17,4 C 13,9 C 17,8 C 66 % 1010,7 hPa 0,0 l/m 0,7 km/h (0 Bft) NO 40 0 min 0,000 mm 0,0 UV-I 72 W/m 11,0 C 17,4 C 1,6 km/h (1 Bft) 97,87 %
22.09.2019 17:56 17,4 C 13,9 C 17,8 C 67 % 1010,7 hPa 0,0 l/m 0,1 km/h (0 Bft) NO 40 0 min 0,000 mm 0,0 UV-I 71 W/m 11,2 C 17,4 C 1,6 km/h (1 Bft) 95,74 %
22.09.2019 17:58 17,4 C 13,9 C 17,8 C 66 % 1010,6 hPa 0,0 l/m 0,2 km/h (0 Bft) NO 40 0 min 0,000 mm 0,0 UV-I 69 W/m 11,0 C 17,4 C 1,6 km/h (1 Bft) 97,87 %
22.09.2019 18:00 17,4 C 13,9 C 17,8 C 66 % 1010,6 hPa 0,0 l/m 1,1 km/h (1 Bft) NO 40 0 min 0,000 mm 0,0 UV-I 67 W/m 11,0 C 17,4 C 1,6 km/h (1 Bft) 97,87 %
22.09.2019 18:02 17,4 C 13,9 C 17,8 C 66 % 1010,6 hPa 0,0 l/m 0,2 km/h (0 Bft) NO 40 0 min 0,076 mm 0,0 UV-I 66 W/m 11,0 C 17,4 C 1,6 km/h (1 Bft) 95,74 %
22.09.2019 18:04 17,4 C 13,9 C 17,8 C 64 % 1010,6 hPa 0,0 l/m 0,0 km/h (0 Bft) NO 40 0 min 0,000 mm 0,0 UV-I 63 W/m 10,5 C 17,4 C 0,0 km/h (0 Bft) 95,74 %
22.09.2019 18:06 17,5 C 13,9 C 17,8 C 64 % 1010,6 hPa 0,0 l/m 0,0 km/h (0 Bft) NO 40 0 min 0,000 mm 0,0 UV-I 61 W/m 10,6 C 17,5 C 0,0 km/h (0 Bft) 97,87 %
22.09.2019 18:08 17,5 C 13,9 C 17,8 C 65 % 1010,6 hPa 0,0 l/m 0,0 km/h (0 Bft) NO 40 0 min 0,000 mm 0,0 UV-I 56 W/m 10,8 C 17,5 C 0,0 km/h (0 Bft) 97,87 %
22.09.2019 18:10 17,5 C 13,9 C 17,8 C 66 % 1010,6 hPa 0,0 l/m 0,0 km/h (0 Bft) NO 40 0 min 0,000 mm 0,0 UV-I 52 W/m 11,1 C 17,5 C 0,0 km/h (0 Bft) 97,87 %
22.09.2019 18:12 17,5 C 13,9 C 17,8 C 65 % 1010,6 hPa 0,0 l/m 0,4 km/h (0 Bft) NO 40 0 min 0,000 mm 0,0 UV-I 48 W/m 10,8 C 17,5 C 1,6 km/h (1 Bft) 97,87 %
22.09.2019 18:14 17,4 C 13,9 C 17,2 C 66 % 1010,7 hPa 0,0 l/m 1,1 km/h (1 Bft) NO 40 0 min 0,000 mm 0,0 UV-I 45 W/m 11,0 C 17,4 C 1,6 km/h (1 Bft) 98,00 %
22.09.2019 18:16 17,3 C 13,9 C 17,2 C 67 % 1010,7 hPa 0,0 l/m 1,4 km/h (1 Bft) NO 40 0 min 0,000 mm 0,0 UV-I 40 W/m 11,1 C 17,3 C 1,6 km/h (1 Bft) 100,00 %
22.09.2019 18:19 17,2 C 13,9 C 16,7 C 68 % 1010,7 hPa 0,0 l/m 1,2 km/h (1 Bft) NO 40 0 min 0,000 mm 0,0 UV-I 35 W/m 11,2 C 17,2 C 1,6 km/h (1 Bft) 98,59 %
22.09.2019 18:20 17,2 C 13,9 C 16,7 C 69 % 1010,7 hPa 0,0 l/m 1,5 km/h (1 Bft) NO 40 0 min 0,000 mm 0,0 UV-I 33 W/m 11,5 C 17,2 C 3,2 km/h (1 Bft) 97,21 %
22.09.2019 18:22 17,2 C 13,9 C 16,7 C 68 % 1010,7 hPa 0,0 l/m 1,4 km/h (1 Bft) NO 40 0 min 0,000 mm 0,0 UV-I 33 W/m 11,2 C 17,2 C 3,2 km/h (1 Bft) 100,00 %
22.09.2019 18:24 17,1 C 13,9 C 16,7 C 69 % 1010,7 hPa 0,0 l/m 1,2 km/h (1 Bft) NO 40 0 min 0,000 mm 0,0 UV-I 32 W/m 11,4 C 17,1 C 1,6 km/h (1 Bft) 100,00 %
22.09.2019 18:26 17,1 C 13,9 C 16,7 C 69 % 1010,6 hPa 0,0 l/m 0,3 km/h (0 Bft) NO 40 0 min 0,000 mm 0,0 UV-I 30 W/m 11,4 C 17,1 C 1,6 km/h (1 Bft) 97,87 %
22.09.2019 18:29 17,1 C 13,9 C 16,7 C 69 % 1010,7 hPa 0,0 l/m 1,1 km/h (1 Bft) NO 40 0 min 0,000 mm 0,0 UV-I 30 W/m 11,4 C 17,1 C 3,2 km/h (1 Bft) 95,71 %
22.09.2019 18:30 17,1 C 13,9 C 16,1 C 69 % 1010,7 hPa 0,0 l/m 1,7 km/h (1 Bft) NO 40 0 min 0,000 mm 0,0 UV-I 28 W/m 11,4 C 17,1 C 3,2 km/h (1 Bft) 100,00 %
22.09.2019 18:32 17,0 C 13,9 C 16,1 C 68 % 1010,6 hPa 0,0 l/m 1,7 km/h (1 Bft) NO 40 0 min 0,000 mm 0,0 UV-I 26 W/m 11,0 C 17,0 C 3,2 km/h (1 Bft) 100,00 %
22.09.2019 18:34 17,0 C 13,9 C 16,1 C 68 % 1010,6 hPa 0,0 l/m 0,9 km/h (0 Bft) NO 40 0 min 0,000 mm 0,0 UV-I 25 W/m 11,0 C 17,0 C 1,6 km/h (1 Bft) 100,00 %
22.09.2019 18:36 16,9 C 13,9 C 16,1 C 69 % 1010,5 hPa 0,0 l/m 0,4 km/h (0 Bft) NO 40 0 min 0,000 mm 0,0 UV-I 22 W/m 11,2 C 16,9 C 1,6 km/h (1 Bft) 100,00 %
22.09.2019 18:38 16,9 C 13,9 C 16,1 C 68 % 1010,5 hPa 0,0 l/m 0,0 km/h (0 Bft) NO 40 0 min 0,000 mm 0,0 UV-I 19 W/m 11,0 C 16,9 C 0,0 km/h (0 Bft) 100,00 %
22.09.2019 18:40 16,9 C 13,9 C 15,6 C 68 % 1010,5 hPa 0,0 l/m 0,0 km/h (0 Bft) NO 40 0 min 0,000 mm 0,0 UV-I 18 W/m 11,0 C 16,9 C 0,0 km/h (0 Bft) 93,62 %
22.09.2019 18:42 16,9 C 13,9 C 15,6 C 68 % 1010,5 hPa 0,0 l/m 0,0 km/h (0 Bft) NO 40 0 min 0,000 mm 0,0 UV-I 17 W/m 11,0 C 16,9 C 0,0 km/h (0 Bft) 91,49 %
22.09.2019 18:44 16,9 C 13,9 C 15,6 C 67 % 1010,5 hPa 0,0 l/m 0,1 km/h (0 Bft) NO 40 0 min 0,000 mm 0,0 UV-I 14 W/m 10,7 C 16,9 C 1,6 km/h (1 Bft) 97,87 %
22.09.2019 18:46 16,8 C 13,9 C 15,6 C 68 % 1010,5 hPa 0,0 l/m 0,2 km/h (0 Bft) NO 40 0 min 0,000 mm 0,0 UV-I 14 W/m 10,9 C 16,8 C 1,6 km/h (1 Bft) 97,87 %
22.09.2019 18:48 16,8 C 13,9 C 15,0 C 68 % 1010,5 hPa 0,0 l/m 0,0 km/h (0 Bft) NO 40 0 min 0,000 mm 0,0 UV-I 12 W/m 10,9 C 16,8 C 0,0 km/h (0 Bft) 97,87 %
22.09.2019 18:50 16,7 C 13,9 C 15,0 C 68 % 1010,6 hPa 0,0 l/m 0,0 km/h (0 Bft) NO 40 2 min 0,000 mm 0,0 UV-I 12 W/m 10,8 C 16,7 C 0,0 km/h (0 Bft) 97,87 %
22.09.2019 18:52 16,6 C 13,9 C 15,0 C 68 % 1010,5 hPa 0,0 l/m 0,0 km/h (0 Bft) NO 40 2 min 0,000 mm 0,0 UV-I 11 W/m 10,7 C 16,6 C 0,0 km/h (0 Bft) 97,87 %
22.09.2019 18:54 16,6 C 13,9 C 15,0 C 72 % 1010,5 hPa 0,0 l/m 0,0 km/h (0 Bft) NO 40 0 min 0,000 mm 0,0 UV-I 9 W/m 11,5 C 16,6 C 0,0 km/h (0 Bft) 95,74 %
22.09.2019 18:56 16,4 C 13,9 C 15,0 C 76 % 1010,5 hPa 0,0 l/m 0,0 km/h (0 Bft) NO 40 0 min 0,000 mm 0,0 UV-I 7 W/m 12,2 C 16,4 C 0,0 km/h (0 Bft) 93,75 %
22.09.2019 18:59 16,3 C 13,9 C 15,0 C 75 % 1010,5 hPa 0,0 l/m 0,5 km/h (0 Bft) NO 40 0 min 0,000 mm 0,0 UV-I 7 W/m 11,9 C 16,3 C 3,2 km/h (1 Bft) 97,14 %
22.09.2019 19:00 16,3 C 13,9 C 15,0 C 75 % 1010,5 hPa 0,0 l/m 1,9 km/h (1 Bft) NO 40 0 min 0,000 mm 0,0 UV-I 5 W/m 11,9 C 16,3 C 3,2 km/h (1 Bft) 95,83 %
22.09.2019 19:02 16,2 C 13,9 C 15,0 C 74 % 1010,5 hPa 0,0 l/m 2,0 km/h (1 Bft) NO 40 0 min 0,026 mm 0,0 UV-I 5 W/m 11,6 C 16,2 C 3,2 km/h (1 Bft) 95,74 %
22.09.2019 19:04 16,2 C 13,9 C 14,4 C 73 % 1010,5 hPa 0,0 l/m 1,5 km/h (1 Bft) NO 40 0 min 0,000 mm 0,0 UV-I 5 W/m 11,4 C 16,2 C 3,2 km/h (1 Bft) 95,74 %
22.09.2019 19:06 16,2 C 13,9 C 14,4 C 73 % 1010,5 hPa 0,0 l/m 1,4 km/h (1 Bft) NO 40 0 min 0,000 mm 0,0 UV-I 5 W/m 11,4 C 16,2 C 3,2 km/h (1 Bft) 95,74 %
22.09.2019 19:08 16,2 C 13,9 C 14,4 C 75 % 1010,5 hPa 0,0 l/m 1,5 km/h (1 Bft) NO 40 0 min 0,000 mm 0,0 UV-I 5 W/m 11,8 C 16,2 C 3,2 km/h (1 Bft) 98,00 %
22.09.2019 19:10 16,0 C 13,9 C 14,4 C 77 % 1010,5 hPa 0,0 l/m 0,8 km/h (0 Bft) NO 40 0 min 0,000 mm 0,0 UV-I 0 W/m 12,0 C 16,0 C 1,6 km/h (1 Bft) 100,00 %
22.09.2019 19:12 15,8 C 13,9 C 14,4 C 79 % 1010,4 hPa 0,0 l/m 0,1 km/h (0 Bft) NO 40 0 min 0,000 mm 0,0 UV-I 0 W/m 12,2 C 15,8 C 1,6 km/h (1 Bft) 97,87 %
22.09.2019 19:14 15,7 C 13,9 C 14,4 C 79 % 1010,4 hPa 0,0 l/m 1,5 km/h (1 Bft) NO 40 0 min 0,000 mm 0,0 UV-I 0 W/m 12,1 C 15,7 C 3,2 km/h (1 Bft) 97,37 %
22.09.2019 19:16 15,6 C 13,9 C 14,4 C 79 % 1010,4 hPa 0,0 l/m 1,9 km/h (1 Bft) NO 40 0 min 0,000 mm 0,0 UV-I 0 W/m 12,0 C 15,6 C 3,2 km/h (1 Bft) 97,87 %
22.09.2019 19:18 15,6 C 13,9 C 14,4 C 78 % 1010,5 hPa 0,0 l/m 0,5 km/h (0 Bft) NO 40 0 min 0,000 mm 0,0 UV-I 0 W/m 11,8 C 15,6 C 1,6 km/h (1 Bft) 93,62 %
22.09.2019 19:20 15,6 C 13,9 C 14,4 C 78 % 1010,4 hPa 0,0 l/m 0,7 km/h (0 Bft) NO 40 0 min 0,000 mm 0,0 UV-I 0 W/m 11,8 C 15,6 C 1,6 km/h (1 Bft) 94,00 %
22.09.2019 19:22 15,6 C 13,9 C 14,4 C 78 % 1010,4 hPa 0,0 l/m 1,0 km/h (0 Bft) NO 40 0 min 0,000 mm 0,0 UV-I 0 W/m 11,8 C 15,6 C 1,6 km/h (1 Bft) 95,74 %
22.09.2019 19:24 15,5 C 13,9 C 14,4 C 78 % 1010,5 hPa 0,0 l/m 0,9 km/h (0 Bft) NO 40 0 min 0,000 mm 0,0 UV-I 0 W/m 11,7 C 15,5 C 1,6 km/h (1 Bft) 95,74 %
22.09.2019 19:26 15,4 C 13,9 C 14,4 C 78 % 1010,5 hPa 0,0 l/m 0,8 km/h (0 Bft) NO 40 0 min 0,000 mm 0,0 UV-I 0 W/m 11,6 C 15,4 C 1,6 km/h (1 Bft) 93,62 %
22.09.2019 19:28 15,4 C 13,9 C 14,4 C 78 % 1010,6 hPa 0,0 l/m 1,1 km/h (1 Bft) NO 40 0 min 0,000 mm 0,0 UV-I 0 W/m 11,6 C 15,4 C 1,6 km/h (1 Bft) 91,49 %
22.09.2019 19:30 15,4 C 13,9 C 14,4 C 78 % 1010,6 hPa 0,0 l/m 0,9 km/h (0 Bft) NO 40 0 min 0,000 mm 0,0 UV-I 0 W/m 11,6 C 15,4 C 1,6 km/h (1 Bft) 94,00 %
22.09.2019 19:32 15,4 C 13,9 C 14,4 C 78 % 1010,6 hPa 0,0 l/m 0,0 km/h (0 Bft) NO 40 0 min 0,000 mm 0,0 UV-I 0 W/m 11,6 C 15,4 C 0,0 km/h (0 Bft) 95,74 %
22.09.2019 19:34 15,4 C 13,9 C 14,4 C 79 % 1010,6 hPa 0,0 l/m 1,1 km/h (1 Bft) NO 40 0 min 0,000 mm 0,0 UV-I 0 W/m 11,8 C 15,4 C 3,2 km/h (1 Bft) 94,44 %
22.09.2019 19:36 15,4 C 13,9 C 14,4 C 79 % 1010,6 hPa 0,0 l/m 2,9 km/h (1 Bft) NO 39 0 min 0,000 mm 0,0 UV-I 0 W/m 11,8 C 15,4 C 4,8 km/h (1 Bft) 96,00 %
22.09.2019 19:38 15,3 C 13,9 C 14,4 C 80 % 1010,6 hPa 0,0 l/m 2,4 km/h (1 Bft) NO 39 0 min 0,000 mm 0,0 UV-I 0 W/m 11,9 C 15,3 C 3,2 km/h (1 Bft) 93,62 %
22.09.2019 19:40 15,3 C 13,9 C 14,4 C 80 % 1010,6 hPa 0,0 l/m 1,5 km/h (1 Bft) NO 39 0 min 0,000 mm 0,0 UV-I 0 W/m 11,9 C 15,3 C 3,2 km/h (1 Bft) 95,74 %
22.09.2019 19:42 15,3 C 13,9 C 14,4 C 81 % 1010,7 hPa 0,0 l/m 0,5 km/h (0 Bft) NO 39 0 min 0,000 mm 0,0 UV-I 0 W/m 12,1 C 15,3 C 1,6 km/h (1 Bft) 98,00 %
22.09.2019 19:44 15,2 C 13,9 C 14,4 C 81 % 1010,7 hPa 0,0 l/m 1,0 km/h (0 Bft) NO 39 0 min 0,000 mm 0,0 UV-I 0 W/m 12,0 C 15,2 C 1,6 km/h (1 Bft) 98,00 %
22.09.2019 19:46 15,2 C 13,9 C 14,4 C 81 % 1010,6 hPa 0,0 l/m 1,3 km/h (1 Bft) NO 39 0 min 0,000 mm 0,0 UV-I 0 W/m 12,0 C 15,2 C 3,2 km/h (1 Bft) 97,87 %
22.09.2019 19:48 15,1 C 13,9 C 14,4 C 82 % 1010,6 hPa 0,0 l/m 1,0 km/h (0 Bft) NO 39 0 min 0,000 mm 0,0 UV-I 0 W/m 12,0 C 15,1 C 1,6 km/h (1 Bft) 97,87 %
22.09.2019 19:50 15,0 C 13,9 C 14,4 C 81 % 1010,6 hPa 0,0 l/m 1,3 km/h (1 Bft) NO 39 0 min 0,000 mm 0,0 UV-I 0 W/m 11,8 C 15,0 C 3,2 km/h (1 Bft) 97,37 %
22.09.2019 19:52 15,0 C 13,9 C 14,4 C 81 % 1010,6 hPa 0,0 l/m 2,5 km/h (1 Bft) NO 41 0 min 0,000 mm 0,0 UV-I 0 W/m 11,8 C 15,0 C 3,2 km/h (1 Bft) 92,00 %
22.09.2019 19:54 15,0 C 13,9 C 14,4 C 81 % 1010,6 hPa 0,0 l/m 2,6 km/h (1 Bft) NO 41 0 min 0,000 mm 0,0 UV-I 0 W/m 11,8 C 15,0 C 3,2 km/h (1 Bft) 97,87 %
22.09.2019 19:56 15,0 C 13,9 C 14,4 C 81 % 1010,5 hPa 0,0 l/m 2,5 km/h (1 Bft) NO 41 0 min 0,000 mm 0,0 UV-I 0 W/m 11,8 C 15,0 C 3,2 km/h (1 Bft) 95,74 %
22.09.2019 19:58 15,1 C 13,9 C 14,4 C 81 % 1010,5 hPa 0,0 l/m 2,2 km/h (1 Bft) NO 41 0 min 0,000 mm 0,0 UV-I 0 W/m 11,9 C 15,1 C 3,2 km/h (1 Bft) 95,74 %
22.09.2019 20:00 15,1 C 13,9 C 14,4 C 81 % 1010,5 hPa 0,0 l/m 1,9 km/h (1 Bft) NO 41 0 min 0,000 mm 0,0 UV-I 0 W/m 11,9 C 15,1 C 3,2 km/h (1 Bft) 97,87 %
22.09.2019 20:02 15,0 C 13,9 C 14,4 C 81 % 1010,5 hPa 0,0 l/m 1,9 km/h (1 Bft) NO 41 0 min 0,000 mm 0,0 UV-I 0 W/m 11,8 C 15,0 C 3,2 km/h (1 Bft) 97,87 %
22.09.2019 20:04 15,1 C 13,9 C 14,4 C 81 % 1010,4 hPa 0,0 l/m 2,1 km/h (1 Bft) NO 41 0 min 0,000 mm 0,0 UV-I 0 W/m 11,9 C 15,1 C 3,2 km/h (1 Bft) 97,87 %
22.09.2019 20:06 15,1 C 13,9 C 14,4 C 78 % 1010,4 hPa 0,0 l/m 2,9 km/h (1 Bft) NO 41 0 min 0,000 mm 0,0 UV-I 0 W/m 11,3 C 15,1 C 4,8 km/h (1 Bft) 97,87 %
22.09.2019 20:09 15,3 C 13,9 C 13,9 C 78 % 1010,4 hPa 0,0 l/m 1,8 km/h (1 Bft) NO 41 0 min 0,000 mm 0,0 UV-I 0 W/m 11,5 C 15,3 C 3,2 km/h (1 Bft) 95,77 %
22.09.2019 20:10 15,3 C 13,9 C 13,9 C 78 % 1010,4 hPa 0,0 l/m 0,1 km/h (0 Bft) NO 41 0 min 0,000 mm 0,0 UV-I 0 W/m 11,5 C 15,3 C 1,6 km/h (1 Bft) 100,00 %
22.09.2019 20:12 15,3 C 13,9 C 13,9 C 79 % 1010,4 hPa 0,0 l/m 0,0 km/h (0 Bft) NO 41 0 min 0,000 mm 0,0 UV-I 0 W/m 11,7 C 15,3 C 0,0 km/h (0 Bft) 95,83 %
22.09.2019 20:14 15,3 C 13,9 C 13,9 C 79 % 1010,5 hPa 0,0 l/m 0,0 km/h (0 Bft) NO 41 0 min 0,000 mm 0,0 UV-I 0 W/m 11,7 C 15,3 C 0,0 km/h (0 Bft) 95,92 %
22.09.2019 20:16 15,2 C 13,9 C 13,9 C 79 % 1010,5 hPa 0,0 l/m 0,0 km/h (0 Bft) NO 41 0 min 0,000 mm 0,0 UV-I 0 W/m 11,6 C 15,2 C 0,0 km/h (0 Bft) 97,44 %
22.09.2019 20:18 15,2 C 13,9 C 13,9 C 79 % 1010,5 hPa 0,0 l/m 0,0 km/h (0 Bft) NO 41 0 min 0,000 mm 0,0 UV-I 0 W/m 11,6 C 15,2 C 0,0 km/h (0 Bft) 100,00 %
22.09.2019 20:20 15,2 C 13,9 C 13,9 C 79 % 1010,5 hPa 0,0 l/m 0,0 km/h (0 Bft) NO 41 0 min 0,000 mm 0,0 UV-I 0 W/m 11,6 C 15,2 C 0,0 km/h (0 Bft) 97,87 %
22.09.2019 20:22 15,1 C 13,9 C 13,9 C 80 % 1010,6 hPa 0,0 l/m 0,5 km/h (0 Bft) NO 41 0 min 0,000 mm 0,0 UV-I 0 W/m 11,7 C 15,1 C 1,6 km/h (1 Bft) 100,00 %
22.09.2019 20:24 14,9 C 13,9 C 13,9 C 81 % 1010,5 hPa 0,0 l/m 0,0 km/h (0 Bft) NO 41 0 min 0,000 mm 0,0 UV-I 0 W/m 11,7 C 14,9 C 0,0 km/h (0 Bft) 100,00 %
22.09.2019 20:26 14,9 C 13,9 C 13,9 C 81 % 1010,6 hPa 0,0 l/m 0,0 km/h (0 Bft) NO 41 0 min 0,000 mm 0,0 UV-I 0 W/m 11,7 C 14,9 C 0,0 km/h (0 Bft) 100,00 %
22.09.2019 20:28 14,9 C 13,9 C 13,9 C 81 % 1010,5 hPa 0,0 l/m 0,0 km/h (0 Bft) NO 41 0 min 0,000 mm 0,0 UV-I 0 W/m 11,7 C 14,9 C 0,0 km/h (0 Bft) 100,00 %
22.09.2019 20:30 14,9 C 13,9 C 13,9 C 82 % 1010,5 hPa 0,0 l/m 0,0 km/h (0 Bft) NO 41 0 min 0,000 mm 0,0 UV-I 0 W/m 11,9 C 14,9 C 0,0 km/h (0 Bft) 100,00 %
22.09.2019 20:32 14,9 C 13,9 C 13,9 C 82 % 1010,5 hPa 0,0 l/m 0,0 km/h (0 Bft) NO 41 0 min 0,000 mm 0,0 UV-I 0 W/m 11,9 C 14,9 C 0,0 km/h (0 Bft) 97,87 %
22.09.2019 20:34 14,9 C 13,9 C 14,4 C 82 % 1010,5 hPa 0,0 l/m 0,4 km/h (0 Bft) NO 41 0 min 0,000 mm 0,0 UV-I 0 W/m 11,9 C 14,9 C 1,6 km/h (1 Bft) 97,87 %
22.09.2019 20:36 14,8 C 13,9 C 13,9 C 83 % 1010,5 hPa 0,0 l/m 1,4 km/h (1 Bft) NO 41 0 min 0,000 mm 0,0 UV-I 0 W/m 11,9 C 14,8 C 1,6 km/h (1 Bft) 100,00 %
22.09.2019 20:38 14,7 C 13,9 C 13,9 C 83 % 1010,4 hPa 0,0 l/m 1,1 km/h (1 Bft) NO 41 0 min 0,000 mm 0,0 UV-I 0 W/m 11,8 C 14,7 C 1,6 km/h (1 Bft) 97,87 %
22.09.2019 20:40 14,6 C 13,9 C 13,9 C 83 % 1010,4 hPa 0,0 l/m 1,5 km/h (1 Bft) NO 41 0 min 0,000 mm 0,0 UV-I 0 W/m 11,7 C 14,6 C 3,2 km/h (1 Bft) 97,87 %
22.09.2019 20:42 14,5 C 13,9 C 13,9 C 82 % 1010,4 hPa 0,0 l/m 2,6 km/h (1 Bft) NO 41 0 min 0,000 mm 0,0 UV-I 0 W/m 11,5 C 14,5 C 3,2 km/h (1 Bft) 93,62 %
22.09.2019 20:44 14,5 C 13,9 C 13,9 C 82 % 1010,4 hPa 0,0 l/m 2,2 km/h (1 Bft) NO 41 0 min 0,000 mm 0,0 UV-I 0 W/m 11,5 C 14,5 C 3,2 km/h (1 Bft) 95,74 %
22.09.2019 20:46 14,4 C 13,9 C 13,9 C 81 % 1010,4 hPa 0,0 l/m 1,6 km/h (1 Bft) NO 41 0 min 0,000 mm 0,0 UV-I 0 W/m 11,2 C 14,4 C 3,2 km/h (1 Bft) 93,62 %
22.09.2019 20:50 14,6 C 13,9 C 13,9 C 81 % 1010,4 hPa 0,0 l/m 1,6 km/h (1 Bft) NO 45 0 min 0,000 mm 0,0 UV-I 0 W/m 11,4 C 14,6 C 3,2 km/h (1 Bft) 97,37 %
22.09.2019 20:52 14,6 C 13,9 C 13,9 C 82 % 1010,4 hPa 0,0 l/m 0,0 km/h (0 Bft) NO 41 0 min 0,000 mm 0,0 UV-I 0 W/m 11,6 C 14,6 C 0,0 km/h (0 Bft) 100,00 %
22.09.2019 20:54 14,6 C 13,9 C 13,3 C 82 % 1010,4 hPa 0,0 l/m 1,5 km/h (1 Bft) NO 41 0 min 0,000 mm 0,0 UV-I 0 W/m 11,6 C 14,6 C 3,2 km/h (1 Bft) 93,62 %
22.09.2019 20:55 14,5 C 13,9 C 13,3 C 82 % 1010,4 hPa 0,0 l/m 2,4 km/h (1 Bft) NO 40 0 min 0,000 mm 0,0 UV-I 0 W/m 11,5 C 14,5 C 3,2 km/h (1 Bft) 95,74 %
22.09.2019 20:58 14,5 C 13,9 C 13,3 C 82 % 1010,4 hPa 0,0 l/m 2,6 km/h (1 Bft) NO 40 0 min 0,000 mm 0,0 UV-I 0 W/m 11,5 C 14,5 C 3,2 km/h (1 Bft) 95,74 %
22.09.2019 21:00 14,4 C 13,9 C 12,8 C 82 % 1010,4 hPa 0,0 l/m 2,4 km/h (1 Bft) NO 40 0 min 0,000 mm 0,0 UV-I 0 W/m 11,4 C 14,4 C 3,2 km/h (1 Bft) 94,87 %
22.09.2019 21:02 14,4 C 13,9 C 12,8 C 82 % 1010,4 hPa 0,0 l/m 2,3 km/h (1 Bft) NO 40 0 min 0,000 mm 0,0 UV-I 0 W/m 11,4 C 14,4 C 3,2 km/h (1 Bft) 93,62 %
22.09.2019 21:04 14,3 C 13,9 C 12,8 C 82 % 1010,4 hPa 0,0 l/m 1,9 km/h (1 Bft) NO 40 0 min 0,000 mm 0,0 UV-I 0 W/m 11,3 C 14,3 C 3,2 km/h (1 Bft) 95,74 %
22.09.2019 21:06 14,3 C 13,9 C 12,8 C 82 % 1010,4 hPa 0,0 l/m 2,4 km/h (1 Bft) NO 40 0 min 0,000 mm 0,0 UV-I 0 W/m 11,3 C 14,3 C 3,2 km/h (1 Bft) 95,74 %
22.09.2019 21:08 14,3 C 13,9 C 12,2 C 82 % 1010,4 hPa 0,0 l/m 3,1 km/h (1 Bft) NO 40 0 min 0,000 mm 0,0 UV-I 0 W/m 11,3 C 14,3 C 4,8 km/h (1 Bft) 98,11 %
22.09.2019 21:10 14,3 C 13,9 C 12,8 C 82 % 1010,4 hPa 0,0 l/m 3,6 km/h (1 Bft) SW 234 0 min 0,000 mm 0,0 UV-I 0 W/m 11,3 C 14,3 C 4,8 km/h (1 Bft) 98,00 %
22.09.2019 21:12 14,2 C 13,9 C 12,8 C 83 % 1010,4 hPa 0,0 l/m 3,1 km/h (1 Bft) SW 234 0 min 0,000 mm 0,0 UV-I 0 W/m 11,4 C 14,2 C 4,8 km/h (1 Bft) 95,74 %
22.09.2019 21:14 14,1 C 13,9 C 12,8 C 83 % 1010,4 hPa 0,0 l/m 2,9 km/h (1 Bft) SW 234 0 min 0,000 mm 0,0 UV-I 0 W/m 11,3 C 14,1 C 3,2 km/h (1 Bft) 97,87 %
22.09.2019 21:16 13,9 C 13,9 C 12,8 C 83 % 1010,4 hPa 0,0 l/m 2,2 km/h (1 Bft) SW 234 0 min 0,000 mm 0,0 UV-I 0 W/m 11,1 C 13,9 C 3,2 km/h (1 Bft) 97,56 %
22.09.2019 21:18 13,7 C 13,9 C 12,2 C 84 % 1010,5 hPa 0,0 l/m 2,5 km/h (1 Bft) SW 234 0 min 0,000 mm 0,0 UV-I 0 W/m 11,0 C 13,7 C 3,2 km/h (1 Bft) 100,00 %
22.09.2019 21:20 13,4 C 13,9 C 12,2 C 84 % 1010,5 hPa 0,0 l/m 2,1 km/h (1 Bft) SW 234 0 min 0,000 mm 0,0 UV-I 0 W/m 10,8 C 13,4 C 3,2 km/h (1 Bft) 100,00 %
22.09.2019 21:22 13,4 C 13,9 C 11,7 C 84 % 1010,5 hPa 0,0 l/m 0,2 km/h (0 Bft) SW 234 0 min 0,000 mm 0,0 UV-I 0 W/m 10,8 C 13,4 C 1,6 km/h (1 Bft) 100,00 %
22.09.2019 21:24 13,5 C 13,9 C 11,7 C 84 % 1010,4 hPa 0,0 l/m 0,0 km/h (0 Bft) SW 234 0 min 0,000 mm 0,0 UV-I 0 W/m 10,8 C 13,5 C 1,6 km/h (1 Bft) 98,00 %
22.09.2019 21:26 13,7 C 13,9 C 11,7 C 83 % 1010,4 hPa 0,0 l/m 0,9 km/h (0 Bft) SW 234 0 min 0,000 mm 0,0 UV-I 0 W/m 10,9 C 13,7 C 1,6 km/h (1 Bft) 100,00 %
22.09.2019 21:28 13,8 C 13,9 C 11,7 C 82 % 1010,5 hPa 0,0 l/m 0,9 km/h (0 Bft) SW 234 0 min 0,000 mm 0,0 UV-I 0 W/m 10,8 C 13,8 C 1,6 km/h (1 Bft) 100,00 %
22.09.2019 21:30 14,0 C 13,9 C 11,1 C 81 % 1010,4 hPa 0,0 l/m 0,2 km/h (0 Bft) SW 234 0 min 0,000 mm 0,0 UV-I 0 W/m 10,8 C 14,0 C 1,6 km/h (1 Bft) 100,00 %
22.09.2019 21:32 14,1 C 13,9 C 11,1 C 80 % 1010,4 hPa 0,0 l/m 0,1 km/h (0 Bft) SW 234 0 min 0,000 mm 0,0 UV-I 0 W/m 10,7 C 14,1 C 1,6 km/h (1 Bft) 100,00 %
22.09.2019 21:34 14,2 C 13,9 C 11,1 C 80 % 1010,5 hPa 0,0 l/m 0,2 km/h (0 Bft) SW 234 0 min 0,000 mm 0,0 UV-I 0 W/m 10,8 C 14,2 C 1,6 km/h (1 Bft) 100,00 %
22.09.2019 21:36 14,1 C 13,9 C 11,1 C 80 % 1010,5 hPa 0,0 l/m 0,0 km/h (0 Bft) SW 234 0 min 0,000 mm 0,0 UV-I 0 W/m 10,7 C 14,1 C 0,0 km/h (0 Bft) 100,00 %
22.09.2019 21:38 14,1 C 13,9 C 11,7 C 80 % 1010,5 hPa 0,0 l/m 0,0 km/h (0 Bft) SW 234 0 min 0,000 mm 0,0 UV-I 0 W/m 10,7 C 14,1 C 0,0 km/h (0 Bft) 100,00 %
22.09.2019 21:40 13,9 C 13,9 C 11,7 C 81 % 1010,6 hPa 0,0 l/m 1,0 km/h (0 Bft) SW 234 0 min 0,000 mm 0,0 UV-I 0 W/m 10,7 C 13,9 C 1,6 km/h (1 Bft) 98,18 %
22.09.2019 21:42 13,8 C 13,9 C 11,7 C 82 % 1010,6 hPa 0,0 l/m 1,7 km/h (1 Bft) SW 234 0 min 0,000 mm 0,0 UV-I 0 W/m 10,8 C 13,8 C 3,2 km/h (1 Bft) 100,00 %
22.09.2019 21:44 13,7 C 13,9 C 11,7 C 82 % 1010,6 hPa 0,0 l/m 0,5 km/h (0 Bft) SW 234 0 min 0,000 mm 0,0 UV-I 0 W/m 10,7 C 13,7 C 1,6 km/h (1 Bft) 100,00 %
22.09.2019 21:46 13,6 C 13,9 C 11,7 C 83 % 1010,6 hPa 0,0 l/m 0,1 km/h (0 Bft) SW 234 0 min 0,000 mm 0,0 UV-I 0 W/m 10,8 C 13,6 C 1,6 km/h (1 Bft) 100,00 %
22.09.2019 21:48 13,5 C 13,9 C 11,7 C 84 % 1010,6 hPa 0,0 l/m 1,3 km/h (1 Bft) SW 234 0 min 0,000 mm 0,0 UV-I 0 W/m 10,8 C 13,5 C 3,2 km/h (1 Bft) 96,00 %
22.09.2019 21:50 13,4 C 13,9 C 12,2 C 84 % 1010,5 hPa 0,0 l/m 1,5 km/h (1 Bft) SW 234 0 min 0,000 mm 0,0 UV-I 0 W/m 10,8 C 13,4 C 3,2 km/h (1 Bft) 100,00 %
22.09.2019 21:52 13,3 C 13,9 C 12,2 C 85 % 1010,5 hPa 0,0 l/m 1,8 km/h (1 Bft) SW 234 0 min 0,000 mm 0,0 UV-I 0 W/m 10,8 C 13,3 C 3,2 km/h (1 Bft) 98,00 %
22.09.2019 21:54 13,2 C 13,9 C 12,2 C 85 % 1010,4 hPa 0,0 l/m 1,9 km/h (1 Bft) SW 234 0 min 0,000 mm 0,0 UV-I 0 W/m 10,7 C 13,2 C 3,2 km/h (1 Bft) 100,00 %
22.09.2019 21:56 13,2 C 13,9 C 12,2 C 86 % 1010,5 hPa 0,0 l/m 1,5 km/h (1 Bft) SW 234 0 min 0,000 mm 0,0 UV-I 0 W/m 10,9 C 13,2 C 1,6 km/h (1 Bft) 100,00 %
22.09.2019 21:58 13,3 C 13,9 C 12,2 C 85 % 1010,5 hPa 0,0 l/m 2,6 km/h (1 Bft) SW 233 0 min 0,000 mm 0,0 UV-I 0 W/m 10,8 C 13,3 C 3,2 km/h (1 Bft) 100,00 %
22.09.2019 22:00 13,3 C 13,9 C 12,2 C 85 % 1010,5 hPa 0,0 l/m 2,7 km/h (1 Bft) SW 233 0 min 0,000 mm 0,0 UV-I 0 W/m 10,8 C 13,3 C 3,2 km/h (1 Bft) 100,00 %
22.09.2019 22:02 13,3 C 13,9 C 11,7 C 85 % 1010,5 hPa 0,0 l/m 2,0 km/h (1 Bft) SW 233 0 min 0,000 mm 0,0 UV-I 0 W/m 10,8 C 13,3 C 3,2 km/h (1 Bft) 100,00 %
22.09.2019 22:04 13,3 C 13,9 C 11,7 C 85 % 1010,5 hPa 0,0 l/m 0,9 km/h (0 Bft) SW 233 0 min 0,000 mm 0,0 UV-I 0 W/m 10,8 C 13,3 C 1,6 km/h (1 Bft) 100,00 %
22.09.2019 22:06 13,4 C 13,9 C 11,7 C 84 % 1010,5 hPa 0,0 l/m 0,3 km/h (0 Bft) SW 233 0 min 0,000 mm 0,0 UV-I 0 W/m 10,8 C 13,4 C 1,6 km/h (1 Bft) 100,00 %
22.09.2019 22:08 13,5 C 13,9 C 11,7 C 83 % 1010,4 hPa 0,0 l/m 0,0 km/h (0 Bft) SW 233 0 min 0,000 mm 0,0 UV-I 0 W/m 10,7 C 13,5 C 1,6 km/h (1 Bft) 97,87 %
22.09.2019 22:10 13,6 C 13,9 C 11,7 C 83 % 1010,4 hPa 0,0 l/m 0,0 km/h (0 Bft) SW 233 0 min 0,000 mm 0,0 UV-I 0 W/m 10,8 C 13,6 C 0,0 km/h (0 Bft) 95,74 %
22.09.2019 22:12 13,5 C 13,9 C 11,1 C 83 % 1010,4 hPa 0,0 l/m 0,6 km/h (0 Bft) SW 233 0 min 0,000 mm 0,0 UV-I 0 W/m 10,7 C 13,5 C 1,6 km/h (1 Bft) 97,87 %
22.09.2019 22:14 13,4 C 13,9 C 11,1 C 83 % 1010,3 hPa 0,0 l/m 1,3 km/h (1 Bft) SW 233 0 min 0,000 mm 0,0 UV-I 0 W/m 10,6 C 13,4 C 3,2 km/h (1 Bft) 94,87 %
22.09.2019 22:16 13,3 C 13,9 C 10,6 C 83 % 1010,2 hPa 0,0 l/m 3,1 km/h (1 Bft) S 182 0 min 0,000 mm 0,0 UV-I 0 W/m 10,5 C 13,3 C 4,8 km/h (1 Bft) 97,87 %
22.09.2019 22:18 13,2 C 13,9 C 10,6 C 83 % 1010,2 hPa 0,0 l/m 3,6 km/h (1 Bft) S 182 0 min 0,000 mm 0,0 UV-I 0 W/m 10,4 C 13,2 C 4,8 km/h (1 Bft) 98,11 %
22.09.2019 22:20 13,1 C 13,9 C 10,6 C 84 % 1010,2 hPa 0,0 l/m 2,8 km/h (1 Bft) S 182 0 min 0,000 mm 0,0 UV-I 0 W/m 10,5 C 13,1 C 3,2 km/h (1 Bft) 97,37 %
22.09.2019 22:22 13,1 C 13,9 C 10,6 C 84 % 1010,2 hPa 0,0 l/m 2,8 km/h (1 Bft) S 182 0 min 0,000 mm 0,0 UV-I 0 W/m 10,5 C 13,1 C 3,2 km/h (1 Bft) 97,87 %
22.09.2019 22:24 13,1 C 13,9 C 10,6 C 83 % 1010,1 hPa 0,0 l/m 3,8 km/h (1 Bft) SO 127 0 min 0,000 mm 0,0 UV-I 0 W/m 10,3 C 13,1 C 4,8 km/h (1 Bft) 98,00 %
22.09.2019 22:26 13,1 C 13,9 C 10,0 C 83 % 1010,1 hPa 0,0 l/m 3,1 km/h (1 Bft) SO 127 0 min 0,000 mm 0,0 UV-I 0 W/m 10,3 C 13,1 C 4,8 km/h (1 Bft) 98,11 %
22.09.2019 22:28 13,2 C 13,9 C 10,0 C 83 % 1010,1 hPa 0,0 l/m 4,0 km/h (1 Bft) SO 127 0 min 0,000 mm 0,0 UV-I 0 W/m 10,4 C 13,2 C 4,8 km/h (1 Bft) 95,74 %
22.09.2019 22:30 13,2 C 13,9 C 10,0 C 83 % 1010,1 hPa 0,0 l/m 3,3 km/h (1 Bft) SO 127 0 min 0,000 mm 0,0 UV-I 0 W/m 10,4 C 13,2 C 4,8 km/h (1 Bft) 100,00 %
22.09.2019 22:32 13,2 C 13,9 C 10,0 C 82 % 1010,1 hPa 0,0 l/m 2,8 km/h (1 Bft) SO 126 0 min 0,000 mm 0,0 UV-I 0 W/m 10,2 C 13,2 C 4,8 km/h (1 Bft) 100,00 %
22.09.2019 22:34 13,4 C 13,9 C 10,0 C 81 % 1010,1 hPa 0,0 l/m 2,6 km/h (1 Bft) SO 126 0 min 0,000 mm 0,0 UV-I 0 W/m 10,2 C 13,4 C 4,8 km/h (1 Bft) 100,00 %
22.09.2019 22:36 13,2 C 13,9 C 10,6 C 81 % 1010,1 hPa 0,0 l/m 1,6 km/h (1 Bft) SO 126 0 min 0,000 mm 0,0 UV-I 0 W/m 10,0 C 13,2 C 3,2 km/h (1 Bft) 97,14 %
22.09.2019 22:38 13,0 C 13,9 C 10,6 C 83 % 1010,1 hPa 0,0 l/m 2,0 km/h (1 Bft) SO 127 0 min 0,000 mm 0,0 UV-I 0 W/m 10,2 C 13,0 C 4,8 km/h (1 Bft) 98,31 %
22.09.2019 22:40 12,6 C 13,9 C 11,1 C 84 % 1010,0 hPa 0,0 l/m 2,6 km/h (1 Bft) SO 127 0 min 0,000 mm 0,0 UV-I 0 W/m 10,0 C 12,6 C 3,2 km/h (1 Bft) 97,73 %
22.09.2019 22:42 12,4 C 13,9 C 11,1 C 85 % 1010,0 hPa 0,0 l/m 2,3 km/h (1 Bft) SO 129 0 min 0,000 mm 0,0 UV-I 0 W/m 9,9 C 12,4 C 4,8 km/h (1 Bft) 100,00 %
22.09.2019 22:44 12,3 C 13,9 C 11,1 C 86 % 1010,0 hPa 0,0 l/m 4,4 km/h (1 Bft) S-SO 150 0 min 0,000 mm 0,0 UV-I 0 W/m 10,0 C 12,3 C 6,4 km/h (2 Bft) 97,56 %
22.09.2019 22:46 12,2 C 13,9 C 11,1 C 86 % 1010,0 hPa 0,0 l/m 3,5 km/h (1 Bft) S-SO 151 0 min 0,000 mm 0,0 UV-I 0 W/m 9,9 C 12,2 C 4,8 km/h (1 Bft) 100,00 %
22.09.2019 22:48 12,3 C 13,9 C 11,1 C 86 % 1010,0 hPa 0,0 l/m 2,0 km/h (1 Bft) S-SO 151 0 min 0,000 mm 0,0 UV-I 0 W/m 10,0 C 12,3 C 3,2 km/h (1 Bft) 100,00 %
22.09.2019 22:50 12,4 C 13,9 C 10,6 C 85 % 1010,1 hPa 0,0 l/m 1,8 km/h (1 Bft) S-SO 151 0 min 0,000 mm 0,0 UV-I 0 W/m 9,9 C 12,4 C 3,2 km/h (1 Bft) 96,00 %
22.09.2019 22:52 12,4 C 13,9 C 10,6 C 85 % 1010,1 hPa 0,0 l/m 0,7 km/h (0 Bft) S-SO 151 0 min 0,000 mm 0,0 UV-I 0 W/m 9,9 C 12,4 C 1,6 km/h (1 Bft) 95,74 %
22.09.2019 22:54 12,3 C 13,9 C 10,6 C 85 % 1010,0 hPa 0,0 l/m 0,9 km/h (0 Bft) S-SO 151 0 min 0,000 mm 0,0 UV-I 0 W/m 9,9 C 12,3 C 1,6 km/h (1 Bft) 97,92 %
22.09.2019 22:56 12,2 C 13,9 C 10,0 C 86 % 1010,0 hPa 0,0 l/m 0,9 km/h (0 Bft) S-SO 151 0 min 0,000 mm 0,0 UV-I 0 W/m 9,9 C 12,2 C 1,6 km/h (1 Bft) 95,74 %
22.09.2019 22:58 12,1 C 13,9 C 10,0 C 86 % 1010,0 hPa 0,0 l/m 0,1 km/h (0 Bft) S-SO 151 0 min 0,000 mm 0,0 UV-I 0 W/m 9,8 C 12,1 C 1,6 km/h (1 Bft) 92,68 %
22.09.2019 23:00 12,0 C 13,9 C 10,0 C 87 % 1010,0 hPa 0,0 l/m 1,4 km/h (1 Bft) S-SO 151 0 min 0,000 mm 0,0 UV-I 0 W/m 9,9 C 12,0 C 3,2 km/h (1 Bft) 98,11 %
22.09.2019 23:02 11,9 C 13,9 C 9,4 C 87 % 1010,0 hPa 0,0 l/m 2,9 km/h (1 Bft) S-SO 156 0 min 0,000 mm 0,0 UV-I 0 W/m 9,8 C 11,9 C 4,8 km/h (1 Bft) 91,49 %
22.09.2019 23:04 11,9 C 13,9 C 10,0 C 87 % 1010,0 hPa 0,0 l/m 2,9 km/h (1 Bft) S-SO 157 0 min 0,000 mm 0,0 UV-I 0 W/m 9,8 C 11,9 C 4,8 km/h (1 Bft) 91,49 %
22.09.2019 23:06 11,9 C 13,9 C 10,0 C 88 % 1010,0 hPa 0,0 l/m 2,5 km/h (1 Bft) S-SO 157 0 min 0,000 mm 0,0 UV-I 0 W/m 10,0 C 11,9 C 3,2 km/h (1 Bft) 94,34 %
22.09.2019 23:08 11,9 C 13,9 C 10,0 C 88 % 1010,0 hPa 0,0 l/m 2,6 km/h (1 Bft) S-SO 157 0 min 0,000 mm 0,0 UV-I 0 W/m 10,0 C 11,9 C 3,2 km/h (1 Bft) 95,74 %
22.09.2019 23:10 11,9 C 13,9 C 10,6 C 88 % 1009,9 hPa 0,0 l/m 3,5 km/h (1 Bft) S-SO 157 0 min 0,000 mm 0,0 UV-I 0 W/m 10,0 C 11,9 C 4,8 km/h (1 Bft) 91,43 %
22.09.2019 23:12 11,8 C 13,9 C 10,0 C 87 % 1009,8 hPa 0,0 l/m 3,3 km/h (1 Bft) S-SO 157 0 min 0,000 mm 0,0 UV-I 0 W/m 9,7 C 11,8 C 4,8 km/h (1 Bft) 94,34 %
22.09.2019 23:14 11,7 C 13,9 C 10,6 C 88 % 1009,8 hPa 0,0 l/m 3,3 km/h (1 Bft) S-SO 157 0 min 0,000 mm 0,0 UV-I 0 W/m 9,8 C 11,7 C 4,8 km/h (1 Bft) 95,74 %
22.09.2019 23:16 11,7 C 13,9 C 10,6 C 88 % 1009,8 hPa 0,0 l/m 2,6 km/h (1 Bft) S-SO 157 0 min 0,000 mm 0,0 UV-I 0 W/m 9,8 C 11,7 C 4,8 km/h (1 Bft) 93,18 %
22.09.2019 23:18 11,7 C 13,9 C 10,6 C 89 % 1009,9 hPa 0,0 l/m 2,2 km/h (1 Bft) S-SO 157 0 min 0,000 mm 0,0 UV-I 0 W/m 9,9 C 11,7 C 3,2 km/h (1 Bft) 95,74 %
22.09.2019 23:20 11,8 C 13,9 C 10,0 C 89 % 1009,9 hPa 0,0 l/m 2,2 km/h (1 Bft) S-SO 157 0 min 0,000 mm 0,0 UV-I 0 W/m 10,0 C 11,8 C 3,2 km/h (1 Bft) 94,34 %
22.09.2019 23:22 11,9 C 13,9 C 10,0 C 88 % 1010,0 hPa 0,0 l/m 0,1 km/h (0 Bft) S-SO 157 0 min 0,000 mm 0,0 UV-I 0 W/m 10,0 C 11,9 C 1,6 km/h (1 Bft) 93,62 %
22.09.2019 23:24 11,8 C 13,9 C 9,4 C 88 % 1009,9 hPa 0,0 l/m 0,0 km/h (0 Bft) S-SO 157 0 min 0,000 mm 0,0 UV-I 0 W/m 9,9 C 11,8 C 0,0 km/h (0 Bft) 95,74 %
22.09.2019 23:26 11,8 C 13,9 C 9,4 C 88 % 1009,9 hPa 0,0 l/m 1,1 km/h (1 Bft) S-SO 157 0 min 0,000 mm 0,0 UV-I 0 W/m 9,9 C 11,8 C 3,2 km/h (1 Bft) 95,12 %
22.09.2019 23:28 11,7 C 13,9 C 10,0 C 88 % 1009,9 hPa 0,0 l/m 2,9 km/h (1 Bft) S-SO 157 0 min 0,000 mm 0,0 UV-I 0 W/m 9,8 C 11,7 C 3,2 km/h (1 Bft) 98,11 %
22.09.2019 23:30 11,7 C 13,9 C 10,0 C 88 % 1009,8 hPa 0,0 l/m 2,7 km/h (1 Bft) S-SO 157 0 min 0,000 mm 0,0 UV-I 0 W/m 9,8 C 11,7 C 3,2 km/h (1 Bft) 93,62 %
22.09.2019 23:32 11,6 C 13,9 C 10,0 C 88 % 1009,8 hPa 0,0 l/m 1,6 km/h (1 Bft) S-SO 157 0 min 0,000 mm 0,0 UV-I 0 W/m 9,7 C 11,6 C 3,2 km/h (1 Bft) 95,74 %
22.09.2019 23:34 11,4 C 13,9 C 10,0 C 89 % 1009,8 hPa 0,0 l/m 1,4 km/h (1 Bft) S-SO 157 0 min 0,000 mm 0,0 UV-I 0 W/m 9,7 C 11,4 C 3,2 km/h (1 Bft) 95,74 %
22.09.2019 23:36 11,4 C 13,9 C 9,4 C 89 % 1009,8 hPa 0,0 l/m 1,1 km/h (1 Bft) S-SO 157 0 min 0,000 mm 0,0 UV-I 0 W/m 9,7 C 11,4 C 1,6 km/h (1 Bft) 94,87 %
22.09.2019 23:38 11,6 C 13,9 C 9,4 C 89 % 1009,8 hPa 0,0 l/m 1,3 km/h (1 Bft) S-SO 157 0 min 0,000 mm 0,0 UV-I 0 W/m 9,8 C 11,6 C 1,6 km/h (1 Bft) 93,62 %
22.09.2019 23:40 11,6 C 13,9 C 9,4 C 89 % 1009,8 hPa 0,0 l/m 1,2 km/h (1 Bft) S-SO 157 0 min 0,000 mm 0,0 UV-I 0 W/m 9,8 C 11,6 C 1,6 km/h (1 Bft) 96,23 %
22.09.2019 23:42 11,5 C 13,9 C 8,9 C 88 % 1009,8 hPa 0,0 l/m 0,8 km/h (0 Bft) S-SO 157 0 min 0,000 mm 0,0 UV-I 0 W/m 9,6 C 11,5 C 1,6 km/h (1 Bft) 95,12 %
22.09.2019 23:44 11,5 C 13,9 C 8,9 C 89 % 1009,9 hPa 0,0 l/m 1,2 km/h (1 Bft) S-SO 157 0 min 0,000 mm 0,0 UV-I 0 W/m 9,8 C 11,5 C 1,6 km/h (1 Bft) 95,45 %
22.09.2019 23:46 11,5 C 13,9 C 8,9 C 89 % 1009,9 hPa 0,0 l/m 1,5 km/h (1 Bft) S-SO 157 0 min 0,000 mm 0,0 UV-I 0 W/m 9,8 C 11,5 C 3,2 km/h (1 Bft) 96,00 %
22.09.2019 23:48 11,4 C 13,9 C 8,9 C 89 % 1009,9 hPa 0,0 l/m 1,7 km/h (1 Bft) S-SO 157 0 min 0,000 mm 0,0 UV-I 0 W/m 9,7 C 11,4 C 3,2 km/h (1 Bft) 93,62 %
22.09.2019 23:50 11,3 C 13,9 C 8,9 C 89 % 1009,8 hPa 0,0 l/m 2,9 km/h (1 Bft) S-SO 157 0 min 0,000 mm 0,0 UV-I 0 W/m 9,6 C 11,3 C 3,2 km/h (1 Bft) 96,00 %
22.09.2019 23:52 11,3 C 13,9 C 8,9 C 89 % 1009,9 hPa 0,0 l/m 3,0 km/h (1 Bft) S-SO 157 0 min 0,000 mm 0,0 UV-I 0 W/m 9,6 C 11,3 C 3,2 km/h (1 Bft) 97,87 %
22.09.2019 23:54 11,2 C 13,9 C 8,9 C 89 % 1009,9 hPa 0,0 l/m 1,9 km/h (1 Bft) S-SO 157 0 min 0,000 mm 0,0 UV-I 0 W/m 9,5 C 11,2 C 3,2 km/h (1 Bft) 100,00 %
22.09.2019 23:56 11,2 C 13,9 C 8,3 C 89 % 1009,8 hPa 0,0 l/m 2,7 km/h (1 Bft) S-SO 157 0 min 0,000 mm 0,0 UV-I 0 W/m 9,5 C 11,2 C 3,2 km/h (1 Bft) 96,00 %
22.09.2019 23:58 11,2 C 13,9 C 8,3 C 90 % 1009,8 hPa 0,0 l/m 2,4 km/h (1 Bft) S-SO 157 0 min 0,000 mm 0,0 UV-I 0 W/m 9,6 C 11,2 C 3,2 km/h (1 Bft) 100,00 %
_ Min-Zeit 07:12 00:00 06:40 14:52 23:12 - 06:36 - - - - - - 07:12 03:16 06:36 05:46
Minimum _ 6,2 C 13,9 C 2,8 C 56 % 1009,8 hPa - 0,0 km/h (0 Bft) - - - - - - 4,4 C 6,1 C 0,0 km/h (0 Bft) 87,23 %
_ Max-Zeit 15:22 00:00 11:48 23:58 00:00 00:00 00:06 - - 07:49 12:00 11:46 11:48 19:12 15:22 00:02 00:00
Maximum _ 18,2 C 13,9 C 27,2 C 90 % 1015,9 hPa 0,0 l/m 17,3 km/h
O-NO (3 Bft)
- - 3 min 0,305 mm 2,8 UV-I 624 W/m 12,2 C 18,1 C 24,1 km/h
O-NO (4 Bft)
100,00 %
Durchschnitt _ 13,1 C 13,9 C 13,8 C 73 % 1012,5 hPa #0,0 l/m 6,0 km/h (2 Bft) O - #7:50 h #2,337 mm 1,7 UV-I 274 W/m 8,3 C 12,2 C 9,4 km/h (2 Bft) 97,17 %